GFSMW_sfc_thetae_000.txt.gz
Theta_e
318 321 323 323 322 322 324 328 327 331 329 330 330 331 330 328 334 331 327 326 332 332 333 333 333 333 333 334 335 335 334 333 336 334 332 337 341 340 341 342 340 338 337
317 320 322 323 322 319 322 327 327 328 328 330 333 332 332 331 326 327 327 329 329 333 333 335 332 333 330 333 334 335 332 335 338 329 328 321 325 334 336 340 336 336 335
316 319 321 321 321 321 323 324 326 328 330 334 333 336 336 333 334 329 331 330 329 332 333 333 332 332 332 331 335 337 335 330 336 333 328 320 318 323 333 331 332 333 332
317 319 321 321 321 322 324 323 326 329 330 335 332 332 331 328 330 334 333 330 332 329 332 333 333 334 332 337 338 341 337 336 331 334 331 335 331 319 316 326 329 332 331
317 318 320 320 320 323 324 328 328 328 332 334 332 328 330 335 335 336 332 333 334 334 333 333 334 335 337 337 337 337 338 336 330 331 329 333 329 327 321 317 319 323 329
317 319 321 321 320 323 324 326 327 327 330 333 333 331 329 329 330 331 331 329 334 335 333 331 331 336 337 337 340 339 339 339 338 335 336 327 327 324 323 321 320 319 319
316 318 319 318 319 322 323 325 324 325 326 328 331 330 331 330 328 328 327 330 329 334 332 332 334 335 336 336 338 338 338 338 333 331 331 331 327 329 324 320 319 317 317
317 318 319 320 318 321 323 325 324 324 324 326 328 330 331 327 327 333 330 330 331 327 331 330 335 333 335 335 338 337 338 338 333 329 329 331 329 330 327 321 316 313 316
317 318 320 320 318 320 324 326 325 323 324 325 328 329 329 330 329 337 337 331 330 332 333 333 331 335 335 334 338 340 338 336 331 328 329 328 325 328 324 323 323 320 316
316 318 320 320 319 321 325 328 328 323 325 324 326 325 328 329 331 335 334 333 332 328 327 332 334 334 336 337 337 338 336 334 332 330 330 326 327 324 322 321 321 325 326
317 318 320 320 319 322 323 326 328 325 323 324 325 327 325 328 330 330 331 332 329 330 328 325 326 328 333 333 338 336 332 331 329 331 327 326 328 325 324 323 324 327 325
318 319 320 319 318 321 322 324 327 325 321 322 324 326 325 327 328 329 331 333 333 332 329 329 327 327 327 330 334 335 334 333 331 332 332 327 330 331 332 329 329 329 329
318 319 320 317 317 320 321 322 326 324 320 320 322 325 325 327 328 329 330 330 330 332 333 330 328 327 326 328 330 333 334 335 335 335 334 333 334 332 332 331 325 324 323
317 318 319 318 317 319 320 321 324 323 319 319 319 322 325 326 327 329 329 328 327 328 330 331 330 331 329 327 331 335 335 335 334 335 335 334 333 332 333 329 326 324 323
317 318 319 318 318 319 320 321 323 322 320 319 319 320 325 325 326 327 329 329 327 326 325 326 326 328 327 325 329 329 330 330 330 331 331 332 324 317 321 321 327 329 323
317 318 319 318 317 319 319 321 323 322 321 320 320 320 321 323 324 327 329 328 327 325 325 325 324 325 321 303 309 324 327 327 327 327 325 323 318 313 308 310 310 323 328
318 319 320 319 319 319 321 322 323 323 321 320 321 319 319 320 323 324 325 327 328 330 326 325 325 326 322 300 303 311 331 330 330 330 329 323 320 322 323 306 307 307 307
320 320 321 322 321 321 322 323 323 323 320 320 321 320 317 318 321 323 324 328 330 330 329 328 327 326 317 299 300 308 328 329 328 329 328 327 326 322 323 323 323 323 323
324 323 324 324 323 321 323 322 322 322 320 319 320 320 318 317 320 321 324 328 329 329 328 327 327 325 321 298 297 307 323 323 322 321 321 322 320 300 301 319 320 321 321
327 326 325 325 324 323 323 323 322 321 320 319 320 321 319 318 319 322 325 327 327 325 322 324 326 316 324 296 295 304 314 318 314 316 315 299 309 295 297 321 321 319 320
327 328 327 325 326 324 323 322 322 321 321 321 320 322 322 320 323 325 326 326 325 323 323 322 324 324 321 317 295 295 315 313 311 310 311 308 295 294 294 296 319 316 317
326 326 325 325 327 325 323 322 322 324 323 321 320 322 324 319 321 326 326 325 324 323 322 321 320 320 323 307 296 294 295 305 316 315 316 314 292 292 293 296 296 295 297
326 325 326 326 326 326 324 322 324 324 323 322 321 323 324 321 322 324 324 321 323 318 318 317 316 317 319 321 299 295 293 295 317 321 308 298 293 292 292 292 293 290 309
326 326 325 324 325 326 326 327 325 324 322 323 322 324 324 322 321 322 322 320 319 318 317 316 316 317 318 318 319 313 309 297 305 306 315 309 304 302 303 307 303 309 313
326 327 325 325 325 326 326 327 325 324 324 324 324 324 324 323 321 321 320 319 325 317 318 318 318 318 318 318 311 313 317 317 312 314 318 316 315 315 316 317 317 318 319
327 327 326 326 326 326 326 326 325 325 328 327 324 323 322 323 321 319 318 303 302 301 299 300 310 318 303 297 298 300 300 298 295 311 317 318 318 317 318 321 323 324 313

GFSMW_sfc_thetae_003.txt.gz
Theta_e
321 323 325 325 324 325 330 329 327 332 330 329 330 331 335 333 334 334 331 331 330 332 334 336 335 335 335 335 336 333 335 335 335 331 336 339 342 335 336 336 337 336 337
319 321 324 325 324 326 328 329 328 329 331 330 336 334 336 335 331 334 334 332 332 332 333 334 332 332 333 334 335 336 334 335 340 329 328 323 328 332 335 340 339 335 337
319 321 323 324 324 323 328 328 327 328 332 336 336 334 336 337 335 333 332 332 331 332 333 333 332 332 332 332 337 336 334 331 338 336 329 321 320 324 330 333 339 337 334
321 321 323 323 323 323 328 328 329 329 332 335 332 333 333 333 336 335 336 335 333 332 332 333 333 333 331 336 335 341 338 338 331 335 339 336 329 322 319 330 333 333 333
321 321 322 323 323 323 326 329 330 330 333 334 334 331 333 336 337 337 334 335 335 332 332 333 334 333 336 339 337 338 337 343 333 334 332 329 333 331 322 319 322 328 331
320 321 324 324 322 323 325 329 330 329 330 332 332 333 332 333 333 332 333 332 335 333 333 333 334 336 337 338 340 339 339 339 338 334 331 332 329 324 324 320 321 321 324
320 321 321 321 322 322 323 327 329 327 326 330 330 332 333 333 334 333 332 331 333 328 333 334 335 337 337 338 338 340 339 339 334 328 330 332 328 333 326 323 321 319 319
320 321 322 321 321 322 323 325 327 326 326 328 329 331 333 333 337 332 331 328 330 330 334 334 335 335 336 338 339 340 339 340 334 334 332 332 331 328 325 325 321 317 316
320 320 321 323 321 322 324 325 327 326 326 327 330 330 332 335 335 335 335 334 333 333 334 334 335 335 335 337 338 338 335 336 336 336 330 329 332 329 326 327 328 322 317
319 320 321 323 321 322 325 327 328 325 326 326 328 328 331 334 335 334 334 334 330 333 332 334 335 335 335 336 338 339 336 333 332 333 328 326 324 325 327 327 326 325 322
319 320 321 323 320 321 323 326 327 323 324 325 327 328 330 332 332 333 334 331 333 330 333 334 334 333 335 337 339 338 335 332 330 329 326 325 324 323 323 324 326 326 326
319 320 321 322 318 320 322 325 327 323 322 324 326 326 329 331 332 333 336 334 334 329 329 333 333 333 334 336 336 334 334 331 329 327 327 325 326 324 324 324 330 333 330
319 320 321 320 317 320 321 323 325 323 321 322 325 326 328 330 331 332 332 336 335 331 329 330 329 332 334 334 336 335 334 334 334 330 327 329 326 325 326 328 327 332 332
319 320 320 320 317 320 320 322 324 324 320 320 322 325 327 329 331 330 330 332 334 335 333 330 330 330 331 335 335 335 337 336 333 331 333 333 330 332 334 333 327 332 331
318 319 320 320 317 320 320 322 324 322 319 318 320 325 326 328 332 330 330 330 330 330 332 332 331 330 329 331 334 336 337 335 335 335 333 336 329 321 324 328 333 334 329
318 320 321 320 318 319 320 321 323 321 319 319 318 323 324 325 328 330 329 329 327 326 327 327 326 328 321 305 313 328 334 333 332 329 329 327 322 315 310 312 312 325 336
320 320 321 321 320 320 321 321 323 322 320 320 319 319 323 323 325 326 325 326 329 330 328 327 327 325 322 303 307 317 333 333 334 333 331 324 321 322 326 311 309 310 310
322 322 323 323 322 321 322 323 324 322 319 320 319 318 319 322 324 325 326 330 331 331 329 326 326 326 313 302 306 313 336 335 334 332 331 331 329 325 324 324 324 325 326
326 324 325 326 324 322 323 323 323 322 319 319 320 318 317 320 323 324 328 332 331 332 329 327 326 325 320 300 300 308 330 328 327 326 327 328 327 305 305 324 324 324 323
328 327 327 327 326 325 325 323 322 322 319 320 321 320 318 320 322 327 330 332 331 329 326 326 327 318 324 298 297 304 319 323 320 322 321 303 315 299 300 326 327 324 325
327 329 328 328 330 328 328 323 322 321 321 321 321 321 321 323 327 332 334 331 329 328 329 325 327 326 325 315 296 296 317 316 314 313 313 313 297 296 295 295 326 318 316
327 328 328 327 332 327 328 324 325 324 323 321 321 321 323 321 323 331 330 328 330 329 327 326 324 323 325 312 296 295 294 302 318 317 315 311 295 295 295 299 297 297 300
327 328 329 329 330 330 327 325 328 324 323 322 322 323 323 321 324 328 329 323 328 321 321 319 319 318 321 323 300 295 294 297 318 319 302 294 292 293 294 293 294 292 311
328 328 328 328 329 329 329 328 326 325 323 323 325 326 325 322 326 324 325 322 321 320 318 317 317 317 318 320 319 313 309 297 307 306 312 309 305 302 305 307 301 308 312
328 328 328 328 328 330 328 328 326 326 326 328 326 327 324 325 325 325 323 321 326 320 319 320 318 320 319 318 314 312 315 316 312 316 319 317 316 314 315 316 317 319 319
328 328 329 328 329 329 329 328 327 327 330 329 325 323 322 323 320 321 321 304 304 302 299 298 309 319 307 299 298 300 300 299 298 312 318 319 320 319 319 319 320 322 317

GFSMW_sfc_thetae_006.txt.gz
Theta_e
323 325 326 328 329 332 334 336 336 340 337 332 333 335 335 337 335 336 333 331 330 329 333 331 330 332 329 328 328 329 329 329 329 328 328 332 337 336 336 337 336 334 333
321 323 325 328 328 330 333 336 337 338 337 336 339 337 337 336 336 337 335 333 331 332 332 331 330 330 330 330 328 331 328 325 329 326 327 320 325 330 332 333 332 332 333
320 322 323 326 327 329 332 334 336 337 339 340 338 338 337 334 335 335 333 331 333 333 333 333 331 330 332 330 329 329 327 325 328 330 327 319 317 324 330 330 330 331 331
322 322 323 325 327 326 331 334 336 337 337 339 337 335 331 329 333 334 334 330 333 332 332 332 332 332 332 329 329 330 327 326 324 330 331 331 326 319 319 327 329 330 329
322 321 323 325 325 328 330 334 336 337 339 340 338 335 334 333 334 332 332 331 328 332 332 332 332 331 331 331 330 330 329 330 328 329 330 328 327 326 322 319 323 328 330
322 323 325 326 325 326 328 334 336 336 339 340 337 337 332 332 331 329 330 331 332 330 333 332 333 333 332 334 336 333 331 332 331 332 329 327 324 323 321 320 321 323 327
321 322 322 322 323 323 327 330 333 332 335 336 335 335 334 331 332 330 327 329 329 329 331 332 333 335 333 335 336 334 331 332 332 331 330 330 329 327 325 322 320 319 320
321 322 322 322 322 323 326 328 331 330 332 333 335 337 333 331 332 330 329 329 331 331 333 333 334 335 334 334 334 332 333 332 331 330 330 329 328 328 327 323 319 317 318
321 322 323 323 323 324 327 330 331 331 332 332 336 336 334 334 334 334 332 327 333 333 333 333 334 334 334 332 332 331 332 333 331 331 329 328 328 327 326 325 324 320 315
320 321 322 323 324 325 328 332 332 330 331 333 334 333 331 336 335 336 334 328 332 333 331 332 332 333 333 333 334 333 333 332 328 329 328 327 327 326 327 326 325 324 321
319 321 321 324 323 323 324 329 330 328 329 331 332 335 335 335 333 333 332 327 330 332 331 330 333 332 332 331 333 331 331 329 329 328 324 325 326 326 326 327 326 325 324
320 320 321 323 320 321 324 326 330 325 327 329 330 333 335 334 334 332 333 328 329 332 332 333 332 332 333 334 331 330 329 328 327 326 324 323 325 324 324 325 324 324 325
319 320 320 321 317 320 322 323 327 325 323 325 327 332 334 332 334 333 332 329 328 330 332 332 332 332 332 332 331 332 330 329 327 326 324 323 324 323 324 323 324 326 329
320 319 320 320 317 320 321 322 325 324 323 323 326 329 334 332 334 334 334 332 332 329 329 332 332 331 331 332 333 332 330 330 329 327 326 325 325 324 325 325 324 326 326
318 320 320 320 318 320 322 322 324 324 322 321 325 328 333 336 334 333 333 332 332 332 331 332 332 331 332 333 331 332 330 329 328 328 328 326 325 323 325 327 325 326 325
318 319 321 321 318 320 320 322 324 322 321 321 322 326 327 331 333 333 332 331 330 331 330 325 326 325 320 307 316 328 330 329 328 327 326 323 317 315 313 316 317 323 321
320 320 321 322 320 321 323 323 324 322 320 320 320 323 325 326 330 330 330 329 331 333 328 326 325 323 316 305 308 317 328 327 327 326 323 322 322 321 318 309 310 310 310
322 322 323 324 323 323 323 324 325 321 318 319 318 321 322 323 327 328 329 331 332 331 330 326 325 320 309 305 306 318 331 331 329 328 325 321 325 322 324 324 323 323 323
325 324 326 327 324 323 323 324 323 321 318 318 318 318 320 323 324 326 329 332 333 332 330 328 326 319 315 302 302 319 328 329 326 326 326 328 322 305 305 322 321 321 316
328 327 327 327 325 324 325 324 323 321 318 319 320 318 319 323 324 329 330 332 334 332 328 328 328 319 318 298 299 307 325 324 323 322 313 305 316 300 302 322 322 319 319
328 330 328 326 325 326 325 323 323 322 321 321 321 321 320 324 327 332 332 332 332 330 331 328 329 327 321 309 298 297 316 321 317 316 316 308 299 297 297 303 319 311 309
327 329 327 327 327 326 325 323 323 325 323 321 321 321 324 320 326 330 330 330 330 332 328 329 326 327 324 310 297 295 298 299 318 313 313 306 295 296 296 301 297 298 306
327 328 328 329 328 326 325 323 326 326 324 322 322 324 323 322 326 328 328 326 328 326 322 323 321 321 324 315 300 295 295 301 314 312 307 295 295 296 295 294 297 297 309
327 329 328 329 327 327 326 326 327 326 324 324 325 325 322 322 325 326 327 323 323 322 321 319 318 319 320 321 313 308 302 298 309 301 300 298 299 300 304 300 296 303 309
328 329 328 330 329 329 327 327 327 326 324 325 325 325 323 321 324 325 325 324 325 320 321 320 319 319 317 319 312 309 312 315 315 318 313 313 312 309 310 312 314 314 312
329 330 331 332 331 331 329 328 328 326 326 325 324 323 323 321 323 322 324 302 306 303 299 300 313 320 311 300 300 300 300 301 300 311 316 315 315 314 314 315 315 319 315

GFSMW_sfc_thetae_009.txt.gz
Theta_e
316 318 320 320 319 320 321 321 321 321 321 320 322 321 321 324 325 327 326 325 323 322 321 323 323 323 320 320 321 321 320 321 321 321 324 325 327 329 334 335 334 334 334
314 317 318 318 317 318 320 323 321 321 321 322 325 324 325 326 327 327 326 326 327 325 324 323 322 323 321 321 321 320 319 318 322 319 320 319 323 327 332 333 332 332 331
313 315 318 316 316 316 318 322 322 320 323 325 326 324 325 325 325 325 324 325 326 327 325 325 323 322 322 321 321 321 319 317 321 326 320 314 313 322 328 329 330 329 330
315 315 317 315 316 318 320 323 321 320 324 324 323 322 320 320 323 325 326 325 327 326 326 325 324 322 322 322 323 323 323 323 321 323 325 322 322 319 318 326 327 328 328
314 315 317 318 317 319 319 320 320 321 324 324 323 323 322 324 325 323 323 321 324 326 327 325 323 322 322 322 324 319 324 324 321 323 320 321 322 325 321 318 321 326 327
314 316 318 318 317 318 319 321 321 321 324 325 323 323 322 324 322 320 321 322 324 324 326 326 324 323 322 323 323 322 323 322 324 322 322 322 319 322 321 319 320 321 324
315 316 316 315 315 316 318 319 320 318 320 322 322 324 320 324 321 320 319 321 321 321 322 323 323 324 323 326 325 326 326 326 325 323 322 325 325 326 325 323 321 319 323
315 315 315 314 315 315 318 318 319 318 318 321 322 323 323 324 323 321 322 323 322 322 324 325 324 326 327 326 326 324 326 326 326 324 323 325 326 327 325 323 321 318 318
313 314 315 314 314 314 315 315 319 317 319 321 321 324 325 325 323 323 323 323 323 325 326 326 326 326 327 326 326 328 327 327 326 324 324 325 325 325 324 325 324 321 316
313 314 315 314 315 315 314 317 320 317 319 320 321 324 327 326 326 326 326 322 323 325 326 327 326 326 326 327 328 328 325 325 325 325 326 325 325 324 326 325 325 323 320
312 313 313 315 315 315 315 317 318 318 317 319 319 325 325 325 326 326 323 323 323 327 325 327 327 326 328 326 326 326 325 324 324 325 324 323 326 325 325 326 326 324 323
312 313 314 314 313 314 315 316 318 317 317 319 319 324 325 326 325 327 324 323 324 325 326 327 327 328 326 326 326 326 325 323 322 323 323 324 325 325 325 325 324 324 324
311 312 314 312 312 312 315 317 318 315 317 319 317 323 323 325 324 325 323 325 324 325 326 328 327 328 327 326 326 326 324 323 323 322 323 324 324 324 324 324 324 324 326
312 312 314 311 312 312 316 317 317 315 315 317 316 321 322 322 323 325 325 326 326 324 324 327 328 329 329 328 328 328 326 325 324 323 323 324 324 323 324 324 324 324 322
311 312 312 311 310 311 314 317 317 314 315 318 316 321 322 322 323 325 325 326 327 326 326 325 329 330 329 330 328 328 327 325 324 325 325 325 325 323 323 325 323 322 322
313 314 314 312 311 312 313 316 316 313 314 318 317 320 320 324 323 322 324 324 324 326 321 319 320 320 323 312 315 325 327 326 325 324 324 324 322 319 317 317 317 320 320
314 314 315 313 311 313 314 315 316 312 313 318 319 319 319 326 322 321 320 319 321 318 318 318 316 315 313 308 312 317 328 327 325 322 322 324 325 319 320 310 309 311 311
314 315 316 314 313 315 314 316 315 312 312 315 318 318 318 322 321 320 318 318 319 317 315 315 312 308 305 305 308 313 325 323 322 321 320 319 317 317 314 315 316 317 318
316 317 318 316 315 315 316 317 314 311 311 312 314 317 317 318 320 319 317 319 318 317 315 313 310 308 304 304 308 319 321 320 320 320 316 319 316 307 308 317 315 314 308
318 317 319 316 315 316 317 316 314 311 310 312 313 316 316 317 317 320 319 320 319 319 319 315 310 308 304 298 302 315 320 315 312 309 312 309 308 301 307 314 313 311 310
319 320 320 316 315 317 317 315 315 312 313 313 314 313 315 317 317 321 322 320 321 319 317 317 313 310 305 300 297 303 316 315 312 310 306 307 298 300 303 309 314 311 309
320 321 319 316 317 318 317 315 315 315 315 314 314 312 314 320 323 322 321 321 320 318 317 315 314 314 307 301 296 296 301 301 310 309 306 300 295 297 297 298 295 299 303
320 321 319 317 317 318 317 316 316 318 316 313 312 313 315 316 322 321 320 318 317 318 315 316 313 315 313 303 295 294 300 301 309 307 304 295 294 296 295 294 297 300 302
321 321 320 318 316 318 318 318 320 320 317 313 313 315 313 316 321 322 322 319 316 315 313 314 312 312 313 306 296 296 300 298 298 299 297 296 296 296 296 292 292 297 302
321 322 322 319 318 319 318 319 321 320 316 315 316 314 313 318 319 321 320 319 317 315 314 312 313 310 313 312 301 298 301 304 303 299 297 295 291 293 298 303 299 301 304
321 322 323 322 321 320 320 320 321 321 317 316 317 315 313 317 318 317 316 299 303 303 303 304 310 313 309 301 298 297 299 299 299 305 304 303 302 299 301 303 306 308 306

GFSMW_sfc_thetae_012.txt.gz
Theta_e
313 316 317 316 317 318 317 317 318 318 319 317 320 319 320 321 323 325 326 326 322 322 318 320 320 320 318 317 318 318 319 318 318 317 316 319 324 327 333 334 335 334 334
313 315 315 315 316 317 318 318 318 318 318 319 322 322 321 323 323 324 327 326 324 325 321 320 320 320 318 317 318 318 316 317 318 316 316 313 321 327 331 332 332 331 333
311 314 314 313 314 316 318 319 318 319 319 322 322 321 321 322 323 322 324 325 327 326 323 323 320 319 319 318 317 318 318 315 317 321 320 314 311 322 327 329 330 329 330
313 314 313 312 312 314 318 319 319 318 321 321 319 318 318 317 320 321 324 322 326 325 325 323 321 320 320 318 319 320 318 319 317 321 324 321 321 318 317 326 327 329 328
312 313 313 314 314 317 317 319 317 322 322 321 320 320 317 321 321 320 319 322 323 325 325 322 321 319 320 320 320 319 319 320 320 322 319 318 319 322 321 317 321 325 327
311 313 314 314 314 314 317 317 317 319 321 322 321 320 316 318 318 318 318 319 323 322 323 323 320 320 320 321 317 319 319 318 323 321 320 319 318 319 320 319 320 320 323
312 313 313 312 313 315 315 317 317 318 319 319 321 318 317 319 317 316 317 318 318 318 319 320 321 320 321 321 320 320 322 319 324 323 319 320 323 323 323 321 319 319 322
313 313 313 312 314 314 315 318 315 315 317 319 320 319 319 320 319 319 320 319 319 319 320 321 322 322 323 323 322 321 322 322 322 321 321 321 325 326 325 322 319 316 318
312 313 312 312 311 314 315 316 316 314 318 319 321 320 320 321 321 323 321 320 320 323 322 322 321 323 324 323 322 324 324 324 323 323 322 321 322 324 325 325 323 319 315
311 313 312 311 311 314 313 314 316 315 317 318 318 322 322 323 322 322 319 320 320 322 323 323 322 322 323 324 325 325 324 325 325 326 324 324 323 323 324 323 323 323 320
311 312 311 312 311 312 310 315 315 316 315 318 318 324 322 324 323 320 320 321 321 322 323 324 324 324 324 324 324 321 323 324 324 325 324 323 323 323 324 324 325 323 323
312 312 311 311 310 310 312 315 314 315 315 316 319 321 323 323 323 321 320 322 321 323 324 325 325 325 324 323 324 324 323 323 322 323 324 324 325 323 324 325 324 323 324
310 310 310 311 311 310 312 314 315 314 315 316 318 321 321 322 322 319 320 322 322 324 325 325 324 325 324 323 323 323 322 322 322 323 324 324 324 323 324 324 324 324 325
311 311 310 310 311 312 313 314 315 314 315 315 319 319 320 321 322 321 321 322 323 325 324 325 327 326 325 325 325 323 321 321 322 323 325 325 325 323 323 323 323 324 323
310 311 311 309 309 311 313 315 315 312 315 314 319 318 318 321 323 323 324 323 323 324 325 327 327 326 326 327 326 325 324 323 323 324 325 325 324 321 322 325 323 323 321
311 312 313 310 309 312 313 315 314 312 315 314 318 320 319 321 322 322 322 324 323 319 322 324 324 324 325 309 313 322 325 324 323 323 324 323 320 318 315 317 317 320 319
312 312 313 311 311 311 314 314 313 313 315 314 318 319 321 321 320 321 321 320 317 316 315 317 319 319 319 307 309 314 325 325 324 323 324 325 326 321 324 313 312 313 311
313 313 314 312 311 311 313 314 312 314 316 315 317 317 320 319 318 317 317 317 314 314 311 312 312 315 316 306 308 311 325 324 323 323 323 324 323 323 319 316 315 314 315
314 314 316 313 312 312 313 315 310 313 316 315 316 316 320 319 317 315 316 315 313 311 311 310 309 311 311 303 304 316 321 321 320 321 320 320 318 308 304 315 312 307 304
315 315 315 313 312 313 314 313 309 310 314 315 316 315 318 318 317 314 315 315 313 312 311 309 308 305 304 302 305 314 319 316 314 314 316 308 312 299 301 313 312 309 305
314 315 315 312 313 313 315 312 310 308 312 315 316 315 315 316 317 315 316 316 315 313 310 309 307 305 303 299 302 306 315 314 310 311 311 306 297 300 300 304 310 308 307
314 316 315 313 313 314 315 312 310 310 311 313 314 314 314 317 319 317 316 317 315 313 311 309 306 305 302 298 297 302 304 306 310 309 309 302 297 297 298 302 296 297 302
315 317 315 312 313 315 315 313 312 311 311 311 311 311 314 316 319 318 316 315 315 313 313 312 309 310 305 298 295 296 298 301 308 308 303 295 294 294 294 294 295 298 303
316 317 315 312 312 314 315 315 315 314 312 310 309 309 314 314 319 320 319 318 315 314 313 313 311 311 308 299 294 299 300 300 303 300 296 296 295 295 294 293 297 301 305
318 318 315 314 314 315 315 315 317 316 313 310 310 310 313 316 318 320 320 319 318 317 315 315 314 312 310 307 296 297 300 300 300 295 293 291 291 293 294 293 295 301 307
318 317 317 315 315 315 315 316 319 317 314 311 312 311 311 316 318 317 313 297 306 302 303 302 309 312 308 299 295 294 296 295 294 296 294 292 291 292 296 300 301 303 301

GFSMW_sfc_thetae_015.txt.gz
Theta_e
309 312 312 315 317 316 316 316 316 317 317 315 317 317 318 319 321 322 325 326 324 322 319 317 319 319 316 315 315 315 317 315 316 315 314 321 324 324 326 328 331 332 336
310 312 312 316 316 315 316 315 316 317 316 316 319 319 318 321 322 321 325 327 325 322 319 318 319 318 316 315 315 316 316 315 316 313 312 310 317 325 328 330 331 331 334
309 311 312 315 315 315 315 317 316 317 316 320 319 318 319 320 319 319 321 322 326 325 322 321 319 317 316 314 315 316 316 313 317 317 313 309 309 319 325 327 330 330 331
310 311 312 311 314 315 317 317 317 316 319 319 318 316 316 314 317 318 320 321 325 325 323 322 320 318 317 315 316 318 316 316 315 318 320 318 321 316 316 324 326 329 328
310 311 311 313 313 315 316 317 316 316 318 319 318 317 315 317 317 317 317 317 322 324 324 320 319 318 317 316 317 317 317 317 317 318 318 318 320 320 320 316 320 325 327
309 309 311 311 312 314 316 315 317 318 318 319 319 316 315 315 316 315 316 317 320 319 320 321 318 318 317 318 318 318 317 317 320 323 321 319 317 317 319 319 320 320 323
309 310 310 310 311 313 314 314 314 316 318 319 319 316 317 316 313 317 316 316 317 316 317 318 318 318 318 319 316 318 317 319 321 322 322 318 320 322 323 321 319 318 322
310 310 310 311 312 314 314 315 314 314 316 318 318 316 317 317 316 318 317 317 316 316 317 319 320 319 321 320 318 318 317 320 320 319 318 321 321 325 323 321 319 316 318
309 310 310 310 311 312 313 315 313 313 316 317 318 318 318 317 319 317 318 318 317 319 319 320 320 321 321 320 319 320 321 321 320 318 320 322 322 322 324 325 323 318 315
309 310 310 310 312 313 313 314 314 313 316 317 318 320 319 320 320 319 318 318 319 320 320 319 319 320 320 321 324 324 325 324 324 321 323 324 324 323 324 324 322 322 320
310 310 310 310 312 311 311 313 313 314 315 316 316 320 320 321 319 318 318 319 319 320 320 321 320 320 321 321 322 322 324 323 324 323 323 322 324 322 323 323 324 323 323
310 310 310 308 309 310 309 313 313 314 313 316 318 320 321 320 318 318 319 320 320 321 322 322 322 322 321 320 321 323 323 323 323 323 323 323 324 323 324 324 323 324 324
308 308 308 309 309 309 310 313 313 313 314 316 319 319 319 319 317 318 319 320 321 321 322 322 322 322 321 321 322 322 322 323 323 324 323 323 324 323 324 324 324 324 325
310 309 309 309 309 310 311 313 313 312 314 315 319 318 318 319 318 319 320 321 322 321 321 322 323 323 322 322 321 321 321 321 323 324 324 325 324 323 324 323 323 323 323
309 310 309 308 308 308 310 313 313 312 313 317 317 317 318 320 320 320 320 321 322 322 323 323 323 323 323 323 321 321 321 322 322 324 325 325 322 321 321 323 322 323 322
310 311 311 309 309 310 311 312 313 312 313 317 317 318 318 321 320 319 320 320 318 321 325 323 325 324 325 305 312 320 323 323 323 323 323 322 319 317 313 315 315 320 321
311 311 311 310 310 311 312 311 312 312 313 316 318 318 319 320 320 320 319 317 314 316 320 322 322 322 320 305 306 313 324 323 323 323 323 325 323 322 323 312 313 314 310
312 312 313 311 310 312 312 312 311 314 313 314 318 318 320 319 319 319 317 313 311 312 314 317 318 320 316 304 304 310 324 323 323 324 324 323 323 322 322 321 319 316 316
313 313 314 313 310 310 312 312 310 313 313 314 316 316 320 316 316 316 314 311 310 309 311 312 315 317 315 301 302 316 322 321 321 323 323 324 321 306 306 318 312 308 307
313 313 314 313 310 310 312 311 310 313 313 314 316 315 319 316 314 314 313 311 310 310 309 310 313 310 313 300 302 314 319 316 318 319 317 310 316 300 300 313 308 306 304
312 313 313 311 310 311 313 311 309 312 314 316 315 314 317 316 315 314 313 311 310 309 307 307 306 308 311 309 301 306 318 317 315 315 313 311 302 298 298 304 309 307 303
311 313 312 311 311 312 313 311 308 312 315 315 314 313 315 319 316 314 314 312 310 308 306 305 304 303 302 301 300 300 306 307 313 313 311 306 296 296 297 303 300 296 302
313 314 313 310 310 312 314 311 310 309 313 313 313 310 313 315 316 313 313 312 310 308 307 305 304 304 301 298 297 298 298 301 309 310 306 295 294 294 297 296 295 298 306
313 314 312 310 309 312 314 313 310 310 311 310 311 310 312 311 315 316 315 315 312 310 311 309 306 306 303 298 295 301 302 301 303 299 297 296 295 295 297 297 299 304 306
314 314 312 311 311 313 313 313 311 310 309 309 309 309 312 312 315 316 315 316 316 314 314 313 311 308 306 303 296 298 301 304 301 295 294 293 294 292 292 293 299 303 303
314 314 313 312 312 313 313 314 313 312 310 308 307 308 311 312 315 315 311 298 302 301 300 302 309 312 306 299 294 293 294 294 293 295 293 292 293 294 293 293 298 302 301

GFSMW_sfc_thetae_021.txt.gz
Theta_e
320 318 318 320 323 325 326 329 329 332 331 328 328 329 328 332 333 335 336 336 337 335 332 328 329 328 327 328 329 329 328 328 330 327 323 328 333 335 337 340 339 336 339
317 317 317 321 322 324 326 328 330 331 331 330 331 333 334 335 335 335 336 336 335 335 331 331 324 326 327 328 328 327 326 328 330 326 326 319 325 332 335 336 335 336 340
317 317 317 320 323 324 326 329 330 330 331 332 332 333 334 333 332 334 335 335 334 334 330 329 329 329 330 329 328 327 327 324 327 330 326 317 315 324 333 334 334 336 337
316 318 318 320 322 324 328 329 330 331 331 333 332 333 331 328 332 333 334 334 331 333 330 332 330 331 330 329 328 328 328 329 324 326 332 332 329 322 321 330 332 334 331
317 317 318 320 323 325 326 328 330 331 332 333 334 331 330 331 333 332 331 331 334 332 330 332 331 331 330 330 329 329 329 329 331 330 330 331 329 330 326 319 323 328 332
316 318 320 322 323 326 326 328 329 330 332 332 333 332 330 329 329 329 330 331 332 332 332 331 332 332 331 330 329 330 330 330 332 333 332 330 326 326 328 321 321 322 326
316 317 318 320 322 324 326 327 328 328 331 331 332 330 329 329 327 328 330 329 328 330 331 332 332 331 332 331 331 331 330 331 331 332 332 333 329 329 333 326 322 321 324
317 317 319 321 322 324 326 326 327 328 330 331 331 331 330 331 331 330 331 330 330 330 332 332 332 331 332 332 332 330 330 332 333 332 332 332 334 335 337 326 324 320 322
316 317 319 321 323 325 326 327 327 329 330 331 331 331 331 331 332 331 332 331 331 330 332 332 331 332 332 331 333 330 330 331 330 326 325 327 332 333 336 336 332 326 317
316 317 319 321 323 325 327 327 328 328 329 330 331 331 332 333 332 332 331 332 332 331 332 332 332 332 333 332 332 330 332 331 329 329 330 330 331 331 333 333 330 329 323
316 317 319 321 323 325 325 326 326 326 327 329 330 332 332 330 330 332 333 332 333 332 331 331 331 332 328 328 329 330 328 327 328 329 328 328 330 330 331 332 331 328 325
316 318 319 320 321 323 324 325 326 325 327 329 329 331 331 329 330 331 331 333 333 333 331 330 330 326 325 327 327 326 327 328 325 326 327 327 329 329 326 327 330 328 329
316 317 318 319 320 322 323 324 325 325 326 327 330 332 330 329 330 331 333 333 333 332 331 330 329 326 325 327 328 327 326 327 328 327 327 328 328 327 325 326 329 329 328
316 316 317 319 320 321 322 323 324 325 326 327 330 330 330 329 331 332 333 333 333 332 331 331 330 325 326 326 326 327 327 328 327 329 331 331 328 330 330 327 328 327 325
316 316 317 319 320 321 322 323 324 324 326 327 329 330 330 330 331 332 332 333 333 332 332 331 330 325 324 324 326 327 327 328 327 328 328 330 328 322 324 328 328 326 324
316 317 318 319 320 321 321 322 323 324 325 327 327 329 330 329 330 332 331 332 332 331 331 330 330 326 323 306 312 321 326 327 328 326 327 325 320 316 312 313 316 323 323
317 318 319 320 321 321 322 322 324 324 324 326 327 328 329 328 330 330 329 331 332 332 331 329 330 325 322 305 307 313 328 328 327 327 327 324 325 326 325 311 312 312 310
318 319 320 321 322 323 322 324 324 323 323 325 326 328 328 328 329 328 327 330 332 331 327 326 326 324 320 302 304 310 329 328 329 329 328 325 330 324 327 324 324 327 323
321 322 323 323 323 322 323 323 323 323 322 323 325 327 328 327 328 326 325 327 329 329 325 325 324 319 313 301 303 317 326 325 327 328 329 329 330 304 308 322 320 320 318
323 322 323 323 323 323 323 322 322 322 322 323 325 326 328 328 327 328 326 327 329 328 330 326 324 314 318 300 303 317 324 322 323 327 327 309 317 300 308 328 327 324 322
323 324 323 322 323 323 323 321 321 322 324 324 326 327 329 330 330 330 327 327 327 329 329 328 327 325 321 311 301 307 327 326 323 325 324 323 300 300 303 308 329 323 321
321 322 321 322 323 323 322 322 321 324 325 324 325 326 329 328 328 329 326 326 328 327 326 326 326 327 326 308 301 302 311 315 326 326 328 323 299 298 300 308 295 299 309
322 322 322 322 321 322 323 322 323 324 323 324 324 326 329 327 327 327 325 323 326 325 324 324 323 324 326 326 299 300 301 307 327 329 316 300 297 296 303 295 296 302 322
321 322 322 320 319 322 323 325 324 323 323 323 324 325 327 326 326 327 325 322 322 322 322 323 321 321 321 325 326 322 320 304 317 306 313 306 306 301 311 309 306 320 321
320 322 322 322 320 321 322 324 323 323 323 324 324 324 324 325 325 326 324 323 325 320 321 322 323 322 321 322 316 318 325 327 317 315 317 319 320 321 321 322 320 320 318
320 321 322 322 321 320 322 323 323 324 325 323 322 322 322 324 325 325 322 298 304 302 300 303 315 322 307 297 296 298 298 296 296 318 319 318 318 318 319 319 318 319 314

GFSMW_sfc_thetae_024.txt.gz
Theta_e
322 326 327 329 328 332 333 335 336 340 337 334 332 331 330 332 335 337 340 340 340 338 338 338 330 331 330 328 332 333 329 331 333 330 329 331 334 331 330 335 340 341 341
321 325 327 327 329 331 333 335 336 338 337 334 334 333 332 333 336 338 340 340 339 338 337 335 334 330 326 330 331 331 330 330 334 328 327 322 326 331 335 336 339 338 340
320 324 325 327 329 331 333 334 337 338 338 338 336 336 337 336 334 335 336 338 338 338 336 335 331 331 330 331 333 332 329 328 333 334 328 321 317 323 333 336 337 338 340
322 324 326 328 330 331 333 335 337 338 338 338 335 335 330 328 335 335 338 337 337 336 336 335 333 334 334 334 334 332 331 332 330 333 331 331 327 318 323 334 337 339 339
322 325 326 328 329 331 333 335 337 337 337 337 337 334 333 334 335 335 334 337 337 335 333 336 334 334 336 336 334 331 330 335 333 329 332 332 327 330 328 324 328 333 335
323 325 327 328 329 331 333 335 335 335 337 337 338 336 335 333 332 332 332 335 337 336 335 334 335 336 336 333 333 333 332 334 335 334 331 332 325 325 330 328 326 326 328
324 324 325 326 328 329 331 332 333 333 336 336 337 336 336 334 334 333 334 332 334 334 334 335 335 335 335 335 334 334 333 334 335 335 330 333 333 334 335 332 325 322 325
325 325 325 327 327 329 330 330 332 332 333 335 336 336 336 336 335 334 333 335 334 335 336 335 336 335 335 335 335 333 333 335 336 332 331 332 333 335 340 336 325 320 322
324 324 326 327 328 329 330 331 330 331 333 335 335 337 336 337 336 335 336 334 335 332 335 335 335 335 335 335 336 336 335 336 336 335 335 335 333 341 339 338 336 326 318
324 325 326 327 328 330 331 332 330 331 333 334 335 335 336 337 336 336 334 333 334 333 334 334 334 335 335 334 335 334 335 334 332 327 329 333 337 339 334 337 337 335 327
323 324 325 327 329 330 330 329 330 330 332 333 334 336 336 335 336 335 334 334 334 334 333 333 334 333 334 337 336 334 333 331 333 333 332 332 334 333 332 336 332 328 327
323 324 325 326 327 328 328 327 329 329 331 332 333 335 335 334 336 334 335 335 334 333 332 332 332 332 334 335 331 331 332 330 329 330 331 332 332 332 332 333 332 330 327
323 324 324 325 326 327 326 326 328 328 329 330 331 335 334 335 334 334 335 334 333 333 332 332 333 330 332 331 331 330 329 330 331 330 329 331 332 327 327 329 333 331 327
322 323 324 325 326 326 324 325 326 329 328 328 331 334 333 333 334 335 335 333 334 332 332 332 331 329 329 329 329 329 330 330 333 331 332 331 330 326 327 329 330 330 328
322 322 323 325 325 325 324 324 326 328 328 327 330 333 334 334 334 334 334 334 335 334 333 332 330 329 329 328 329 329 329 328 331 334 332 332 328 323 325 330 332 328 324
321 323 324 325 325 324 323 324 325 327 328 327 329 332 333 333 333 334 334 334 333 333 333 333 332 330 327 308 313 323 330 330 331 332 332 331 325 320 313 315 316 323 324
322 323 324 326 326 324 324 325 325 327 327 326 329 331 332 332 332 333 333 334 334 335 333 332 332 328 329 306 308 312 331 331 332 332 328 327 330 327 324 312 312 311 311
323 324 325 327 327 326 325 326 326 326 325 325 327 331 330 331 332 333 334 334 336 334 331 328 330 329 326 305 305 310 331 332 334 331 334 332 331 325 328 327 323 320 321
327 327 328 329 329 326 326 325 325 324 324 324 326 330 330 331 331 331 335 336 334 325 328 329 327 328 324 301 304 315 331 332 332 334 332 332 331 305 309 325 320 318 313
329 328 329 330 329 327 326 326 324 323 323 324 325 331 331 331 330 330 334 336 336 333 330 328 324 314 319 300 302 318 327 327 328 331 331 308 318 302 307 326 327 320 318
329 330 330 329 329 327 327 325 324 323 324 326 326 329 332 331 333 332 335 336 334 334 332 329 329 328 323 313 302 309 326 327 325 327 327 319 299 301 306 312 331 323 324
328 329 329 329 329 328 326 324 324 326 325 326 326 327 332 331 332 333 333 335 335 333 332 331 330 327 329 313 304 301 311 317 327 326 327 320 298 300 303 313 300 302 313
327 329 329 329 329 328 326 324 326 326 325 325 326 327 331 331 333 332 330 331 334 331 331 330 329 329 331 329 302 300 304 307 331 332 317 299 297 299 301 297 300 300 327
326 329 329 328 328 328 327 326 327 326 325 325 326 327 328 330 331 330 328 327 329 329 326 326 328 329 330 330 330 328 327 309 323 310 322 316 310 299 310 311 312 329 329
325 328 328 328 328 328 327 328 327 326 325 326 327 327 327 329 330 329 327 324 328 323 325 325 325 328 329 329 321 323 330 331 323 325 327 327 329 328 327 324 325 326 325
324 326 329 329 328 328 327 328 328 326 326 326 326 326 324 327 327 329 328 298 305 305 303 305 315 323 307 303 303 304 301 299 302 325 327 326 326 325 325 325 325 326 320

GFSMW_sfc_thetae_027.txt.gz
Theta_e
324 326 328 333 333 336 339 341 341 351 348 342 336 335 333 336 335 336 340 340 341 340 343 340 340 337 332 333 333 329 326 333 334 332 331 333 334 335 331 332 332 336 338
321 324 326 333 333 336 338 339 341 346 345 340 341 337 337 334 334 336 340 340 340 342 340 340 339 337 332 333 332 332 330 331 333 326 328 321 328 332 330 333 335 338 337
320 323 324 333 334 334 337 338 341 342 345 346 342 338 338 339 335 334 336 339 339 340 339 338 337 335 336 331 335 334 331 329 332 333 329 322 318 323 328 332 334 339 336
322 322 328 332 333 334 337 339 341 341 341 344 343 344 333 329 333 336 334 338 338 337 336 337 336 335 335 337 335 337 334 333 329 333 335 332 330 322 320 334 337 341 340
321 321 329 332 333 335 336 339 340 339 341 341 342 335 335 331 333 333 336 339 340 337 336 336 335 336 340 335 335 334 334 336 333 334 334 336 328 330 322 324 328 337 340
320 326 331 333 333 334 336 338 338 338 339 338 339 339 337 334 332 333 334 339 340 338 337 334 336 337 337 335 333 334 334 335 336 335 334 330 325 325 325 328 329 329 330
325 328 329 329 331 333 335 335 336 336 337 337 337 337 337 337 336 336 336 337 337 335 337 336 336 336 336 335 336 336 334 335 335 335 335 332 331 334 335 327 329 324 326
327 328 328 330 331 332 334 333 335 334 335 335 336 336 338 336 338 336 335 334 336 338 337 335 336 335 335 335 335 336 338 337 337 335 335 336 330 330 337 332 328 322 323
327 327 329 330 331 332 333 334 334 334 334 334 336 336 337 337 337 336 337 334 337 334 335 335 335 335 335 335 336 337 335 336 334 335 334 332 335 334 343 339 336 324 319
326 327 329 330 331 332 333 334 333 332 333 334 334 335 336 337 337 336 335 336 337 334 334 335 335 335 335 335 337 337 336 334 329 332 332 331 336 332 340 338 337 336 329
326 327 328 330 331 332 332 332 332 331 332 333 334 337 337 335 337 337 335 335 334 334 332 334 334 334 334 336 336 335 332 332 330 331 329 333 330 335 332 334 332 330 331
326 327 328 329 330 331 331 329 331 331 332 332 333 336 335 334 337 335 335 336 334 332 332 332 333 332 332 335 333 332 333 331 330 332 330 331 333 334 335 332 331 328 329
326 326 327 328 329 330 328 328 329 329 331 331 331 335 333 335 334 334 336 335 332 331 331 332 332 331 332 331 332 331 331 330 332 332 332 332 333 331 330 331 331 329 326
324 326 327 328 329 329 326 326 328 329 330 329 331 334 334 335 334 336 335 334 332 331 331 332 332 332 330 330 330 330 330 332 333 332 334 331 326 326 329 328 328 327 325
324 325 326 327 328 327 325 326 327 328 328 328 332 333 334 334 335 334 334 335 334 332 331 333 333 330 330 328 330 331 331 333 333 333 332 333 326 323 324 330 329 327 324
323 325 326 327 327 326 324 326 327 327 328 329 330 332 332 333 332 335 334 334 333 333 333 332 332 330 329 309 314 323 330 334 333 332 332 332 323 318 313 315 317 324 323
324 325 326 328 328 325 325 325 326 328 327 328 330 331 332 331 331 332 333 333 334 335 333 333 332 331 329 308 310 313 333 334 333 333 332 331 329 327 328 313 312 312 312
325 326 327 329 328 326 326 327 327 326 326 328 329 331 330 332 331 332 332 335 338 335 335 333 333 331 325 308 308 311 335 333 334 333 333 333 330 327 329 325 323 323 324
328 328 330 331 329 326 326 326 326 325 326 326 329 330 330 331 331 332 334 336 331 331 331 332 331 331 326 304 303 313 333 331 333 332 331 332 330 306 308 322 318 318 319
330 330 331 331 329 327 327 326 325 324 325 326 329 331 331 332 331 334 335 338 337 332 329 330 328 316 328 300 302 314 333 330 329 331 327 309 316 305 308 322 321 319 320
331 332 331 331 329 328 327 325 325 323 326 327 329 332 333 333 333 336 338 338 336 333 330 330 329 328 324 317 301 307 332 331 331 327 327 323 302 305 311 314 323 319 323
330 331 331 331 330 328 327 325 325 326 326 327 328 331 334 332 332 335 336 336 336 333 331 330 329 329 328 313 303 302 312 317 332 327 326 318 299 301 305 314 303 304 317
329 331 331 331 330 328 327 325 327 326 325 327 327 331 333 332 334 332 334 333 334 330 330 330 329 328 330 328 304 303 303 309 332 330 313 299 298 299 306 302 304 305 330
328 331 331 330 329 328 327 327 327 326 325 327 328 330 331 331 333 331 331 331 331 328 328 328 329 330 329 329 329 328 327 307 319 309 315 315 309 304 312 315 315 327 328
328 330 331 331 330 328 327 327 327 326 326 327 328 328 330 331 331 331 327 328 333 324 326 327 330 329 328 327 321 323 330 331 324 326 329 328 328 324 323 324 326 328 328
328 329 331 331 331 329 327 326 327 326 327 328 326 327 327 330 329 327 326 297 303 303 301 302 314 326 312 303 303 303 301 302 305 326 327 326 326 325 324 324 325 326 322

GFSMW_sfc_thetae_030.txt.gz
Theta_e
325 329 331 333 342 342 345 351 351 353 350 348 344 341 339 340 340 342 343 343 344 342 342 340 339 338 335 333 332 331 329 324 327 327 326 328 330 330 330 331 329 330 332
322 326 331 336 341 343 345 347 348 350 349 347 346 341 339 337 339 340 343 343 342 341 341 340 338 337 334 332 331 330 326 325 328 322 322 318 322 327 330 330 330 333 333
319 321 325 338 338 339 341 342 346 348 348 345 345 348 343 344 340 341 340 342 341 341 340 338 338 336 334 331 331 330 328 325 328 327 322 316 314 319 326 328 330 331 333
321 322 325 335 336 337 339 342 345 345 346 347 344 342 336 335 338 337 339 341 342 340 339 339 335 334 334 332 332 332 329 327 323 326 328 326 323 317 314 323 326 330 329
322 323 328 334 335 337 338 342 343 342 345 346 343 341 341 340 341 338 340 341 340 340 338 337 336 335 335 333 332 331 329 329 326 326 324 324 324 320 316 314 321 326 328
321 324 333 334 334 336 337 340 340 341 342 344 345 343 341 340 338 338 337 338 340 338 338 336 336 336 335 333 334 332 331 329 329 328 329 326 321 317 317 318 321 320 324
321 329 330 331 332 334 336 338 338 338 340 342 341 342 342 342 340 339 337 338 337 335 337 336 336 335 335 335 333 332 332 330 328 327 328 329 327 326 325 322 320 320 325
326 329 330 330 331 334 335 335 336 336 337 338 339 341 342 339 340 340 338 337 337 336 337 335 335 335 335 333 334 333 330 330 330 328 329 329 328 329 325 323 321 319 320
328 328 329 330 332 333 335 335 335 335 336 337 339 340 340 341 339 340 340 338 338 335 336 335 336 336 335 335 334 330 330 331 329 330 329 329 331 329 325 322 323 320 316
327 327 328 331 332 334 335 336 336 335 336 337 337 335 338 338 339 340 337 338 337 333 335 336 335 335 334 334 333 332 334 330 328 328 329 329 330 329 328 328 327 326 321
326 327 328 331 332 333 333 335 334 333 334 335 338 337 337 334 338 336 337 337 337 335 333 333 335 334 333 333 332 333 330 328 327 328 326 327 327 327 329 328 327 325 324
326 327 329 330 330 331 332 332 333 331 333 334 335 337 333 334 336 336 336 337 334 333 333 332 332 332 332 335 332 330 332 330 328 327 326 326 329 327 328 327 326 325 325
325 326 327 328 329 330 330 330 330 331 331 332 334 333 334 336 336 336 336 335 334 332 331 331 330 331 333 332 331 331 330 330 329 328 327 326 327 327 326 327 326 325 324
325 326 326 328 329 330 328 328 328 330 331 330 333 334 335 334 335 337 336 337 332 330 330 332 331 332 331 330 331 330 330 331 330 329 330 326 324 325 326 326 325 324 322
324 326 326 328 329 328 327 327 328 329 330 331 332 334 333 335 335 335 335 336 330 330 330 332 331 331 329 328 331 331 330 331 330 329 330 326 323 320 324 326 325 323 321
323 325 327 328 329 327 325 326 328 328 329 332 332 333 332 332 334 334 335 336 334 333 332 332 330 329 326 308 311 321 331 331 330 329 326 324 320 316 314 317 318 321 321
324 325 326 328 329 326 327 326 328 328 327 330 331 331 332 331 332 333 333 333 333 333 331 331 330 327 325 307 307 311 332 330 330 329 329 328 325 323 321 311 312 312 311
325 326 327 330 330 327 327 328 328 326 326 329 330 330 330 330 332 330 333 334 334 333 332 331 329 327 322 309 301 305 332 331 331 330 330 328 328 323 324 323 322 322 322
328 328 330 331 330 327 327 327 326 325 326 326 330 330 331 331 331 332 334 335 333 331 329 330 329 326 323 301 302 317 331 330 329 330 330 328 322 306 308 322 320 320 319
330 329 331 332 329 328 328 327 325 324 325 326 330 331 331 331 333 333 334 336 335 331 331 328 328 318 324 303 302 313 329 327 325 327 323 310 316 304 307 322 321 318 319
330 332 332 331 330 330 329 326 325 323 327 328 331 332 333 333 335 335 335 335 333 330 327 326 326 328 324 319 303 303 329 328 326 324 322 316 302 305 306 312 322 319 322
329 331 331 331 330 329 328 326 326 326 328 328 330 333 335 331 335 336 336 335 333 330 328 326 325 327 327 313 305 304 311 317 326 323 324 311 300 304 307 314 302 304 314
330 331 331 332 330 329 328 327 328 327 327 327 331 333 333 332 334 335 333 333 334 330 328 328 326 326 326 323 304 304 305 310 325 327 308 298 300 300 303 302 302 305 325
328 332 331 331 328 328 328 330 328 327 327 328 332 333 332 332 332 333 334 332 331 330 329 328 326 326 325 325 325 324 320 311 314 308 312 309 309 310 312 311 311 328 327
328 331 331 332 329 328 328 329 328 327 327 329 330 332 332 332 332 332 329 332 320 323 330 330 329 326 325 326 319 321 327 325 319 320 321 322 320 320 320 322 323 324 326
328 329 334 333 331 328 327 328 328 327 329 329 328 329 330 331 330 327 323 297 301 300 298 302 323 329 313 305 305 306 306 304 304 323 323 324 321 320 320 320 321 324 320

GFSMW_sfc_thetae_033.txt.gz
Theta_e
315 316 320 319 326 326 330 334 340 340 344 341 339 334 331 330 332 334 332 336 335 336 333 334 330 330 327 326 326 324 322 320 322 321 321 320 323 323 325 326 326 326 326
314 316 317 320 326 327 333 335 338 340 339 340 336 333 330 329 328 330 331 333 334 332 331 330 329 327 327 326 326 325 319 318 320 317 319 314 316 320 324 324 326 323 326
311 313 314 325 327 329 331 332 335 338 338 338 335 332 330 328 327 327 329 331 332 332 330 330 328 328 327 323 322 322 320 317 319 319 314 309 309 313 319 322 325 328 326
312 312 312 325 327 329 331 334 337 337 335 334 332 329 324 323 325 325 328 331 332 334 332 330 328 326 325 323 323 325 322 321 318 319 322 319 317 310 309 317 321 323 324
311 312 313 328 328 330 331 335 335 333 335 331 331 327 324 326 327 328 328 329 329 331 332 330 328 326 325 324 323 323 322 321 318 317 316 317 316 319 312 309 314 318 321
310 316 327 329 329 332 333 334 332 332 332 331 330 325 324 325 324 325 324 324 326 327 329 330 327 326 325 324 323 323 322 323 323 323 322 319 315 313 313 310 312 313 317
313 324 325 326 328 329 331 331 330 329 329 332 329 329 326 325 325 325 325 325 325 326 326 326 326 325 325 326 326 324 324 324 323 321 320 321 320 320 316 314 313 315 320
322 323 325 325 327 330 330 329 329 328 329 328 328 328 327 326 327 326 326 326 325 326 326 326 326 327 327 327 326 325 323 323 322 323 322 323 322 326 321 317 318 316 319
322 323 324 325 328 329 328 328 328 327 329 328 327 328 328 328 327 327 326 327 326 326 326 326 326 327 327 326 325 323 324 324 321 322 322 322 324 322 319 321 323 318 314
321 322 323 326 328 328 328 328 328 327 328 328 327 328 328 329 328 326 325 326 326 326 326 327 327 327 326 326 327 324 325 322 323 322 322 322 323 323 324 321 319 320 317
320 322 324 326 327 328 328 327 327 327 326 326 326 328 328 329 327 327 327 325 325 326 327 329 328 327 327 327 324 323 326 325 323 324 322 322 322 323 323 324 320 319 318
321 323 324 325 325 326 326 325 325 325 326 327 327 327 330 328 326 326 326 324 326 324 326 328 328 328 327 325 324 324 325 325 324 322 323 322 327 324 323 323 322 321 322
321 322 323 323 324 325 325 325 324 324 325 328 328 329 327 326 325 326 326 325 325 325 327 327 328 328 327 325 325 326 325 326 326 326 325 324 325 323 323 324 323 323 323
321 322 322 323 324 325 324 323 322 324 324 330 326 327 325 326 326 327 326 327 328 325 327 327 328 326 325 325 325 325 325 326 327 327 326 325 324 323 324 323 323 323 321
320 321 321 322 323 322 321 323 322 323 324 327 327 326 326 327 327 327 326 327 327 327 329 326 324 324 325 324 323 327 327 326 326 325 325 324 323 323 323 324 323 322 320
320 321 322 323 323 321 321 321 321 322 327 327 329 327 327 328 326 326 326 326 328 329 327 324 323 320 321 307 310 318 325 327 325 322 323 323 320 318 315 316 317 320 319
321 321 322 323 322 320 320 319 320 321 327 327 330 328 328 327 326 327 326 324 324 324 324 322 322 318 315 302 302 308 328 328 325 322 322 324 322 321 319 311 311 311 311
321 322 323 322 320 319 319 320 320 320 326 327 329 327 328 326 327 327 325 323 323 323 323 322 319 317 312 301 301 306 326 324 327 324 323 324 324 321 323 322 321 321 321
322 323 324 322 319 320 320 320 318 318 324 325 327 328 328 325 325 325 325 325 325 322 323 322 318 316 311 302 301 316 324 324 324 325 323 324 322 306 308 322 320 319 317
323 324 324 322 319 320 320 319 317 317 319 325 328 327 327 326 325 325 325 324 322 322 325 322 319 313 314 303 301 311 323 321 322 321 319 308 315 303 307 322 320 318 318
323 326 324 320 319 320 320 317 316 316 320 325 328 327 326 327 327 325 326 325 322 325 321 321 320 319 315 312 301 307 324 321 321 320 317 312 303 302 304 311 321 318 319
323 325 322 321 321 321 320 317 315 318 321 327 327 327 327 331 330 326 326 325 322 321 320 322 319 320 318 308 303 306 314 314 321 320 316 309 301 301 303 313 300 302 313
322 325 323 321 321 321 320 318 318 319 320 324 325 327 328 329 329 326 325 325 323 322 320 319 318 317 317 314 303 305 307 311 319 320 311 299 300 300 302 301 303 309 323
324 324 323 320 320 321 321 321 320 320 321 326 325 325 326 326 328 329 327 325 324 322 323 322 320 319 317 316 317 317 311 306 308 304 305 307 307 307 310 310 313 324 323
324 326 323 321 320 321 320 323 321 320 321 326 325 325 325 324 324 321 320 325 323 324 324 323 323 320 319 320 315 316 320 318 313 312 313 313 313 315 317 319 317 321 320
321 324 325 323 322 322 321 323 321 320 323 324 325 324 325 325 323 312 309 298 299 298 307 310 320 322 312 303 304 305 303 301 302 317 316 314 315 317 318 318 318 318 318

GFSMW_sfc_thetae_036.txt.gz
Theta_e
315 317 317 315 319 324 326 327 333 334 338 336 334 331 328 327 327 330 334 334 332 333 329 329 328 327 326 324 323 323 323 322 321 318 318 320 324 323 323 324 324 325 327
310 313 314 319 322 324 326 331 334 337 337 336 332 330 328 326 327 329 332 334 333 332 331 329 327 327 324 324 323 322 319 319 319 315 317 313 317 319 321 322 323 323 324
309 311 313 317 321 325 329 332 335 335 335 334 332 327 327 326 324 324 325 329 332 331 330 328 327 325 325 322 321 320 318 315 315 317 312 307 310 315 317 320 321 322 321
309 310 310 319 322 326 329 333 335 335 335 333 330 327 323 321 322 324 325 328 330 329 331 328 327 325 324 322 320 322 319 317 315 317 319 315 314 309 307 315 319 321 321
307 307 309 321 324 327 329 333 333 333 331 330 330 325 322 322 322 325 325 326 327 329 330 328 326 324 322 321 321 321 320 319 316 315 314 315 314 315 310 308 313 318 319
307 310 317 326 326 330 333 332 330 329 328 328 326 324 324 322 323 323 323 323 324 326 328 328 325 324 322 322 322 321 320 319 319 318 318 316 311 310 312 308 310 312 316
307 320 322 324 327 330 331 329 329 326 327 325 325 324 323 323 323 322 321 322 322 323 324 324 323 323 323 323 323 322 321 320 320 320 319 318 317 316 313 312 311 313 315
312 320 323 325 328 329 329 328 326 325 326 326 325 324 324 324 323 322 323 323 323 323 324 324 323 324 325 325 324 322 321 321 320 319 319 318 319 322 320 315 314 312 314
318 320 322 326 327 327 327 327 325 325 324 324 325 324 325 325 323 324 323 324 324 324 324 324 324 324 325 325 323 321 322 322 320 320 319 320 322 323 319 318 318 316 314
319 320 323 326 327 326 327 325 325 325 324 324 325 325 325 326 325 324 324 324 323 323 324 323 324 324 325 325 323 322 325 322 320 321 320 320 320 321 318 319 319 320 318
319 321 324 325 326 327 326 324 324 324 324 323 324 323 324 326 325 323 324 324 323 323 324 326 326 325 325 324 322 321 323 319 320 322 322 321 321 322 319 318 317 318 319
319 322 324 324 325 326 325 324 323 324 323 323 325 324 325 325 324 324 324 322 323 323 325 327 326 326 325 322 323 323 324 324 322 322 320 320 325 321 321 319 317 316 318
320 322 323 324 324 325 325 324 323 324 323 325 325 325 326 323 323 324 323 321 322 322 323 325 326 326 324 323 324 325 324 325 324 323 323 323 323 322 323 322 321 321 321
320 321 322 323 324 325 325 324 322 324 324 326 324 325 323 323 323 324 323 322 324 323 326 325 325 324 323 323 323 324 324 325 325 325 325 324 323 322 323 323 322 322 321
319 320 321 322 323 323 323 323 322 322 324 326 326 322 323 324 324 324 324 324 327 327 327 323 322 322 322 320 321 324 323 325 325 324 324 324 323 321 322 323 322 321 320
319 320 321 322 322 321 322 321 322 320 324 326 327 324 324 325 324 323 323 327 326 327 325 321 321 318 319 305 307 316 324 324 322 321 322 322 320 317 315 316 316 320 320
319 320 321 322 322 321 321 318 320 323 325 326 327 325 325 325 324 324 323 323 323 322 319 319 318 315 313 301 301 308 324 321 319 320 323 323 321 320 319 310 311 310 311
320 321 322 322 321 321 319 317 322 324 325 326 327 325 325 324 324 323 321 320 320 320 319 317 316 314 313 300 301 309 324 322 323 321 324 322 321 320 320 320 319 319 319
322 323 324 322 319 318 318 319 321 324 325 327 327 325 325 324 324 323 320 320 320 318 318 316 315 313 312 300 303 315 322 322 323 324 324 323 321 305 307 320 318 317 314
323 323 323 320 319 317 319 318 317 322 323 324 326 326 325 324 323 322 321 320 320 323 322 316 314 311 313 300 302 314 323 322 320 320 318 309 315 302 305 320 319 316 315
323 324 321 318 318 319 318 316 315 318 324 326 326 324 324 323 323 322 321 319 320 321 320 318 314 314 312 310 302 307 322 321 319 318 317 314 301 301 302 309 319 316 317
322 322 319 317 318 319 318 315 314 316 323 325 325 324 324 327 325 323 321 320 320 321 318 316 314 315 314 305 301 305 309 312 319 317 317 309 299 300 301 308 300 303 311
320 321 318 317 318 319 318 315 316 316 323 324 324 324 326 326 325 323 321 319 317 317 317 317 317 315 315 315 301 303 302 307 318 318 310 298 298 298 300 300 303 307 319
323 321 318 317 316 317 318 318 316 320 324 323 324 325 325 323 323 324 323 321 319 317 319 318 319 318 314 315 317 314 310 304 308 304 307 306 307 307 310 311 314 322 321
323 323 319 318 317 317 318 318 317 321 323 324 324 325 325 324 323 320 320 323 322 320 320 320 321 317 316 316 312 313 316 316 309 308 315 315 316 315 317 320 321 320 319
323 324 322 320 319 318 319 319 318 323 324 323 324 324 325 324 322 315 310 298 301 298 301 308 316 319 309 299 299 301 300 297 299 312 312 314 316 317 317 319 320 318 316

GFSMW_sfc_thetae_042.txt.gz
Theta_e
311 310 312 312 312 312 313 313 313 317 329 329 328 328 330 332 332 333 335 335 335 335 333 331 330 329 328 328 326 325 325 325 326 323 321 323 325 325 326 326 329 329 330
305 308 309 310 310 311 313 313 314 321 327 329 327 328 327 328 330 333 336 337 336 334 334 332 329 329 326 326 325 326 324 323 324 319 317 315 319 322 325 325 326 328 328
304 307 308 308 308 309 312 315 317 325 327 328 326 324 325 325 326 328 330 333 335 334 334 329 328 327 327 326 326 325 323 319 320 320 318 312 312 316 322 322 322 327 327
304 306 306 306 307 309 317 323 326 328 329 328 326 327 325 324 323 326 327 330 333 332 330 329 328 327 326 325 325 324 324 319 317 319 319 318 317 314 313 318 320 324 326
302 302 303 306 307 310 321 326 328 329 329 327 327 324 322 322 323 324 325 326 328 329 330 329 329 328 326 325 324 322 321 321 318 319 318 317 317 318 316 312 318 321 323
300 301 302 304 305 318 324 327 328 327 327 327 325 325 323 322 322 322 323 324 325 327 328 329 329 327 325 324 323 323 322 321 321 320 319 318 317 315 316 313 314 317 320
299 300 301 309 315 320 326 327 327 325 326 325 325 324 323 324 323 322 322 322 322 324 325 326 325 325 325 324 324 323 322 321 320 321 320 320 319 318 318 316 314 317 320
297 298 300 309 318 324 327 327 326 324 324 324 324 323 324 323 322 323 323 323 324 325 326 326 326 325 325 325 324 324 323 323 322 321 321 321 321 320 320 319 317 316 318
298 299 311 318 324 324 325 325 324 323 323 322 322 322 323 323 323 323 324 323 324 325 325 325 325 325 325 325 324 324 323 324 323 323 322 321 322 322 321 322 321 320 313
299 314 320 323 325 323 323 324 323 322 322 323 323 323 323 324 323 323 323 323 324 326 325 324 324 325 326 326 325 323 324 324 323 322 322 321 322 323 323 323 322 322 319
305 318 321 323 323 323 324 322 322 322 322 323 323 324 323 324 323 323 323 323 323 323 324 324 325 325 325 325 324 324 324 324 322 323 322 322 322 322 321 321 322 321 322
314 320 321 323 323 322 322 322 322 322 323 324 323 323 323 323 322 323 323 323 323 324 325 326 326 326 326 326 324 324 325 323 321 321 322 321 323 322 320 320 321 322 324
318 320 321 322 322 322 321 322 322 321 322 323 322 322 322 322 322 323 323 323 323 324 326 327 326 326 326 325 324 324 324 324 323 321 321 322 324 321 320 320 321 323 324
318 320 321 322 322 322 322 322 321 322 322 323 322 322 322 322 322 323 322 323 323 323 324 326 326 325 324 324 325 325 325 324 324 323 324 324 324 323 321 321 322 323 322
317 319 320 321 321 321 322 323 322 321 323 323 322 322 322 322 323 322 322 323 323 323 325 324 323 323 322 319 322 325 324 323 323 324 324 324 324 321 321 322 323 322 321
318 320 320 322 321 321 322 323 321 321 323 322 322 322 322 323 323 322 322 323 324 324 325 322 321 320 315 301 304 316 327 326 323 321 322 322 319 316 313 315 316 320 320
319 320 321 322 322 322 322 321 321 321 323 323 323 323 324 323 323 323 323 323 323 322 321 320 320 318 316 300 301 310 324 324 323 323 322 323 321 320 320 311 312 311 311
320 321 321 322 322 322 321 320 320 322 322 323 324 324 324 323 323 323 322 321 321 320 319 318 318 318 313 301 303 307 323 323 324 324 323 321 321 320 320 321 320 321 321
320 321 322 321 321 321 320 320 320 322 323 323 323 324 324 323 323 321 320 319 319 319 318 318 317 318 317 301 303 314 325 323 323 324 323 322 319 304 306 318 315 316 314
321 321 321 320 319 318 319 319 319 321 322 324 324 324 324 324 322 320 319 320 320 319 318 316 317 311 319 301 303 316 323 321 320 320 318 308 312 301 304 317 315 313 313
320 321 321 319 319 317 319 318 320 321 323 325 324 324 324 324 322 320 321 320 320 318 317 315 316 317 315 312 301 308 324 322 320 319 316 310 300 299 301 307 316 313 315
321 321 319 317 316 317 319 318 319 322 324 325 323 323 323 325 322 321 320 320 320 318 315 314 314 316 317 304 300 303 307 310 320 318 314 305 298 299 300 307 299 301 310
320 322 320 316 316 318 319 318 320 322 323 323 322 322 323 323 322 320 319 318 319 318 316 316 315 316 318 316 300 298 300 305 317 318 306 297 297 298 300 298 299 305 317
321 320 317 316 314 317 317 319 317 323 323 322 321 322 322 321 322 321 320 319 320 320 318 316 315 315 318 319 316 313 311 303 306 303 306 306 306 305 305 307 312 320 320
319 319 317 316 316 316 316 316 318 323 322 322 322 323 321 322 321 319 318 320 320 319 319 319 319 317 316 319 311 312 317 316 309 311 316 316 314 312 314 317 318 317 318
318 317 316 316 316 316 315 315 319 323 322 321 322 322 322 322 321 317 315 295 301 301 303 304 314 319 306 299 299 298 296 298 301 316 316 315 315 315 316 316 317 317 313

GFSMW_sfc_thetae_045.txt.gz
Theta_e
317 320 322 325 326 331 332 335 332 335 333 336 336 338 337 340 341 342 344 344 344 343 341 340 340 340 338 335 339 339 338 335 331 332 330 332 334 334 333 333 334 335 336
314 317 320 323 327 330 332 335 333 332 334 336 340 341 341 338 338 343 344 345 344 341 342 342 336 334 335 340 339 338 334 334 332 325 324 322 326 330 332 333 331 330 334
311 315 317 322 325 327 331 331 332 333 336 340 340 340 340 339 338 340 341 341 343 343 343 339 336 339 341 338 339 338 335 327 326 328 327 321 319 325 330 331 331 334 333
310 313 316 320 323 325 325 327 334 336 337 340 340 340 338 337 339 340 343 343 344 343 340 338 342 342 340 340 337 334 332 328 325 325 328 328 327 321 318 327 328 329 330
310 310 312 316 318 322 321 328 337 339 339 340 342 340 340 340 341 341 342 344 344 343 338 343 342 341 339 339 339 334 328 329 330 328 326 326 327 329 324 320 322 323 332
308 310 312 314 316 317 322 333 339 340 340 341 342 342 340 339 338 340 340 340 340 340 340 339 340 341 339 338 337 336 334 331 332 329 328 326 323 323 323 324 323 322 323
309 311 312 313 315 321 329 335 339 339 340 340 340 341 340 342 341 340 337 337 335 338 339 340 340 338 338 337 336 335 334 333 330 331 328 328 327 329 327 323 323 323 322
312 312 313 313 314 322 331 336 339 338 339 338 338 339 340 338 338 338 337 336 336 337 340 339 339 337 336 335 335 333 332 333 332 332 331 330 330 329 327 324 326 319 320
313 318 319 322 322 329 331 337 339 338 338 338 337 338 338 338 336 338 339 337 339 338 338 338 337 336 335 335 335 332 333 334 333 329 332 331 330 330 329 328 333 328 315
315 322 322 325 328 332 337 339 339 337 337 337 337 336 336 337 337 337 337 337 338 337 337 336 336 335 335 335 336 334 334 333 332 326 332 332 330 331 331 329 327 333 327
317 323 324 324 330 335 337 337 336 335 335 335 335 335 335 336 337 337 336 337 337 337 335 334 333 334 334 336 335 334 333 332 329 326 330 330 331 329 330 326 329 328 330
319 322 323 324 330 334 334 335 335 334 335 335 335 335 336 336 336 336 336 335 334 334 333 333 333 333 334 335 334 333 332 330 324 323 323 324 329 331 327 326 330 327 332
319 321 322 324 330 333 333 332 333 332 333 334 334 334 334 335 335 335 334 333 333 333 333 334 333 332 333 333 333 332 331 329 327 324 324 324 327 328 324 328 327 329 332
318 321 323 324 330 332 332 331 331 332 332 332 332 333 334 334 334 334 334 333 333 333 334 334 333 333 332 332 333 332 331 328 326 325 324 324 327 326 322 326 329 330 330
316 322 322 324 330 331 330 330 330 331 332 331 331 332 334 334 334 333 333 333 333 333 334 333 333 332 331 327 332 332 329 327 325 325 326 326 328 323 326 329 329 330 324
317 323 323 325 329 330 330 330 330 330 330 330 330 332 332 332 333 333 332 333 332 333 333 332 330 330 325 302 304 319 332 330 326 322 324 324 321 319 314 316 317 327 325
319 325 326 328 330 330 330 329 330 330 330 330 330 331 332 331 332 331 331 332 333 334 332 331 329 328 328 301 302 310 331 328 326 324 323 323 321 321 323 312 312 312 311
321 326 329 330 331 332 331 331 330 329 329 330 330 331 331 330 331 330 331 333 334 332 331 330 329 329 323 302 303 308 331 328 329 327 324 322 323 321 321 323 324 325 325
324 328 331 332 332 331 332 330 328 328 329 329 329 330 331 330 330 330 331 333 331 330 330 330 328 329 323 302 302 317 328 327 327 326 324 323 320 305 306 323 322 322 319
326 329 331 331 331 331 331 330 327 328 328 329 330 331 331 331 330 331 331 332 332 330 328 328 329 314 323 301 304 318 325 323 322 322 319 309 314 300 304 321 321 317 315
326 330 331 330 331 331 331 328 327 327 330 331 331 331 332 332 332 332 332 331 330 328 328 326 328 322 319 315 301 307 327 324 322 318 317 310 300 300 302 308 321 316 318
325 328 329 330 331 331 330 327 328 330 331 331 331 331 333 331 331 331 331 331 330 325 325 325 323 321 321 305 302 302 308 312 322 318 314 307 298 298 300 309 300 301 310
325 328 329 328 329 331 331 327 329 331 331 331 331 331 332 332 332 330 330 329 329 327 322 322 322 320 321 317 299 299 301 305 319 317 307 297 296 297 299 298 300 305 316
325 328 328 326 326 329 331 330 330 330 331 331 331 331 332 331 331 331 330 327 327 325 323 322 319 319 321 321 320 317 315 304 307 303 305 305 305 305 305 308 312 319 320
326 328 326 326 326 328 329 330 329 330 331 331 331 331 331 332 331 330 328 329 330 325 322 326 324 321 320 321 314 315 320 320 310 312 316 315 314 313 315 318 319 320 320
325 325 325 327 326 327 327 327 329 331 331 330 330 330 330 331 329 325 322 296 302 301 303 304 316 324 307 299 299 298 297 298 300 316 316 315 315 315 316 317 318 320 317

GFSMW_sfc_thetae_048.txt.gz
Theta_e
321 323 324 326 328 332 337 344 342 349 342 336 338 340 341 345 345 347 349 349 349 348 347 346 343 344 340 339 339 337 339 341 341 338 338 338 338 339 338 340 339 339 338
319 321 323 325 327 331 336 342 343 346 343 339 343 343 344 344 347 348 350 350 350 349 345 348 345 345 341 341 341 340 338 337 338 333 330 324 333 336 341 341 340 339 340
315 318 320 322 324 327 334 336 342 344 345 344 345 347 348 346 344 346 347 348 348 345 347 348 346 345 343 340 343 344 341 336 337 337 331 322 321 329 333 335 338 338 338
316 317 318 320 324 326 328 333 338 342 343 347 349 351 343 341 343 346 348 344 346 347 348 348 346 345 344 344 344 343 343 340 330 329 333 334 331 323 323 332 335 337 334
315 315 316 318 321 323 325 333 336 339 345 348 350 346 348 346 347 346 348 349 348 347 348 348 347 348 344 345 343 341 341 337 335 331 330 330 330 331 328 322 327 331 331
314 316 317 319 319 321 323 327 332 342 347 347 348 350 349 348 345 347 346 346 345 346 348 348 349 348 345 345 345 343 338 337 335 334 333 328 325 326 326 328 328 325 329
314 317 318 318 320 322 324 327 338 343 347 347 347 348 350 351 351 349 346 347 345 345 347 347 346 344 345 344 344 342 339 336 334 336 330 330 331 333 332 330 329 323 326
316 320 324 325 323 322 325 333 338 343 346 347 348 351 352 349 349 350 347 344 343 344 349 346 346 345 343 342 342 337 335 337 335 336 334 331 331 333 332 330 329 322 323
316 322 329 329 329 323 330 336 341 345 346 347 348 349 349 349 346 348 348 342 345 343 346 345 344 342 341 340 340 334 336 336 336 336 336 334 337 332 333 336 335 330 318
317 324 330 331 332 332 336 341 344 345 346 346 347 346 347 346 347 346 343 343 344 344 344 343 341 341 339 338 338 335 336 335 336 334 333 334 336 337 336 334 332 333 328
315 325 329 330 334 337 340 343 344 344 344 345 345 345 343 343 343 342 343 344 344 343 341 340 339 337 337 337 337 336 335 334 335 332 327 333 335 336 336 338 335 331 331
312 324 327 327 335 339 341 342 343 343 344 344 343 341 342 342 343 342 342 343 341 340 338 336 335 335 334 337 336 335 333 334 333 327 326 328 333 332 335 330 327 335 337
311 321 327 326 331 338 340 341 342 341 340 339 339 340 341 341 341 341 341 339 337 336 335 335 334 333 334 335 336 335 333 333 333 327 325 326 329 331 331 326 335 335 336
310 318 327 326 331 335 338 338 339 339 338 338 338 338 339 338 338 339 338 337 336 335 335 335 334 335 334 335 334 333 333 330 328 326 324 325 326 331 329 334 332 334 332
310 316 327 326 329 332 336 337 337 336 337 335 334 334 336 337 338 337 337 337 335 335 335 335 335 335 335 333 334 333 334 332 325 326 325 327 326 324 325 329 334 334 329
310 316 327 326 328 331 333 334 335 335 335 331 331 334 335 336 337 337 337 335 335 336 335 335 334 334 331 304 306 319 335 331 326 324 326 328 323 323 316 317 319 328 328
311 315 328 326 331 331 332 334 334 334 331 329 332 334 335 335 335 335 334 334 335 337 335 335 334 333 333 304 304 309 335 332 326 325 325 324 327 325 331 314 315 314 312
312 315 327 331 333 333 333 335 334 331 328 329 332 333 333 333 334 334 334 335 336 335 336 335 333 333 328 304 303 309 334 333 330 326 326 323 325 325 328 330 330 330 331
323 325 330 334 333 333 333 334 332 328 328 330 331 332 332 332 332 332 334 336 335 336 336 335 333 333 329 302 303 313 333 331 330 327 324 324 324 307 307 328 327 328 326
324 326 331 335 333 334 336 333 328 327 328 330 331 332 332 333 332 333 334 336 336 335 334 332 332 318 328 301 303 318 330 330 326 324 321 310 316 300 305 328 325 322 319
321 325 332 332 334 336 335 330 327 327 330 332 332 333 333 334 335 336 335 335 333 334 333 331 329 328 327 320 302 307 331 328 323 322 317 314 300 299 302 312 327 321 323
322 327 331 332 334 335 333 329 326 330 332 333 332 333 336 334 334 336 334 334 335 334 332 330 327 325 326 307 304 303 308 314 324 321 315 309 297 298 300 312 301 302 312
325 328 330 332 334 334 333 327 328 332 332 332 332 334 335 334 335 334 333 332 333 332 331 327 327 323 324 325 300 300 302 307 324 320 305 296 296 297 299 299 300 305 321
326 328 330 332 332 333 330 328 331 333 332 332 333 334 334 333 335 333 333 331 333 331 328 326 326 326 324 326 327 322 319 305 308 304 310 305 305 304 304 306 312 324 322
329 330 330 332 332 333 328 330 332 332 332 333 333 334 334 335 334 334 330 332 335 329 330 329 328 327 325 325 317 318 324 323 310 313 317 316 314 313 314 317 318 320 319
331 331 333 333 332 330 327 330 332 332 333 333 332 332 332 333 332 331 329 297 300 301 302 301 315 326 307 299 300 298 298 299 300 317 318 315 315 315 316 317 317 318 316

GFSMW_sfc_thetae_051.txt.gz
Theta_e
325 327 329 330 331 339 343 346 344 353 348 340 337 336 339 343 345 348 353 351 352 351 354 347 350 350 346 347 349 341 340 333 342 339 340 336 340 342 341 345 344 340 338
322 324 326 328 334 338 341 345 347 352 353 343 346 342 346 343 347 348 353 352 351 353 350 352 350 349 345 348 345 345 335 335 341 334 330 325 335 335 341 338 341 340 340
319 321 323 327 328 334 339 340 347 352 355 352 348 351 350 351 346 348 349 351 351 351 350 350 350 350 349 342 346 343 344 337 338 339 332 324 320 331 337 338 338 339 340
318 320 322 326 329 331 332 339 344 350 352 358 347 354 345 343 345 348 349 350 352 350 348 349 350 351 347 348 345 346 344 341 334 336 335 335 332 326 325 335 338 339 339
317 318 319 323 324 327 331 336 343 348 351 354 352 346 350 346 347 347 353 351 348 349 347 349 350 348 346 351 350 348 344 340 339 333 331 332 333 332 326 325 329 334 338
316 318 319 320 321 323 325 333 339 345 350 352 352 358 356 355 347 350 346 344 346 347 347 349 349 352 351 347 344 345 344 344 341 338 333 332 329 327 327 328 329 330 333
315 316 318 319 321 323 324 327 334 341 345 349 349 352 359 362 360 352 348 346 344 344 349 352 353 348 348 346 345 345 343 340 337 338 334 331 330 330 334 332 330 328 329
316 318 320 324 324 326 326 325 327 334 343 347 348 352 356 349 351 354 349 347 347 348 354 351 348 346 345 344 345 343 342 342 336 338 337 335 333 339 338 334 332 326 325
315 318 322 328 330 329 327 328 334 341 346 347 350 353 354 358 352 360 360 350 354 349 348 347 346 344 343 343 343 339 337 339 339 338 338 335 335 340 332 339 337 330 320
316 319 326 331 334 333 329 333 337 343 346 349 351 351 353 353 352 352 353 352 350 347 347 344 343 343 342 341 341 338 338 337 335 338 337 336 334 338 335 341 340 338 330
313 317 329 332 334 336 334 337 341 344 347 348 349 350 350 349 349 347 345 345 346 344 341 341 340 340 339 339 339 339 336 334 336 336 333 334 336 337 338 339 338 329 329
313 317 331 331 337 336 338 341 344 344 345 347 347 347 347 345 345 344 344 344 342 340 339 339 338 336 336 337 335 334 335 333 332 333 331 329 332 334 337 340 336 337 338
312 317 330 333 337 337 339 341 342 343 344 344 344 343 342 342 343 342 342 341 339 338 338 336 334 333 333 335 335 333 333 333 333 333 329 326 329 329 335 337 332 337 336
312 316 330 330 335 336 338 340 340 342 342 341 340 340 341 341 340 341 340 338 338 336 335 335 334 333 334 335 335 334 334 334 331 328 327 326 327 330 331 332 335 335 331
311 315 328 328 332 335 337 336 338 339 339 338 338 339 339 339 338 337 337 337 337 335 334 334 336 335 334 329 335 335 335 334 331 327 325 327 326 323 323 337 335 335 330
310 314 326 330 331 333 335 335 337 337 338 336 335 335 335 335 335 336 337 338 335 334 337 335 334 335 330 305 309 322 335 334 330 325 325 327 323 323 316 315 317 330 331
311 313 317 331 331 333 335 334 335 336 334 332 332 332 333 334 335 335 335 334 336 339 335 335 335 334 331 306 307 310 336 332 329 327 327 327 330 326 331 316 315 315 314
311 317 317 332 332 335 334 336 336 333 331 331 331 332 334 333 333 334 334 336 338 337 338 336 334 334 326 306 304 307 333 333 330 326 327 325 329 330 331 331 332 331 331
316 321 328 334 336 334 335 334 332 330 329 329 330 331 333 332 332 332 334 338 339 337 337 335 334 333 332 305 305 314 333 332 329 327 326 325 327 309 306 331 328 326 324
320 321 326 333 336 335 336 334 331 329 328 329 330 332 333 332 332 334 337 337 337 336 335 333 335 321 332 304 304 315 332 329 328 326 323 310 319 303 304 329 328 324 320
319 323 325 331 335 334 335 332 330 327 330 331 331 333 333 334 334 336 339 336 335 335 334 332 331 333 329 324 305 304 329 329 324 321 319 316 300 299 305 312 331 323 322
319 324 326 333 337 334 335 331 328 330 330 331 330 334 335 332 332 336 336 335 337 335 333 330 327 330 331 308 305 305 308 317 327 323 319 311 298 299 302 314 302 304 313
322 325 325 332 334 335 333 330 329 330 332 331 332 333 334 333 333 334 334 333 336 334 329 328 327 326 329 328 302 301 303 304 322 321 304 296 295 297 302 299 302 306 323
323 326 329 330 329 334 333 330 330 331 332 330 333 333 333 330 333 331 333 336 335 334 332 328 326 327 327 327 328 323 321 306 311 305 310 304 304 303 308 311 311 324 323
322 327 330 330 331 332 332 329 330 332 330 330 331 333 330 333 332 328 330 334 334 328 334 333 327 327 325 324 317 321 325 322 313 315 318 316 313 311 313 319 321 324 323
323 326 330 331 332 332 328 328 331 333 329 331 330 331 330 331 329 330 329 298 299 297 297 299 317 321 307 298 298 299 299 299 300 319 318 315 314 313 315 317 318 321 318

GFSMW_sfc_thetae_054.txt.gz
Theta_e
325 326 328 331 339 344 341 343 346 349 352 346 345 342 341 341 344 347 354 356 354 352 352 348 350 348 344 343 346 343 340 336 336 336 335 335 338 337 338 338 336 337 338
322 325 331 338 337 343 345 347 346 347 349 347 347 347 346 342 344 351 354 355 354 353 351 348 347 347 345 346 345 342 336 334 338 333 332 325 330 335 336 336 337 335 335
318 324 325 332 338 337 340 342 346 347 349 348 348 350 350 352 352 354 354 354 353 353 351 348 348 347 346 343 344 341 338 332 335 337 330 322 319 324 332 334 334 334 333
318 320 324 331 335 337 340 344 345 344 346 349 347 345 340 338 344 351 350 352 353 351 349 348 348 348 345 344 342 342 338 339 333 335 335 334 329 321 320 329 331 333 332
318 318 321 325 324 327 331 333 341 343 345 345 347 343 346 346 354 352 354 351 351 350 348 348 349 347 346 347 343 343 342 340 335 333 331 331 330 329 323 319 324 330 331
316 319 321 322 323 325 326 329 335 338 343 347 349 348 348 345 347 348 350 347 347 347 347 347 346 349 347 346 345 345 343 339 338 336 332 329 326 324 324 321 322 323 327
316 317 319 320 322 324 328 331 338 337 344 344 350 347 348 349 357 350 348 344 343 344 345 345 345 347 348 347 345 343 340 340 337 335 333 332 330 331 327 324 322 321 325
315 317 320 322 321 326 327 326 329 335 343 343 344 350 351 352 355 350 347 343 342 343 345 346 348 347 347 345 345 342 341 338 337 336 334 332 331 330 330 326 323 318 320
318 317 319 323 326 331 339 336 329 334 337 338 347 349 352 354 352 352 349 346 346 346 346 348 347 345 345 343 343 341 338 337 337 335 334 332 332 332 330 331 329 322 315
314 316 319 324 334 336 340 340 335 336 338 348 350 350 354 355 355 353 349 346 349 348 347 346 346 344 343 342 341 339 337 336 336 334 333 333 332 334 333 332 330 327 322
313 315 319 328 332 337 337 337 337 343 346 348 349 351 351 354 353 351 350 347 348 347 346 344 342 341 342 340 338 337 335 334 334 333 331 332 333 331 332 332 329 328 326
312 313 325 331 330 332 335 336 340 343 347 349 349 351 346 346 349 346 346 345 344 343 341 341 339 338 338 336 336 334 333 332 331 332 330 328 332 330 329 330 327 328 328
310 313 326 329 333 336 334 335 343 344 346 346 343 342 342 344 345 344 344 344 342 342 339 339 337 336 336 334 334 334 333 333 332 331 329 326 327 326 326 328 327 328 329
310 314 328 329 336 337 336 339 339 341 341 341 340 340 342 343 343 343 342 342 339 339 339 338 335 333 333 334 334 333 333 333 333 330 326 325 325 326 326 328 329 327 326
308 312 326 330 334 336 337 337 337 338 338 337 337 340 342 342 341 340 340 339 340 338 336 336 333 333 330 329 334 335 332 332 328 328 326 324 324 322 321 326 329 326 326
307 311 318 328 333 334 331 336 334 335 336 335 337 340 339 338 338 338 338 339 337 338 333 334 333 327 324 305 310 323 333 333 329 326 324 326 322 321 314 317 317 325 324
307 311 316 326 331 332 335 334 333 335 334 336 336 335 335 334 335 336 336 336 334 337 335 334 333 330 322 304 308 312 334 332 329 326 323 325 328 324 325 313 314 315 315
309 312 325 327 331 335 335 333 333 334 334 333 332 332 332 333 334 334 333 336 336 337 335 334 333 330 320 307 307 308 334 331 329 326 325 325 327 327 327 327 326 326 324
311 318 325 327 333 333 335 333 331 332 330 330 330 331 333 333 332 332 334 336 335 334 334 335 333 331 324 304 305 316 332 330 327 326 324 324 326 308 307 327 325 322 318
319 321 324 325 333 332 336 333 331 330 329 329 330 333 334 333 332 334 336 336 335 335 335 334 333 320 324 303 303 315 329 327 326 325 321 308 317 302 304 327 325 319 318
316 319 324 326 328 333 336 332 330 329 330 330 331 334 334 335 335 336 336 334 334 334 333 331 330 330 327 314 304 304 330 327 324 321 318 316 299 303 303 314 324 319 320
315 319 325 327 333 333 334 331 329 331 331 330 333 333 334 331 334 335 335 335 334 332 331 328 327 330 327 311 303 303 308 318 324 322 319 310 297 300 303 311 301 304 313
316 321 325 325 331 333 334 331 331 332 330 333 333 333 334 333 334 334 334 332 332 331 329 325 324 325 326 320 301 301 305 307 322 320 307 296 297 299 303 300 302 308 320
317 325 326 325 327 333 334 331 332 332 334 333 331 334 334 331 333 333 333 334 332 331 330 329 325 324 326 325 323 318 314 304 305 304 306 304 304 305 307 309 313 323 320
318 326 325 327 327 333 332 331 331 333 334 333 331 331 329 331 326 321 319 332 320 325 331 332 327 325 324 323 318 320 323 319 309 312 315 314 313 315 318 317 320 320 321
320 322 326 328 329 331 327 329 332 334 333 330 331 328 329 329 328 328 321 296 297 296 300 301 318 314 308 299 300 300 300 300 299 316 314 313 313 313 316 317 319 319 317

GFSMW_sfc_thetae_057.txt.gz
Theta_e
317 318 319 322 324 331 332 333 332 338 338 331 336 336 336 336 337 338 340 343 349 347 345 341 340 338 337 334 334 332 329 328 328 326 327 328 331 331 332 333 332 331 333
314 318 319 319 321 326 327 330 330 332 333 333 331 331 331 332 332 333 338 343 346 347 344 341 339 339 337 335 335 333 328 328 327 323 323 318 322 327 331 331 331 330 332
310 312 314 316 323 326 327 328 329 331 333 332 334 334 332 332 334 337 338 343 346 346 346 342 339 339 337 335 334 333 328 324 324 329 323 318 313 316 324 327 328 329 328
309 311 313 314 324 326 328 328 330 331 332 332 331 332 332 330 329 336 341 342 345 345 344 343 340 340 339 335 335 335 330 330 325 328 329 325 322 315 313 322 324 327 328
307 311 312 314 319 321 325 330 331 331 331 334 334 334 331 331 332 336 339 341 341 343 344 341 340 341 340 337 335 334 332 330 328 326 325 323 322 321 316 312 318 323 325
306 310 313 312 315 316 317 320 328 330 331 332 335 333 332 333 334 337 339 339 339 340 341 341 340 342 341 338 336 335 333 331 329 327 325 321 319 317 317 314 314 316 320
304 309 308 311 312 313 314 316 319 322 331 332 334 336 332 333 333 337 340 339 337 337 338 341 339 342 341 338 338 335 332 331 329 327 325 324 322 321 320 318 315 316 319
305 306 309 309 311 311 315 316 317 323 326 331 335 338 335 340 336 343 341 340 338 338 340 341 342 342 340 337 337 332 332 331 329 327 325 323 323 324 322 319 316 313 314
305 309 308 310 313 314 316 315 313 323 329 335 338 339 337 338 341 342 341 340 338 340 340 342 341 340 337 336 334 332 330 329 328 327 326 324 323 325 324 324 321 316 310
307 308 308 310 313 320 322 326 321 322 332 333 335 339 341 342 346 343 340 338 339 339 339 341 339 338 336 335 332 330 329 329 327 326 325 324 324 325 325 325 323 321 315
307 307 307 315 322 324 326 326 322 323 326 334 339 341 343 344 346 342 342 340 341 339 341 340 336 335 333 333 330 328 328 327 325 325 325 325 326 325 324 325 323 321 318
305 305 304 322 323 324 325 325 323 333 338 341 340 342 342 344 342 341 342 343 341 341 339 336 335 335 334 330 329 328 329 326 324 325 324 325 328 323 324 324 323 322 320
306 305 305 323 324 324 325 326 332 338 341 342 341 340 340 340 337 335 336 340 340 336 336 334 332 332 333 331 332 327 328 327 326 326 324 323 323 323 324 325 325 322 323
306 305 318 323 323 331 330 327 335 341 340 339 337 337 337 338 337 336 335 332 332 331 333 334 335 334 332 330 328 329 328 328 326 325 324 321 323 322 323 325 325 323 322
303 304 316 322 325 327 329 335 337 340 338 338 337 337 338 337 335 332 332 330 330 329 329 329 328 330 331 330 330 330 326 325 322 322 322 321 323 321 321 325 324 323 318
305 305 316 320 325 327 330 334 334 335 337 337 336 336 336 334 333 329 328 329 328 327 327 327 325 323 322 306 313 323 326 325 322 320 319 322 322 320 313 317 318 322 320
309 311 317 321 325 325 332 330 332 334 335 336 336 334 333 331 329 329 328 326 327 328 327 328 323 317 314 304 308 314 326 324 322 320 319 323 326 321 321 312 314 315 314
309 314 316 320 323 329 328 330 332 333 334 334 333 331 330 329 328 326 326 329 329 328 327 328 324 317 312 304 309 311 325 323 322 321 321 323 323 319 322 321 321 320 319
308 315 318 321 323 324 329 330 331 332 331 329 328 328 330 328 327 325 327 328 328 324 324 327 321 316 314 304 307 313 325 323 321 321 322 322 322 306 305 323 319 316 315
308 311 318 322 322 326 329 327 328 327 325 326 327 330 329 328 328 326 327 325 325 324 327 327 324 314 314 301 304 313 325 321 320 319 319 302 313 301 304 321 318 316 316
308 309 315 321 323 328 329 327 326 324 325 327 328 331 330 327 327 327 325 325 325 326 325 324 322 320 314 310 302 308 326 322 321 320 317 312 300 300 302 309 319 316 317
306 308 310 321 324 329 329 328 324 324 326 330 330 329 328 331 329 327 325 325 325 324 321 322 323 323 316 306 301 300 312 314 320 319 317 307 298 298 302 310 299 302 311
307 308 310 315 324 326 329 328 324 325 329 328 327 327 327 329 328 326 325 324 325 323 319 321 323 320 315 311 299 298 303 309 317 318 308 297 297 298 302 299 301 307 319
308 309 311 323 322 326 331 331 328 330 329 327 326 327 326 327 327 327 326 325 324 323 320 319 321 322 319 314 309 310 309 303 305 303 307 304 304 305 308 309 314 320 319
309 311 317 322 323 326 330 330 330 330 327 327 327 326 325 323 314 308 309 321 315 317 323 322 321 321 320 318 313 313 315 314 308 311 315 315 315 315 316 317 319 318 318
309 312 320 322 324 328 329 327 330 330 328 326 325 326 324 321 320 316 312 295 295 297 303 307 317 314 307 301 301 299 298 299 299 314 314 313 315 316 316 317 317 318 314

GFSMW_sfc_thetae_060.txt.gz
Theta_e
313 317 316 317 317 323 325 325 326 337 343 343 340 340 341 341 342 342 341 341 344 342 338 336 336 336 333 332 332 329 327 326 327 323 323 325 329 329 329 329 329 330 332
305 309 315 315 315 320 326 327 329 340 345 344 343 338 341 336 340 342 340 340 343 344 341 338 337 337 336 332 331 330 326 326 325 321 321 321 320 323 327 328 329 327 329
303 306 309 316 317 318 326 329 330 339 344 342 338 328 329 328 329 330 330 333 340 345 343 341 339 338 337 334 331 331 328 324 324 327 325 319 317 314 320 324 325 326 326
301 303 306 309 311 318 324 328 329 335 337 334 332 329 325 322 325 324 332 334 341 344 343 341 339 337 336 333 333 333 327 325 325 329 329 324 320 316 312 319 322 324 325
300 301 304 308 310 315 321 324 325 326 329 329 328 327 322 324 325 329 333 335 338 342 343 341 338 337 336 334 334 330 329 332 328 327 322 321 321 321 314 310 315 320 322
302 302 303 306 308 315 322 325 325 326 326 327 326 324 324 325 327 328 331 334 335 338 340 340 339 338 336 336 336 332 329 328 327 325 323 324 319 316 315 312 313 313 318
302 303 305 304 305 311 314 322 325 324 326 326 326 327 327 327 329 330 334 334 334 335 337 338 337 337 337 337 334 334 333 329 326 325 323 322 320 319 317 315 312 313 316
302 305 306 307 305 309 315 315 318 323 324 325 325 329 329 330 330 332 338 339 339 338 338 338 338 338 339 336 335 335 332 329 327 325 323 322 321 321 319 317 314 311 312
302 305 306 308 309 307 311 312 314 317 319 325 326 327 331 330 331 336 339 338 338 339 338 338 337 337 336 336 333 333 330 328 326 325 324 321 321 321 321 320 318 314 308
303 305 307 306 309 308 309 311 312 314 319 321 326 330 332 334 337 339 337 337 337 339 337 336 336 336 337 334 331 329 328 326 325 324 323 322 321 321 322 322 320 317 313
303 306 306 306 312 320 320 322 321 317 320 328 329 333 333 336 340 339 337 337 338 337 337 337 336 337 335 333 329 327 327 326 324 323 323 322 323 323 323 323 320 319 316
305 306 306 306 310 321 321 322 321 319 324 330 333 336 338 339 340 338 337 337 336 338 338 338 337 336 335 330 327 326 327 326 323 322 322 323 326 322 322 322 322 319 318
304 305 305 304 310 320 322 323 323 324 330 335 336 336 337 340 340 338 338 337 338 337 337 336 335 334 332 329 326 327 327 325 324 323 322 322 323 319 321 323 324 322 321
304 304 304 304 306 319 327 327 324 332 336 337 336 336 336 336 336 338 339 338 337 335 334 333 333 332 330 329 329 327 325 325 324 324 322 321 321 321 322 323 324 322 318
303 303 304 308 309 321 324 327 331 335 337 336 334 333 334 334 334 332 333 333 336 335 334 330 329 330 331 328 327 326 325 323 321 321 321 320 321 321 321 324 323 322 319
305 306 308 316 320 321 322 326 331 333 336 334 333 334 333 334 334 332 328 328 327 327 326 325 325 324 324 310 315 324 323 322 320 318 318 319 320 319 313 316 317 321 319
304 306 306 314 318 321 327 326 329 333 333 333 334 334 333 332 331 328 327 324 323 323 321 320 321 321 316 303 306 311 323 321 319 318 317 319 324 320 321 312 311 313 311
302 305 305 308 316 317 319 322 325 330 333 333 333 333 332 329 328 326 324 323 323 323 322 321 319 315 311 304 306 312 322 320 320 319 318 319 322 321 321 321 321 319 318
302 304 306 308 313 319 322 321 320 321 333 331 331 331 329 327 325 323 323 324 326 327 325 321 316 313 312 303 305 316 321 319 319 319 320 320 321 303 304 321 318 317 315
301 303 305 308 310 321 325 320 322 327 329 330 329 329 328 326 324 323 324 326 326 326 324 319 316 312 314 301 301 312 321 318 320 318 316 304 315 300 302 318 318 316 314
301 303 305 307 310 322 322 319 323 327 329 329 328 327 327 324 324 324 326 323 325 325 322 319 315 315 314 308 299 305 322 321 318 319 316 313 299 298 299 308 320 315 315
301 303 304 307 310 323 321 319 324 327 326 328 327 326 325 327 326 324 323 324 324 322 320 320 319 314 313 303 299 302 309 312 318 318 317 311 298 297 299 308 298 301 309
301 303 305 308 313 322 322 319 322 325 327 327 326 325 326 326 325 324 323 323 323 321 321 320 319 316 314 310 298 298 300 306 316 318 308 296 296 298 301 298 300 305 317
300 303 305 308 313 323 324 324 326 328 327 325 325 326 325 323 324 325 325 323 321 319 320 321 320 318 314 312 313 311 309 303 307 304 306 305 304 304 305 308 313 318 318
301 304 305 309 315 322 323 325 328 328 327 326 325 324 324 320 313 307 313 323 318 318 320 318 320 317 315 312 307 309 315 314 309 311 315 316 315 315 316 318 318 317 317
302 304 307 311 321 322 322 326 329 327 326 325 325 323 320 317 315 313 307 294 296 297 299 306 315 314 306 298 297 297 297 297 299 315 315 314 315 315 317 316 315 316 313

GFSMW_sfc_thetae_063.txt.gz
Theta_e
304 306 308 313 316 320 320 324 327 329 334 338 337 337 337 339 340 341 341 340 340 339 334 334 332 331 328 329 329 327 325 324 325 323 321 323 327 328 329 328 328 329 331
300 303 305 307 309 314 320 323 326 329 332 334 339 336 339 338 341 341 339 339 340 340 337 335 334 333 331 328 329 328 324 326 327 324 322 316 319 322 326 327 326 326 328
298 300 302 303 305 309 313 321 323 325 329 337 334 328 331 329 331 331 333 336 338 341 340 337 335 334 334 331 330 329 327 325 326 327 325 319 316 317 318 322 324 325 324
298 298 300 301 301 304 307 317 323 324 327 337 337 333 333 333 330 331 331 332 334 337 341 339 336 336 336 332 332 331 328 328 326 327 329 326 323 315 312 317 319 322 323
301 302 303 302 304 304 306 310 322 326 329 337 338 336 324 328 323 326 327 328 331 337 341 340 338 337 336 334 333 329 327 329 328 328 324 324 322 318 318 311 314 319 320
302 302 304 306 307 308 303 310 317 324 327 332 334 332 331 325 323 325 327 328 332 336 339 339 338 337 336 334 333 331 329 327 326 328 327 325 320 316 314 311 311 313 316
299 300 301 304 307 308 308 306 317 320 324 328 330 327 327 325 323 323 326 328 330 332 336 337 336 337 336 335 334 333 331 329 327 324 322 320 319 318 316 314 310 312 314
298 299 301 304 306 308 307 308 310 320 323 325 327 328 326 325 323 323 328 330 333 334 336 337 337 337 337 334 333 334 331 331 327 323 322 321 320 319 318 316 313 309 310
299 299 302 305 306 307 306 308 308 318 320 324 326 325 324 323 324 326 331 333 334 336 337 337 337 336 336 334 332 331 332 329 325 324 322 321 319 319 318 317 316 313 307
299 301 304 306 307 307 307 312 309 313 320 321 322 322 324 325 326 329 332 334 334 337 336 336 335 334 335 334 333 331 329 327 324 323 322 319 319 319 319 318 317 314 312
300 302 304 306 305 306 312 317 305 310 314 314 317 321 325 327 329 332 334 335 336 336 337 336 335 335 333 334 332 329 327 326 323 322 322 321 320 319 319 319 318 316 314
301 302 304 305 303 306 308 317 320 312 310 315 319 322 327 330 333 334 334 335 336 337 337 336 335 335 335 332 330 329 328 324 322 322 321 320 322 320 320 319 318 317 316
302 304 305 305 308 311 310 318 324 321 319 324 325 329 330 333 334 334 334 335 335 336 336 336 335 334 334 331 330 328 325 324 323 322 320 320 321 319 319 319 319 318 319
303 304 307 307 309 312 312 321 325 324 325 329 329 331 334 335 335 335 335 335 337 336 335 336 336 335 333 331 326 326 324 323 322 322 321 320 321 319 318 320 322 321 319
304 305 305 306 307 315 318 321 324 329 330 331 331 332 334 335 337 337 336 336 337 335 334 334 334 332 330 328 325 324 323 321 320 320 320 320 320 320 319 321 322 320 319
302 302 304 306 307 310 317 323 325 330 332 332 331 332 333 334 337 338 336 334 334 332 332 331 329 327 328 310 312 320 322 321 320 318 318 318 318 317 313 315 316 320 319
299 301 302 305 305 306 313 317 319 325 329 331 332 332 332 331 330 330 331 332 329 330 328 324 323 321 318 304 308 313 324 320 318 317 316 317 321 318 320 311 311 312 311
299 300 301 303 303 306 310 318 319 319 320 329 331 332 331 329 329 328 327 325 327 324 320 318 318 317 311 302 302 307 320 318 318 317 316 316 318 318 319 319 320 320 319
298 299 302 303 304 306 310 321 319 320 322 323 331 331 330 327 327 325 322 321 321 319 317 317 315 314 311 301 302 315 319 318 317 317 317 318 319 307 304 321 319 317 315
298 298 300 303 304 306 309 317 317 317 316 318 330 331 329 327 325 323 322 322 322 319 318 316 316 308 311 300 302 314 319 318 319 318 316 304 314 299 300 319 318 315 314
297 300 301 301 304 308 310 318 316 315 323 326 331 329 328 326 325 322 323 323 323 320 317 315 315 316 313 306 300 305 319 321 319 318 316 313 299 298 298 307 318 315 315
296 299 299 301 305 309 315 317 314 319 322 330 328 326 325 325 324 322 323 325 323 320 316 316 315 316 313 303 300 300 307 311 319 318 316 310 297 296 298 307 297 299 309
297 299 300 301 305 310 319 318 316 317 318 326 324 323 323 323 323 322 322 321 321 320 319 318 316 314 314 309 298 299 299 304 316 316 307 298 295 295 298 297 298 304 317
297 299 300 302 304 309 320 320 319 319 324 323 322 323 322 321 322 323 323 321 320 321 320 318 316 315 313 313 313 310 309 303 307 303 305 303 303 303 303 307 312 317 316
298 299 300 302 305 311 320 321 322 325 324 323 323 322 321 321 316 308 314 321 318 319 321 320 317 315 312 312 309 311 316 315 309 310 314 314 312 312 314 317 317 316 316
300 301 303 305 308 314 321 322 324 327 325 323 322 321 318 317 314 313 308 294 295 299 301 304 313 312 303 296 297 300 297 297 299 315 315 314 315 314 315 315 315 315 313

GFSMW_sfc_thetae_069.txt.gz
Theta_e
308 310 312 314 315 319 321 322 324 331 344 344 341 339 335 337 337 339 340 340 340 339 340 334 335 337 334 338 341 340 339 337 339 336 336 338 341 342 342 344 344 345 346
305 307 310 312 316 318 321 322 323 326 332 341 345 344 344 342 341 341 343 342 342 344 343 336 336 338 338 343 342 341 338 338 338 335 337 332 336 339 342 343 343 345 345
303 306 309 313 315 316 319 320 321 324 326 332 340 346 346 346 343 343 342 344 343 344 344 338 340 344 344 342 343 341 340 336 336 340 337 330 327 334 337 339 340 342 341
304 307 309 310 312 313 315 318 322 322 324 327 334 344 338 338 342 344 345 347 347 347 345 344 344 346 345 346 343 343 341 341 338 337 339 339 338 329 327 334 337 339 340
307 307 308 309 310 313 313 316 320 322 323 325 328 332 340 341 344 345 352 351 351 349 347 348 348 347 346 348 345 341 339 340 341 338 337 336 335 335 331 327 330 334 337
307 308 309 310 310 311 312 315 318 321 322 322 324 331 336 341 339 343 342 344 345 348 352 351 351 350 348 346 344 343 342 342 344 342 337 335 331 332 331 328 332 330 335
306 306 307 309 312 313 314 314 317 318 320 319 321 326 334 338 342 343 339 341 340 343 348 352 350 347 348 346 346 345 344 344 343 342 338 339 336 337 335 333 333 329 333
306 306 309 310 311 314 315 316 316 317 318 319 320 323 328 333 336 340 340 339 338 342 352 349 348 347 347 346 346 345 345 346 342 343 339 335 338 338 337 334 331 327 327
306 307 309 311 313 315 316 317 316 316 318 319 322 325 327 333 334 340 341 338 340 343 346 347 347 347 348 347 348 346 347 346 343 341 338 337 340 338 338 336 334 328 322
305 307 309 310 313 314 316 317 319 320 323 324 323 326 328 332 338 341 340 338 340 345 344 346 348 348 348 349 350 348 348 346 342 336 339 339 339 338 337 335 334 333 328
305 308 309 310 312 313 314 315 316 318 320 326 331 331 327 331 337 339 340 341 343 344 343 345 347 347 349 350 349 349 346 343 336 334 335 340 340 337 335 334 333 331 331
306 308 308 310 311 311 312 313 314 314 317 321 326 331 328 329 336 338 338 340 343 343 342 345 346 347 348 349 347 345 344 340 333 334 339 338 336 337 337 334 334 333 333
304 305 308 309 308 309 310 311 313 313 315 318 321 325 330 329 335 337 338 341 342 342 343 344 345 346 347 347 346 345 341 338 335 336 339 338 337 336 334 334 333 333 332
303 304 307 306 306 307 308 309 311 312 313 315 315 320 332 329 334 337 341 342 341 342 343 344 345 346 347 346 345 343 338 334 333 336 339 337 336 336 335 334 335 334 331
302 304 304 304 304 305 306 308 309 310 312 311 312 319 335 328 332 336 340 341 342 343 343 344 346 347 345 342 344 339 334 334 334 338 336 337 333 326 330 334 335 334 331
301 304 304 303 302 303 304 305 307 309 312 311 312 318 336 328 333 337 339 341 341 342 343 344 344 345 341 312 316 330 335 336 336 335 335 336 324 322 314 316 319 328 332
302 303 303 302 302 304 302 304 305 308 309 310 312 320 335 332 334 337 339 338 338 339 341 344 344 344 343 308 310 316 336 337 337 337 336 333 332 327 330 313 311 314 313
302 303 302 302 303 302 302 304 305 307 307 309 313 322 333 334 336 337 335 337 337 338 340 341 344 342 336 305 306 312 338 337 337 337 336 335 334 332 331 330 329 330 330
303 303 302 301 301 302 303 302 303 306 307 309 317 322 331 332 332 332 335 337 336 337 338 341 336 332 319 302 303 319 336 334 334 334 334 334 333 309 305 329 325 324 325
305 303 303 302 302 302 304 303 304 306 307 314 321 323 329 332 333 336 336 335 335 335 336 328 336 320 324 298 302 320 333 332 331 332 330 306 322 299 300 329 324 321 319
304 304 302 301 302 303 303 303 305 305 310 315 323 325 330 332 333 332 332 332 331 332 326 322 323 326 324 311 301 306 333 331 328 326 323 324 302 298 298 306 326 320 319
302 301 301 301 303 304 303 304 304 309 312 319 322 328 333 332 330 329 329 329 329 326 322 323 321 320 319 308 301 303 313 316 328 326 325 320 298 296 297 308 300 300 311
299 300 300 301 304 305 306 304 306 309 311 322 322 329 330 328 328 326 325 325 325 323 323 324 320 318 319 317 299 300 302 307 327 328 314 298 295 296 301 297 298 302 321
297 299 300 301 303 306 307 306 308 311 317 320 321 328 325 325 327 326 327 326 325 326 325 322 320 319 319 319 317 315 313 304 314 305 310 306 305 303 306 306 311 324 325
298 300 300 301 304 307 306 309 312 314 320 319 323 323 324 324 319 319 328 331 333 325 325 325 324 320 320 321 313 315 323 325 313 312 314 315 314 313 316 319 323 324 321
299 300 302 303 305 307 308 312 312 315 317 319 322 321 319 318 320 318 312 295 300 300 301 306 318 323 307 299 299 298 298 297 299 317 315 314 314 315 317 318 319 322 317

GFSMW_sfc_thetae_072.txt.gz
Theta_e
310 312 314 317 318 323 326 330 330 337 340 344 340 343 343 346 343 343 345 345 345 344 348 340 344 345 342 339 344 345 345 346 347 344 343 343 346 347 346 347 347 347 347
308 309 312 316 320 322 324 325 328 331 333 336 349 348 348 346 347 346 347 347 344 348 348 348 346 347 340 346 346 348 345 346 348 341 340 336 340 343 346 346 346 347 347
305 307 311 316 318 319 321 322 326 328 331 333 335 342 344 346 345 348 347 348 346 348 351 350 348 347 345 344 348 350 349 342 346 347 341 335 330 339 343 346 345 347 345
306 309 311 313 316 317 319 322 325 328 328 331 333 340 336 338 340 345 348 351 349 347 348 353 348 350 346 352 351 351 352 349 344 344 343 348 343 333 331 338 342 345 344
310 308 310 312 315 317 319 322 325 327 328 332 333 329 335 331 334 339 354 359 358 352 347 354 354 354 350 354 355 354 353 349 345 342 342 344 342 343 335 329 333 339 340
309 311 311 313 314 317 319 322 324 326 328 329 330 332 332 335 332 336 340 345 351 353 355 352 356 356 355 354 355 356 353 349 348 347 346 342 339 337 336 331 335 334 338
309 309 311 312 314 316 318 321 323 324 326 327 328 329 331 333 336 338 333 342 343 348 357 359 358 355 358 357 356 354 352 350 348 352 347 346 343 342 339 335 334 330 334
308 310 311 314 315 317 319 320 321 323 324 325 327 331 332 329 330 336 334 334 340 345 358 358 359 356 357 356 356 352 350 352 349 351 352 347 344 342 340 338 331 328 329
309 310 312 314 316 317 318 319 321 322 324 327 331 333 333 333 332 338 343 336 346 345 351 354 357 357 356 355 355 348 350 353 353 353 352 347 344 342 341 340 336 331 325
308 310 311 314 315 317 318 320 321 321 323 325 327 329 334 336 336 338 338 341 346 349 348 353 357 354 353 352 354 351 353 353 351 350 351 348 344 346 344 339 337 336 331
308 310 311 314 314 316 317 318 318 318 320 323 326 327 329 333 338 339 339 343 349 346 345 349 350 351 350 352 353 355 353 351 351 351 347 346 348 344 341 339 338 335 333
309 310 311 312 312 315 314 314 316 317 318 321 322 325 328 329 333 339 339 341 343 344 344 346 348 347 348 352 352 352 351 350 348 345 345 343 343 345 344 339 340 337 337
308 308 308 309 312 312 311 311 313 314 316 318 319 323 325 326 329 337 340 340 341 342 344 345 346 345 347 350 352 352 350 350 349 346 345 344 344 343 340 339 337 336 335
307 307 307 310 311 310 309 309 309 312 314 316 318 320 323 325 326 336 340 339 340 341 343 346 346 345 346 349 350 350 349 349 347 346 345 345 343 341 340 339 338 337 336
306 307 307 309 310 310 309 309 309 310 313 314 315 318 322 324 325 334 339 337 341 342 345 346 345 346 347 347 349 348 348 348 345 345 343 344 338 330 333 336 338 340 335
306 307 308 308 308 308 308 309 308 309 312 312 312 318 322 321 323 333 337 338 341 346 347 346 344 347 345 315 319 339 348 345 343 340 341 341 328 327 319 320 318 329 338
306 307 308 309 310 309 309 308 308 309 307 309 313 316 319 319 322 331 334 338 347 352 350 349 346 348 347 312 313 319 346 345 343 340 340 337 335 331 336 315 312 315 314
307 308 309 309 310 310 309 308 307 305 306 310 312 316 317 317 321 333 334 345 349 351 350 350 349 348 343 308 309 315 345 342 341 341 340 339 337 336 336 335 333 334 333
308 309 310 309 309 308 308 307 305 304 305 308 313 315 316 317 321 333 340 347 346 348 349 347 347 347 335 305 307 324 342 339 338 338 339 339 338 313 308 333 330 332 331
308 308 309 308 308 307 308 306 304 305 307 310 313 312 314 318 321 334 340 343 341 342 344 345 348 332 337 302 307 323 334 336 334 338 338 310 325 302 302 333 330 326 327
309 308 307 306 306 307 308 305 305 305 307 309 312 314 314 321 329 335 336 337 339 340 340 340 341 339 332 313 304 305 334 332 332 333 334 333 302 299 300 303 331 326 325
305 305 304 304 305 306 305 305 306 309 310 311 311 314 319 328 332 338 338 338 336 332 332 330 333 331 329 311 305 302 312 319 334 333 333 328 299 298 299 309 300 301 312
303 304 302 303 304 305 306 306 308 311 313 313 318 322 327 334 332 333 331 331 333 330 329 331 323 325 329 327 301 300 304 309 332 334 317 299 296 296 300 298 298 302 322
299 299 300 301 302 304 306 309 311 312 311 313 317 326 328 330 330 330 330 329 330 331 333 327 325 329 328 327 328 327 325 308 321 310 317 312 309 305 313 310 309 324 325
299 299 299 300 302 305 307 311 314 314 315 315 322 322 328 328 324 321 326 329 333 328 328 330 332 329 329 328 320 322 330 331 320 321 321 320 318 317 318 319 323 325 325
298 298 300 301 304 305 308 312 315 318 315 314 320 322 319 317 319 318 314 298 306 303 303 309 323 329 310 301 301 299 298 299 301 324 322 319 317 317 318 322 323 324 320

GFSMW_sfc_thetae_075.txt.gz
Theta_e
316 316 317 317 323 324 328 329 330 338 340 342 345 347 344 347 346 346 350 351 350 348 351 344 348 350 345 344 353 351 351 344 349 345 345 346 353 350 349 351 348 349 347
312 313 314 316 319 323 326 325 326 332 336 339 346 345 350 351 350 349 350 352 350 354 352 346 345 350 345 352 355 353 344 345 349 343 341 335 341 348 348 348 346 351 349
310 313 313 315 319 319 321 324 326 330 333 336 337 340 346 348 346 349 352 351 350 351 350 347 346 350 349 347 353 352 349 340 348 355 343 333 332 338 347 349 348 352 348
310 311 313 314 317 317 319 322 326 328 332 340 337 342 335 332 338 340 348 351 355 350 350 351 348 352 352 348 354 352 354 354 343 347 348 350 347 336 332 345 347 347 347
310 311 312 313 315 316 319 322 326 329 331 336 338 332 335 329 334 340 347 353 362 352 349 353 351 353 351 348 355 361 356 352 349 345 344 346 343 347 339 335 335 344 343
311 313 314 315 315 317 318 322 324 327 329 331 334 336 335 337 333 336 340 341 343 348 349 352 353 355 351 352 356 361 354 352 355 351 350 342 340 339 339 335 339 336 341
310 312 313 313 314 316 319 321 322 324 327 328 329 331 336 337 336 337 333 337 338 347 354 353 354 355 352 355 359 359 356 359 354 356 347 348 348 345 343 341 333 334 338
310 310 312 313 314 316 318 320 321 323 325 327 328 330 334 329 331 335 333 331 334 338 354 363 360 360 359 357 359 356 357 359 355 356 351 351 349 349 343 340 336 332 331
310 311 312 314 315 317 319 320 320 322 323 325 328 330 332 337 335 341 343 334 341 339 343 357 364 361 360 362 362 358 359 357 356 352 354 352 350 349 345 347 340 333 326
309 310 312 314 315 317 319 320 321 320 321 323 325 326 329 331 334 341 342 343 343 344 345 349 356 360 361 363 363 358 359 354 352 351 354 355 353 350 346 345 342 338 330
309 310 312 314 315 317 317 319 319 319 319 321 324 324 326 328 331 335 338 342 347 347 345 345 352 355 360 363 361 358 352 350 354 355 355 353 357 346 345 342 341 334 334
309 311 312 312 312 314 315 318 318 317 317 318 319 322 325 325 330 331 334 339 342 345 346 345 344 350 353 358 355 353 348 351 352 353 350 351 347 351 353 344 348 338 348
309 311 311 311 311 312 315 315 314 314 314 315 316 319 325 325 329 332 333 334 339 343 343 343 344 348 351 354 355 352 350 354 353 351 351 350 349 350 349 345 341 337 338
308 310 310 310 311 312 314 313 313 314 314 313 312 315 321 324 326 329 331 334 335 342 341 344 343 347 351 352 352 351 353 355 353 354 351 347 348 347 346 345 343 342 339
307 308 309 311 312 313 313 313 313 313 313 312 311 313 319 320 323 327 330 332 335 344 340 341 345 348 350 348 351 353 354 355 353 353 348 350 344 333 339 339 343 342 336
306 308 310 311 311 312 313 313 313 313 314 311 310 312 314 316 321 326 330 330 333 344 341 341 343 347 347 322 323 343 354 354 351 349 347 346 333 329 323 320 318 330 340
307 308 309 311 312 313 314 314 314 314 312 311 310 312 313 313 318 323 326 329 334 343 343 345 347 350 353 312 314 321 355 352 350 347 347 342 339 333 338 317 315 316 316
308 310 310 311 313 314 314 314 313 312 311 310 310 310 309 312 317 321 325 331 334 341 343 347 352 353 350 310 312 318 354 351 348 348 346 344 341 337 336 335 333 334 335
309 310 310 311 313 314 317 313 311 310 309 308 308 307 307 308 316 321 326 330 336 340 344 348 350 350 341 307 311 328 349 346 345 344 343 342 339 316 311 336 334 333 330
309 307 310 312 312 315 315 312 309 308 308 308 308 307 309 312 317 321 323 329 334 340 346 348 349 337 342 304 310 329 343 342 340 342 337 310 329 304 307 336 334 329 331
308 309 308 308 313 313 314 309 308 308 309 307 308 309 311 314 320 322 320 328 331 341 344 345 347 349 339 326 310 307 342 338 336 334 335 334 303 301 301 306 335 329 329
305 306 305 306 309 310 309 307 307 309 309 310 312 313 316 318 321 319 318 321 330 336 342 342 341 343 340 317 303 304 314 321 335 331 333 322 299 298 300 310 301 303 315
304 306 305 305 307 307 306 304 306 308 309 312 313 313 315 315 315 316 316 321 332 332 334 335 332 331 335 328 302 304 304 308 334 334 311 300 297 298 304 299 299 304 326
301 302 303 303 302 304 305 305 307 308 309 311 313 312 311 313 319 316 320 330 331 330 332 331 328 329 331 329 332 326 324 312 320 311 321 314 312 310 315 314 312 326 326
300 301 300 300 301 304 305 307 307 309 309 311 312 312 314 313 314 318 328 332 333 332 336 337 334 332 329 331 323 326 332 333 323 324 325 323 323 322 322 323 324 325 325
299 299 300 300 302 303 305 307 309 310 312 312 314 315 320 320 321 318 311 298 301 302 305 313 326 331 313 303 301 298 300 303 305 325 325 321 321 322 321 322 326 326 321

GFSMW_sfc_thetae_078.txt.gz
Theta_e
315 318 321 322 325 330 332 333 337 338 341 345 345 346 346 347 347 348 345 348 346 348 349 348 347 346 341 339 345 344 346 342 345 345 344 347 350 347 346 349 347 346 345
313 317 321 321 324 328 332 333 332 337 335 342 345 345 347 350 350 346 345 347 347 346 345 345 342 343 342 344 344 345 341 344 345 341 342 335 340 345 345 345 345 346 345
311 314 318 319 322 327 329 331 334 333 337 337 337 336 336 340 343 347 345 348 347 347 346 345 343 340 347 340 344 344 345 339 343 346 343 333 328 339 345 344 343 344 345
312 314 315 318 321 323 328 328 330 331 332 339 339 338 334 328 330 336 339 347 348 345 346 347 348 345 341 345 342 347 344 344 335 340 348 346 344 334 332 344 343 345 344
311 310 312 317 317 320 324 328 333 333 332 334 334 335 336 333 333 338 342 343 349 346 345 346 345 346 344 341 344 348 345 345 340 339 344 343 342 343 337 331 337 340 340
309 311 313 316 317 318 320 327 330 333 334 333 334 335 335 335 334 332 334 336 340 347 347 345 344 345 344 345 345 343 346 341 337 344 346 343 339 337 337 336 335 333 336
309 312 313 313 315 317 320 323 326 328 331 332 333 332 331 334 336 335 331 332 332 336 348 347 342 344 346 346 347 343 343 344 345 347 347 347 343 344 341 338 334 330 336
308 310 313 315 314 318 322 322 325 327 329 330 332 334 333 331 330 332 331 330 331 333 339 349 343 341 347 343 346 345 345 347 350 349 350 346 345 346 342 340 335 329 330
310 310 311 314 317 317 322 324 324 323 327 328 332 332 333 335 335 337 337 334 335 334 336 339 339 351 351 347 348 347 347 350 351 352 352 347 346 347 345 345 341 331 325
308 309 311 314 316 319 324 325 325 323 324 327 329 327 330 333 334 336 334 337 337 338 338 337 338 343 353 352 352 350 349 348 351 353 349 349 346 349 347 345 343 339 333
308 309 311 313 315 318 316 322 322 322 324 326 327 327 327 330 331 332 332 334 337 337 340 339 339 336 341 353 352 351 351 350 351 349 347 346 349 348 345 343 342 337 335
307 309 310 312 313 314 314 316 322 321 322 322 322 325 327 326 328 329 330 332 332 334 336 338 340 339 336 345 351 351 352 350 349 347 346 347 350 348 345 342 339 336 337
308 308 310 310 311 313 313 313 318 318 317 316 316 318 323 325 323 326 328 330 330 330 333 335 338 339 340 337 347 352 354 349 348 346 347 348 348 346 343 343 340 337 336
307 308 310 310 312 313 312 312 314 316 316 315 315 318 319 319 320 322 324 325 326 329 331 332 335 338 339 341 343 349 352 348 347 349 349 348 347 345 344 341 338 336 334
306 308 309 311 313 313 315 315 314 315 317 315 314 316 317 316 316 316 319 321 323 326 329 331 332 339 337 341 342 347 349 347 347 350 350 348 343 336 340 341 338 336 334
307 308 309 311 312 313 314 315 317 317 317 316 314 315 315 313 313 314 316 318 319 323 327 329 331 336 337 323 320 339 348 347 347 348 348 346 332 329 322 319 322 332 335
307 308 310 312 315 315 317 317 317 318 317 316 315 314 314 312 312 314 314 314 316 322 325 327 331 336 336 317 311 320 348 348 348 348 345 342 340 330 327 317 319 316 319
307 309 309 312 313 314 314 315 315 315 315 314 314 313 312 311 311 312 311 311 315 320 323 326 330 336 337 316 306 315 347 347 346 347 345 342 338 336 335 332 331 330 328
308 309 311 312 313 312 314 314 315 314 314 311 312 312 312 310 310 310 308 309 311 318 322 326 330 335 338 308 306 321 345 343 345 346 345 342 338 315 314 333 330 330 324
308 309 310 310 311 312 313 311 310 310 310 310 311 311 311 310 309 309 309 310 315 318 323 326 331 330 338 303 306 330 344 342 342 343 340 318 334 305 308 334 332 328 327
307 307 307 307 309 311 313 311 311 310 311 311 310 309 310 310 309 308 308 309 314 318 321 324 330 335 337 319 306 317 344 342 340 338 334 328 305 304 303 314 333 328 329
305 305 304 305 307 308 309 308 307 310 310 309 308 309 309 309 310 309 310 313 317 318 319 321 327 335 336 317 306 309 324 325 337 335 334 316 300 299 301 314 300 304 317
303 303 302 303 305 306 307 305 306 307 307 307 306 308 309 310 312 312 313 314 317 317 317 319 327 332 334 319 308 304 309 314 333 333 314 298 297 298 302 299 300 305 325
302 301 300 300 302 304 304 305 305 307 307 306 306 307 308 310 313 314 315 315 315 316 316 319 328 331 327 323 322 318 315 307 310 307 312 311 310 310 309 311 311 326 325
300 300 299 299 301 303 304 305 306 306 305 305 306 307 309 310 311 313 314 316 318 315 321 327 330 329 328 328 320 323 329 329 319 318 321 322 322 320 321 322 323 325 324
298 297 297 298 298 300 301 304 306 306 306 306 307 308 309 311 312 313 315 298 303 305 305 310 325 330 314 305 304 303 303 304 307 323 322 320 320 320 321 321 321 323 320

GFSMW_sfc_thetae_081.txt.gz
Theta_e
307 311 316 317 319 321 320 321 328 328 329 341 341 342 341 342 340 340 339 340 346 350 348 344 344 341 338 334 333 335 336 335 337 333 336 338 340 342 343 341 341 340 342
305 309 314 316 318 320 321 320 322 327 327 332 337 341 343 343 342 341 341 340 341 343 345 344 342 340 338 336 334 336 333 336 340 333 333 329 333 339 342 339 341 341 341
303 308 312 312 316 317 318 319 321 323 325 327 328 327 330 337 339 341 340 342 343 341 341 342 343 340 336 333 336 338 338 333 336 337 333 327 324 329 339 337 338 339 339
306 307 309 311 314 316 316 316 318 320 323 325 326 327 324 322 331 331 340 343 345 343 342 341 341 339 337 336 337 339 339 338 333 330 335 335 334 326 328 336 336 338 339
303 306 308 309 310 312 312 316 316 316 318 321 323 324 323 326 326 329 331 332 334 342 343 342 341 340 339 336 338 338 339 341 334 328 326 327 327 331 331 328 329 334 336
303 305 309 309 308 309 310 312 315 317 321 323 324 324 323 324 326 325 328 330 333 340 343 342 342 343 342 339 336 340 341 342 338 333 329 327 329 333 332 330 328 328 331
303 305 305 306 307 308 309 313 313 314 317 318 321 322 322 326 325 324 324 325 325 327 334 344 342 341 341 341 341 338 342 342 340 334 331 336 336 339 337 333 328 328 329
302 305 305 305 306 308 310 313 313 315 318 319 321 322 323 324 326 327 326 325 324 325 328 336 345 343 343 343 342 341 340 337 334 335 338 338 340 340 340 336 329 324 324
300 303 305 306 306 308 311 312 313 315 315 317 317 319 321 322 325 327 328 329 331 331 328 329 335 340 340 338 343 343 341 339 335 331 335 339 342 342 341 338 332 325 319
300 302 304 305 306 307 309 313 312 313 313 315 317 320 319 321 324 327 327 327 329 330 332 332 332 332 334 340 341 341 342 341 341 340 341 343 345 344 343 340 335 328 324
302 301 302 304 306 307 309 312 313 314 314 315 314 313 313 316 320 320 322 325 326 330 331 332 333 333 332 331 337 344 343 342 342 343 344 345 347 343 340 339 336 331 328
303 306 305 306 305 306 305 307 312 313 315 314 312 312 315 315 314 315 319 322 322 326 328 329 330 331 332 333 329 334 346 345 343 344 344 345 346 344 341 339 334 330 328
304 305 306 306 307 305 305 306 306 311 311 310 309 306 308 310 309 312 315 318 321 321 322 325 326 327 330 333 335 331 339 345 346 346 345 345 342 341 343 336 332 330 331
303 303 304 305 307 307 306 305 305 310 310 309 307 306 306 307 308 310 310 311 314 316 318 320 323 327 328 328 333 336 332 341 347 347 345 342 343 342 342 336 332 330 328
304 304 304 306 307 307 308 306 305 307 308 308 307 307 309 310 309 309 309 311 312 312 316 317 318 321 325 328 329 333 335 335 341 344 345 344 343 336 337 337 331 328 325
303 305 307 309 309 311 310 310 311 309 308 308 307 308 309 309 308 308 309 309 310 311 313 314 314 317 323 316 313 319 332 337 342 342 342 345 332 330 324 324 327 329 326
304 305 306 307 310 309 310 307 308 309 309 310 311 311 310 310 309 309 308 308 308 308 308 311 313 315 320 311 310 313 325 335 341 343 342 342 343 329 330 318 316 319 319
304 304 303 304 306 308 308 307 307 307 309 309 310 311 310 309 308 307 306 305 305 304 306 307 310 312 319 310 308 310 324 330 341 341 341 338 329 328 326 327 327 324 324
304 303 304 303 303 303 305 306 306 307 309 308 308 309 310 307 306 304 303 303 303 303 305 306 307 309 316 309 307 311 326 329 336 340 340 336 332 312 315 327 325 321 318
301 301 301 301 300 302 302 305 306 305 305 306 307 309 309 307 304 304 303 303 303 305 306 307 311 312 317 312 307 311 326 329 335 337 334 318 329 307 309 328 325 320 317
301 302 300 298 299 300 300 301 302 302 305 306 306 308 306 305 305 305 305 304 305 305 305 306 310 316 318 321 308 308 322 332 334 335 332 329 307 305 305 316 326 322 320
301 301 300 300 300 300 300 299 299 303 304 305 305 305 304 305 306 304 306 306 306 306 306 307 309 315 318 313 312 305 303 321 335 332 330 319 305 303 302 313 302 304 314
299 301 299 299 300 299 300 299 301 302 303 303 302 303 304 305 306 305 305 306 307 307 308 310 312 314 317 320 309 302 302 309 333 332 315 301 300 299 303 299 302 307 320
297 297 297 297 297 299 300 301 302 303 302 301 303 304 304 304 306 307 308 308 308 308 309 310 311 312 315 321 317 314 313 309 312 307 307 308 308 308 306 308 311 320 318
295 296 296 297 297 299 299 300 301 301 301 302 303 304 305 305 305 306 307 309 310 309 309 311 312 312 315 322 317 319 324 321 315 315 318 318 316 316 317 315 316 318 318
294 295 296 296 297 298 299 300 301 302 301 301 302 304 305 305 306 306 307 300 298 297 298 300 309 318 311 304 303 306 303 303 305 320 319 317 316 316 317 316 315 321 316

GFSMW_sfc_thetae_084.txt.gz
Theta_e
304 313 314 315 317 318 319 322 321 323 326 340 339 336 336 339 341 341 342 342 347 346 345 344 342 340 339 336 333 331 331 332 334 331 330 333 336 337 339 340 338 339 341
302 307 311 313 316 316 316 319 321 322 323 328 332 335 335 337 340 342 341 340 341 347 346 345 343 342 339 336 333 333 331 332 334 329 329 325 327 329 337 339 339 339 340
300 303 310 313 314 316 316 316 318 319 319 323 326 327 326 334 335 334 339 340 340 341 345 345 344 342 340 339 335 333 332 329 334 335 329 323 317 319 327 334 337 338 338
301 303 310 311 314 316 315 316 318 319 319 320 318 320 322 322 327 329 333 334 341 341 340 341 343 340 338 338 333 336 336 332 330 331 335 333 324 317 319 331 334 336 337
302 303 309 312 311 313 312 313 314 315 316 320 320 320 318 322 324 326 327 331 340 343 342 340 339 338 336 335 334 335 335 337 333 332 324 325 324 326 321 317 324 333 337
302 303 307 310 312 311 311 312 312 313 316 317 318 318 316 317 319 322 323 327 331 334 338 340 340 339 338 336 335 337 337 337 338 336 333 324 322 324 325 322 325 327 331
300 305 306 308 308 307 306 310 313 312 314 317 318 319 319 320 320 319 319 321 321 322 328 339 339 340 341 340 339 335 337 338 338 338 335 331 328 329 332 328 326 326 328
301 305 306 308 307 305 306 310 309 309 312 314 314 316 317 317 319 321 321 320 320 321 324 327 335 341 340 340 340 339 336 337 339 339 338 334 332 335 334 331 327 323 323
304 304 305 304 306 306 306 309 309 310 313 314 315 316 318 320 320 320 321 322 325 329 330 329 328 333 339 339 339 339 339 338 338 338 338 337 337 337 339 337 334 329 322
299 301 303 304 305 306 306 308 311 311 313 314 314 315 316 317 316 318 321 324 325 326 328 331 330 331 332 336 337 337 340 339 339 338 337 335 334 337 339 339 337 332 329
300 301 304 304 304 303 303 308 310 313 311 311 311 314 315 316 317 317 317 319 321 324 326 327 327 329 331 332 330 333 338 338 339 339 338 337 338 339 342 341 338 332 327
303 303 304 303 302 303 303 308 309 310 312 313 312 311 310 310 311 312 314 315 316 319 322 326 325 327 326 327 329 330 332 335 338 339 338 339 342 341 342 340 337 336 331
301 303 302 302 303 303 304 304 310 312 313 312 312 310 310 309 311 309 309 312 312 313 315 317 319 321 324 325 326 328 331 332 333 342 340 341 342 341 344 342 338 333 331
299 300 301 302 304 306 306 306 306 305 310 311 308 307 305 307 305 306 308 307 308 308 309 310 314 316 317 319 322 324 324 327 332 334 342 344 343 343 343 341 338 331 329
302 302 301 303 305 307 309 309 308 307 306 309 307 306 305 305 305 306 306 306 307 308 309 309 311 313 314 315 314 318 321 323 327 331 335 342 342 335 337 342 336 329 326
303 303 304 306 309 310 311 310 309 309 309 306 305 306 307 306 306 306 306 306 307 307 307 308 310 311 313 306 307 312 318 322 323 325 331 339 332 330 322 322 322 329 327
303 304 304 305 306 308 309 309 310 311 309 306 308 308 307 307 307 308 307 306 305 305 305 307 308 308 309 304 303 306 314 318 321 324 328 334 343 331 339 318 317 318 315
302 302 304 304 303 307 307 306 307 307 307 306 307 308 309 308 308 307 306 306 305 305 305 306 306 306 307 302 301 303 310 317 322 324 326 331 338 335 335 328 329 327 326
301 302 304 303 303 302 303 303 303 303 304 305 306 308 309 308 308 307 307 306 303 302 303 304 305 304 305 301 300 302 310 316 318 323 327 332 338 318 308 331 326 322 318
300 300 299 299 298 298 300 298 300 301 301 303 305 306 306 307 307 307 306 305 304 304 305 304 303 304 304 301 300 302 312 315 320 325 329 316 328 306 307 329 325 321 318
299 301 301 300 300 299 298 297 298 298 301 302 304 304 305 304 304 305 304 302 302 303 302 303 304 304 305 305 301 301 312 317 321 323 327 330 307 306 304 311 325 320 319
297 298 298 299 300 299 298 298 298 300 301 301 301 302 303 304 305 303 302 302 302 301 302 301 302 304 305 303 303 301 301 310 319 321 327 326 306 305 302 311 305 304 311
295 296 296 296 297 298 299 297 299 300 300 300 301 301 302 303 303 302 302 302 303 303 302 302 302 304 308 309 304 301 300 300 309 320 321 309 303 301 305 304 300 306 321
294 295 294 294 295 296 297 298 299 301 301 300 301 301 301 301 302 302 302 302 302 302 302 303 303 306 310 312 314 315 316 303 306 309 311 309 309 309 309 308 314 322 320
293 294 293 294 294 297 298 299 300 300 299 299 299 300 301 301 302 304 304 304 305 304 304 306 307 308 308 311 308 310 318 319 313 312 314 318 320 318 319 319 318 317 317
292 293 294 294 295 297 297 299 300 300 299 299 299 300 301 302 303 303 304 299 299 299 297 299 305 310 304 301 297 298 302 300 300 319 320 320 320 319 319 318 317 316 313

GFSMW_sfc_thetae_087.txt.gz
Theta_e
302 304 309 312 312 313 315 320 323 327 336 337 337 336 339 339 339 341 343 345 344 343 340 342 342 338 338 337 334 331 330 330 333 330 328 330 333 332 334 337 337 337 339
299 303 309 311 313 314 316 319 319 321 325 333 335 335 335 336 337 339 339 341 343 345 345 341 340 340 339 336 334 331 330 330 332 327 328 323 325 326 331 335 336 337 338
298 299 303 309 312 314 316 319 318 318 321 325 325 324 326 330 332 334 336 338 340 340 340 343 341 340 339 337 334 332 330 328 331 332 327 322 320 320 325 330 335 335 336
298 299 300 307 310 313 313 315 317 316 317 321 319 318 323 323 326 326 328 332 337 338 339 338 340 341 342 338 335 335 333 331 327 331 335 333 324 318 316 326 333 333 331
297 298 300 305 310 313 314 315 315 314 315 315 314 315 316 319 321 322 324 328 334 338 339 336 335 337 340 338 334 333 333 333 331 330 328 329 328 326 322 322 321 327 332
299 300 301 304 309 311 311 312 312 312 314 316 316 314 314 314 314 316 319 322 327 332 336 339 339 340 339 337 335 334 333 333 333 333 329 329 326 323 324 320 320 325 330
299 301 300 305 309 310 309 309 310 310 313 314 315 316 315 315 314 315 315 316 317 318 323 331 337 337 336 334 332 333 334 334 333 333 334 335 332 328 329 326 322 323 326
299 301 303 305 306 305 306 310 310 311 313 315 316 316 316 316 316 317 317 317 317 317 320 322 325 334 338 337 336 336 334 333 336 335 337 337 336 330 330 327 325 322 321
298 300 301 304 306 306 306 308 308 308 309 311 311 312 314 315 315 317 318 319 318 322 325 326 325 326 329 335 336 336 336 335 334 334 336 338 338 337 334 332 330 326 322
299 299 300 301 303 304 305 304 307 307 309 310 311 313 314 317 318 317 317 319 321 322 323 325 327 327 329 329 332 330 334 335 336 336 335 337 337 337 334 335 333 332 328
299 300 301 302 303 303 304 307 306 307 307 310 312 313 313 314 315 314 316 320 319 321 322 321 322 324 326 327 328 327 328 333 333 335 335 335 337 335 334 335 335 334 333
303 303 303 303 305 302 303 303 306 307 309 310 310 312 313 313 313 314 314 316 317 317 317 319 319 320 322 323 324 325 327 328 329 332 335 335 337 335 336 336 337 337 336
301 301 300 302 303 304 304 302 306 307 308 309 308 308 310 309 309 310 312 312 311 312 313 313 313 314 317 318 320 323 325 327 327 329 331 334 337 335 337 337 337 337 336
299 299 298 299 302 304 304 304 305 303 306 309 308 308 308 309 310 311 310 310 310 307 307 308 310 313 314 314 315 316 315 319 322 326 328 331 333 337 339 337 338 337 333
302 302 302 302 302 302 304 306 308 308 304 306 308 308 309 309 310 307 308 308 306 307 306 307 308 309 311 313 311 311 310 311 316 321 324 325 326 325 327 339 340 340 333
302 303 303 304 303 305 308 307 308 308 306 304 304 306 305 304 304 305 306 306 306 305 306 306 307 307 311 307 305 308 307 309 312 314 318 322 322 323 318 318 322 335 334
299 299 301 303 303 303 305 306 308 309 309 305 306 306 305 305 306 305 304 304 304 304 304 305 305 306 306 303 302 304 306 308 308 311 315 319 325 322 329 325 315 316 315
297 298 299 300 302 303 303 305 307 308 307 305 305 306 307 306 305 305 305 304 303 302 304 304 305 305 306 302 300 301 304 305 307 310 314 319 320 321 322 331 333 331 328
296 298 299 300 301 301 301 301 302 303 303 303 304 305 305 305 305 305 305 305 305 304 304 304 305 304 304 301 299 300 303 304 306 311 315 318 319 313 306 324 332 330 324
296 297 299 300 300 301 301 298 299 299 299 301 303 304 304 304 304 304 304 305 305 305 305 305 305 305 304 299 298 299 304 304 307 309 314 310 314 308 305 320 332 326 322
295 297 296 296 299 300 300 298 297 297 300 301 301 301 301 302 302 302 303 303 302 304 304 304 305 303 302 301 298 298 304 305 306 309 313 318 305 303 302 303 329 324 321
293 295 293 295 297 298 297 297 297 300 300 300 300 300 300 301 302 300 301 302 303 302 301 300 299 300 301 300 298 298 298 302 307 309 315 316 303 302 299 304 307 304 312
293 295 294 294 296 297 297 295 297 298 299 299 299 299 300 300 301 300 300 300 301 302 301 301 301 301 302 303 299 298 297 297 302 309 309 303 300 299 301 301 305 304 320
292 293 293 294 294 295 296 296 297 298 297 297 298 299 299 299 300 301 301 301 301 301 301 302 301 301 301 302 305 305 305 300 303 305 308 308 306 304 312 305 306 322 320
292 292 292 292 293 295 295 297 298 298 298 298 298 299 299 299 300 301 301 301 302 302 301 302 302 301 301 303 303 306 312 314 313 311 312 311 312 315 315 316 320 320 318
292 291 291 292 293 294 296 297 298 298 298 297 298 299 299 300 300 300 300 298 297 297 295 296 300 304 300 299 298 298 298 296 295 310 312 313 316 318 319 319 318 319 313

GFSMW_sfc_thetae_093.txt.gz
Theta_e
312 313 315 316 319 321 325 333 341 350 348 345 343 343 342 344 346 347 349 349 349 348 348 345 342 341 340 341 342 342 343 343 344 342 343 344 347 346 343 345 345 347 349
311 313 315 316 317 321 325 327 331 341 347 347 347 346 346 346 346 347 347 348 347 347 346 342 343 343 341 342 344 344 341 343 345 342 339 333 338 336 339 345 346 348 349
308 310 311 314 316 318 322 326 328 334 343 348 347 346 348 347 345 345 345 347 348 348 347 345 343 346 348 345 345 344 340 337 342 343 338 331 326 331 337 340 344 347 345
307 310 312 313 315 316 318 323 327 330 333 345 346 346 342 340 343 346 347 348 350 350 350 348 348 348 348 343 339 339 339 336 333 339 342 341 336 330 328 338 343 341 343
308 309 310 312 313 314 315 319 325 329 331 337 345 345 345 344 346 346 348 350 350 350 350 351 351 350 345 343 340 337 332 329 326 328 334 335 339 337 334 325 330 340 342
307 308 310 312 314 316 317 317 320 326 330 333 339 346 347 344 340 341 343 345 346 347 349 348 350 345 343 342 339 339 340 333 332 331 335 332 331 330 331 329 328 332 337
307 307 308 309 311 314 317 318 319 321 326 329 334 339 345 342 341 339 340 338 337 338 342 346 345 343 343 342 342 340 337 334 334 333 334 333 330 333 331 330 329 329 335
306 306 308 309 310 312 315 318 319 320 323 326 329 333 334 336 334 333 331 331 331 333 340 340 343 345 346 345 343 338 335 335 334 335 331 329 331 333 333 329 329 327 332
306 307 309 310 311 313 315 317 318 320 322 324 326 327 327 328 328 330 332 329 332 330 333 334 335 336 342 345 345 340 339 340 339 336 337 333 336 332 333 333 331 331 326
306 308 310 311 312 314 315 317 318 319 322 324 326 326 327 328 328 329 329 331 332 332 333 334 337 337 337 341 345 343 342 341 339 341 339 337 338 337 338 337 340 340 335
306 308 310 310 311 313 315 316 317 318 320 323 325 325 325 326 327 327 330 331 333 333 334 335 336 337 338 339 340 341 340 339 340 341 340 339 340 337 339 343 343 338 336
306 308 310 310 310 311 312 313 314 314 314 319 318 320 318 322 326 327 329 331 330 332 333 334 333 331 332 335 333 331 331 332 332 333 335 333 333 335 339 337 338 339 338
304 306 308 307 307 308 309 311 312 311 313 314 316 319 318 320 321 326 327 328 329 331 332 331 330 328 327 327 327 325 325 325 326 326 324 324 327 330 332 334 335 339 340
302 303 306 306 306 307 307 307 308 310 312 315 315 317 319 318 320 323 324 324 327 328 329 329 328 326 323 321 320 321 321 322 319 320 319 319 320 322 326 329 331 332 333
301 303 305 305 305 305 305 306 306 307 310 310 313 315 319 319 319 321 323 325 325 327 327 327 326 324 320 317 320 320 320 320 320 320 318 320 318 317 317 318 322 326 326
300 303 303 302 302 302 303 303 305 306 307 308 310 314 315 315 318 319 321 323 324 325 325 324 323 322 317 307 307 317 320 320 319 319 318 319 317 315 311 312 313 319 327
300 301 300 301 302 302 302 301 303 305 306 307 308 311 314 314 315 317 317 319 323 325 324 323 321 321 321 302 303 307 321 320 320 320 319 317 314 315 317 313 312 312 309
300 300 301 301 301 301 301 302 303 303 304 305 306 308 311 312 316 316 315 317 319 320 321 321 321 320 319 302 300 302 320 321 320 320 319 319 318 318 317 318 319 321 322
301 301 301 301 301 301 301 301 301 301 302 303 305 306 308 310 313 314 316 317 316 316 317 318 319 319 319 301 300 304 317 318 319 319 319 318 318 308 302 316 317 319 321
301 301 301 301 301 301 301 300 299 299 300 302 304 306 307 308 309 312 314 317 316 316 315 315 316 313 317 303 298 303 314 316 316 318 318 305 310 302 299 314 316 316 319
301 302 301 300 301 301 300 298 298 297 299 300 301 302 306 307 309 310 313 313 312 312 313 313 316 317 315 315 298 297 314 314 315 314 314 316 301 299 297 297 313 315 319
300 300 299 298 299 298 299 297 297 299 300 300 300 302 304 305 306 307 309 310 310 309 310 311 311 312 315 305 299 296 298 307 315 314 315 316 301 297 296 299 300 298 301
300 300 298 298 298 297 297 296 297 299 298 299 300 301 301 303 304 305 306 306 308 307 307 307 307 308 310 312 299 296 295 297 311 315 310 302 297 294 298 297 296 296 315
299 297 297 295 294 297 297 297 298 297 297 297 298 299 299 299 301 303 304 304 304 305 305 306 306 307 308 310 311 310 306 298 303 307 311 307 303 299 304 306 312 317 318
294 297 295 294 294 295 295 296 296 296 295 296 296 297 298 298 298 299 301 303 306 305 305 306 306 306 306 307 305 306 310 311 308 309 313 313 313 314 316 317 315 318 318
294 293 293 293 293 293 293 295 296 296 294 294 295 296 297 298 298 298 299 297 297 296 295 295 300 306 300 296 297 297 296 297 297 308 311 311 313 314 314 317 316 317 317

GFSMW_sfc_thetae_096.txt.gz
Theta_e
315 317 319 321 323 327 331 333 334 349 353 352 352 352 350 351 352 352 355 355 354 355 359 351 352 349 346 350 349 345 343 339 345 343 343 346 349 350 344 346 347 347 348
314 315 317 320 322 325 328 332 335 340 350 351 352 352 351 351 351 352 355 355 355 355 354 354 352 350 345 346 344 346 338 341 348 341 341 334 339 340 343 344 346 350 350
312 314 316 320 322 323 325 327 332 337 341 352 351 352 352 351 349 350 351 353 354 355 354 353 352 349 345 342 346 348 347 341 344 343 340 333 330 333 341 344 345 347 344
312 314 316 318 320 321 323 326 329 333 335 341 347 355 346 343 344 349 350 352 355 353 352 352 351 352 348 345 349 349 348 347 340 339 342 345 338 329 326 339 341 345 342
312 312 314 316 318 320 322 325 329 330 334 337 341 343 349 343 343 345 353 358 357 354 350 351 351 348 345 347 350 350 347 342 336 332 330 336 335 336 329 323 330 336 339
311 312 315 316 317 319 320 323 327 330 332 333 337 342 347 347 340 343 343 345 350 353 354 353 355 355 357 355 351 345 349 344 340 335 332 331 330 329 332 327 330 331 336
310 311 312 313 315 316 318 320 324 327 330 330 332 335 341 348 352 351 345 347 344 356 356 355 355 352 355 352 344 346 347 345 342 343 334 335 334 334 339 330 326 326 329
310 310 311 313 314 316 318 320 322 325 329 330 330 332 335 337 342 349 344 343 343 349 354 353 353 353 352 350 350 346 345 346 343 344 344 336 338 338 338 331 325 321 323
309 309 311 313 315 316 318 321 322 325 327 329 330 331 332 338 341 345 349 346 350 344 347 350 350 350 350 349 350 345 345 345 345 344 343 340 338 338 338 339 333 324 317
308 309 311 314 316 317 319 321 322 323 325 328 330 329 331 335 338 340 339 339 337 333 335 337 339 340 341 344 347 345 346 345 342 341 341 340 338 341 342 338 333 331 328
308 310 311 314 315 316 317 319 320 320 321 322 328 330 330 331 332 332 332 332 334 332 331 331 331 332 334 337 340 342 342 342 344 344 342 341 344 344 340 338 338 338 337
309 310 311 313 313 314 315 315 317 318 321 320 321 323 327 329 329 330 332 333 332 332 331 331 331 331 332 335 336 335 335 337 337 339 340 339 340 340 343 344 340 339 340
309 309 309 310 312 312 313 314 315 314 315 318 320 319 322 325 328 330 332 332 332 331 329 329 329 329 329 330 332 332 332 334 334 335 336 335 336 336 335 336 337 337 339
308 308 308 310 311 311 311 311 313 314 314 314 315 315 318 321 324 326 328 328 326 325 329 330 327 326 326 326 327 326 326 327 327 329 327 326 326 327 329 330 331 331 331
306 307 307 309 310 309 309 310 309 310 312 312 312 313 316 318 321 321 319 322 320 322 320 327 329 326 324 323 324 322 322 324 322 323 321 323 320 315 317 317 321 324 323
305 306 307 308 308 307 308 308 308 308 309 309 310 311 313 314 320 321 323 323 323 324 323 327 328 327 322 307 309 319 323 323 322 323 322 322 317 317 311 311 311 316 321
305 306 306 307 307 307 308 307 307 308 308 308 309 310 312 312 316 320 321 323 326 328 327 328 329 327 328 302 304 308 325 324 324 325 324 322 318 315 319 313 310 310 309
305 306 306 307 308 308 307 308 307 307 306 306 307 308 310 311 314 318 321 322 324 327 329 329 330 330 328 302 301 305 324 325 326 326 326 325 323 322 320 319 319 320 322
306 306 306 305 305 307 306 305 305 306 305 305 305 306 308 310 312 315 318 323 322 324 325 326 329 330 330 302 300 306 321 321 324 324 325 325 324 311 303 319 318 319 320
306 305 306 305 305 307 305 303 303 302 303 304 305 306 308 310 311 313 317 320 322 321 321 323 326 321 328 302 299 306 317 318 319 324 325 307 316 304 300 318 318 316 318
305 305 304 304 304 305 304 302 302 301 302 303 302 302 305 307 309 312 315 317 319 320 320 320 322 323 323 322 299 298 318 317 317 318 319 321 302 300 298 298 318 316 315
302 302 302 302 303 303 304 302 302 303 302 301 301 301 302 304 306 309 312 314 316 317 316 317 318 320 322 308 299 297 299 310 319 318 319 321 299 298 298 301 302 297 300
300 300 299 299 299 301 303 298 298 299 299 300 299 300 300 301 303 305 309 309 313 313 313 313 313 315 317 319 300 296 296 298 314 319 314 303 298 296 298 295 295 295 314
297 299 299 299 299 299 299 299 298 300 299 297 297 298 299 299 302 302 303 305 307 310 311 311 312 313 314 315 317 314 310 299 306 308 315 311 306 303 305 307 309 316 318
296 294 292 291 293 295 296 298 298 298 296 297 297 297 298 299 299 301 302 302 305 307 310 311 312 312 312 314 309 311 316 316 310 310 314 314 314 314 315 316 316 318 320
291 291 291 292 293 293 294 295 296 296 295 294 295 296 297 298 300 300 301 297 297 297 294 295 300 312 303 298 296 297 297 296 296 310 312 312 313 313 314 315 315 318 316

GFSMW_sfc_thetae_102.txt.gz
Theta_e
318 321 325 327 330 332 335 339 341 346 346 345 347 355 351 354 356 357 361 355 355 356 354 353 351 355 346 343 343 341 344 341 344 340 338 340 344 346 349 344 344 346 347
316 319 324 330 329 329 333 340 344 346 347 347 346 343 350 352 352 356 357 355 357 356 357 355 351 352 351 349 348 345 340 344 341 334 336 330 335 344 342 344 344 345 348
315 319 322 326 327 331 334 336 342 345 345 346 342 342 352 353 346 351 356 357 356 356 356 356 353 351 350 345 347 348 343 337 340 341 336 330 326 334 342 343 342 345 346
316 319 321 323 326 326 332 333 338 341 337 343 340 342 339 336 343 345 349 352 355 354 356 355 355 351 351 345 347 347 345 340 334 341 340 343 338 327 326 338 340 345 343
316 316 317 320 321 325 329 333 336 339 339 343 345 338 336 334 338 340 342 347 353 353 354 354 353 354 352 351 349 348 346 342 337 340 339 339 338 337 330 323 331 339 339
315 315 317 319 321 322 324 330 333 334 339 337 339 341 339 337 335 336 337 339 345 350 351 350 353 353 353 351 349 349 347 343 339 340 339 336 333 331 330 326 325 324 328
314 314 314 314 320 321 323 325 327 328 333 333 333 336 338 340 337 336 335 335 337 342 346 348 350 352 352 352 350 347 345 344 342 341 339 338 336 334 332 329 325 324 328
313 313 313 316 315 318 324 323 323 325 328 330 331 336 339 333 333 334 335 335 334 334 339 344 347 348 349 349 350 346 348 346 344 343 342 339 339 338 335 329 326 323 326
313 312 313 316 318 319 324 325 324 325 327 329 330 335 331 335 334 336 336 334 337 340 337 341 345 339 326 337 347 345 344 343 344 343 341 340 342 341 339 335 334 330 322
312 312 313 316 317 318 323 325 325 323 323 325 327 328 329 328 332 333 334 335 337 338 341 343 343 340 338 339 346 345 342 339 338 338 340 341 341 341 341 339 338 336 329
311 311 312 313 314 317 315 322 322 321 322 322 325 325 325 327 328 332 331 331 330 335 338 340 343 342 341 341 339 338 335 334 332 335 338 341 342 340 339 340 337 334 332
311 310 310 312 313 314 314 315 322 319 319 320 321 323 324 327 327 327 327 325 323 322 319 323 336 340 339 337 330 330 334 333 331 334 336 338 340 340 340 339 335 334 333
310 310 309 311 312 313 314 314 317 316 317 316 315 318 321 322 324 324 325 325 321 318 317 316 316 319 336 336 333 331 332 325 334 336 338 337 337 334 335 336 334 332 333
308 309 310 311 313 313 313 313 314 316 315 315 315 316 316 318 319 321 322 323 320 317 314 316 317 317 330 334 335 334 333 332 333 336 335 335 335 334 335 336 331 332 329
307 309 310 312 313 312 314 314 314 314 316 314 313 314 316 315 314 315 321 322 321 318 316 316 317 318 319 328 330 331 332 333 331 335 334 334 328 326 329 330 326 323 321
307 309 310 310 311 312 312 313 314 314 315 313 312 312 312 312 312 312 314 321 318 316 318 317 317 317 318 309 310 317 330 330 329 329 328 318 314 312 310 310 309 315 315
306 308 309 310 312 312 313 313 314 314 313 312 312 311 311 310 311 311 311 312 317 316 314 315 317 316 318 308 305 306 326 328 327 326 325 319 319 318 315 310 309 308 308
308 309 309 310 311 312 312 313 312 312 310 309 309 310 309 308 308 308 309 310 315 317 316 315 315 315 319 305 304 303 313 327 326 326 326 324 322 321 321 319 317 318 320
308 309 309 309 310 310 311 311 310 309 308 307 308 308 307 306 306 307 307 307 311 315 317 317 316 315 319 304 304 309 315 313 324 326 327 326 323 311 310 321 319 318 319
308 308 308 309 308 309 309 307 306 306 306 306 306 307 307 306 305 306 306 307 308 312 316 318 320 314 320 303 302 308 313 312 319 325 326 311 321 303 306 320 319 317 318
307 308 307 306 307 306 305 302 302 301 301 303 304 305 305 305 306 306 306 306 306 307 309 314 318 320 321 315 301 301 312 313 316 321 322 323 301 300 299 308 322 318 319
305 306 303 303 302 301 300 298 297 300 300 301 300 303 304 304 305 305 305 304 305 304 306 309 314 319 320 310 300 299 304 309 313 318 321 320 303 300 299 302 306 304 303
303 303 301 297 297 297 296 294 295 296 297 298 298 300 304 304 304 304 304 302 302 302 301 304 308 315 320 321 303 300 300 303 312 318 309 304 303 300 302 299 299 297 310
301 299 295 294 293 292 293 294 294 295 295 294 298 299 299 301 303 303 302 303 302 302 301 302 305 312 317 318 313 307 303 303 307 308 311 311 308 307 310 308 302 311 315
297 294 291 290 290 291 291 292 293 293 292 293 295 296 297 298 300 301 300 300 302 302 302 304 307 309 314 305 298 310 313 313 309 313 317 316 316 315 315 316 316 315 315
292 290 289 289 288 289 290 290 292 292 291 291 293 295 296 298 299 298 299 296 295 295 294 294 297 303 299 295 296 297 297 302 301 312 313 314 315 315 315 316 315 316 313

GFSMW_sfc_thetae_105.txt.gz
Theta_e
309 312 314 314 318 321 321 320 321 326 330 331 329 345 346 349 351 353 351 350 350 346 345 345 344 343 339 338 337 334 331 331 331 329 328 331 338 339 342 344 343 341 341
308 311 312 316 317 317 321 325 324 322 325 328 331 333 335 343 349 352 352 354 351 350 346 344 344 341 342 339 336 337 334 333 334 328 325 320 324 335 340 338 338 338 343
306 308 314 314 316 316 318 322 321 325 323 327 328 327 329 332 337 341 346 350 352 350 350 347 346 346 341 342 340 338 335 331 333 330 326 322 318 326 333 334 336 339 338
308 313 312 312 312 312 315 321 323 322 324 323 324 322 323 323 327 329 334 340 350 351 348 350 349 347 345 344 345 342 339 335 331 332 332 331 327 322 322 332 334 335 337
310 309 310 311 311 311 314 318 318 317 316 325 326 325 323 324 326 328 329 330 333 341 349 349 345 339 338 342 344 341 342 340 335 334 332 330 330 329 321 319 327 331 336
308 308 309 310 309 311 311 315 314 317 318 317 319 320 321 325 325 325 326 328 329 332 339 330 328 334 331 336 341 342 342 341 338 335 333 332 329 327 323 318 319 325 328
306 306 306 306 308 307 310 311 312 312 315 317 318 319 319 321 324 326 327 326 326 327 326 336 337 335 335 338 340 337 337 341 338 336 334 336 332 328 326 322 319 318 321
305 305 306 306 306 308 310 311 311 311 313 314 315 318 322 323 323 324 325 326 328 330 331 330 336 334 330 331 332 326 323 330 339 336 336 336 334 334 328 326 321 315 318
304 304 305 306 306 307 309 311 310 313 313 315 316 317 319 319 317 321 326 327 329 330 330 331 329 335 337 330 330 326 322 331 331 338 337 336 333 332 332 329 323 320 314
304 304 305 306 306 306 309 310 312 311 312 312 313 317 318 318 319 320 322 323 321 320 320 318 318 327 325 325 328 327 327 324 332 338 337 332 332 332 334 331 328 327 321
304 304 304 304 305 306 306 308 310 311 311 312 312 313 312 313 317 321 321 320 318 318 318 317 316 315 317 322 317 317 319 322 332 330 326 325 325 324 327 333 331 327 324
305 305 304 303 303 305 305 306 309 310 310 311 312 312 312 314 315 315 317 319 318 317 316 316 315 316 316 316 317 323 323 328 324 322 319 323 327 323 320 323 330 328 325
305 305 303 302 304 305 306 306 306 309 309 309 307 306 308 309 310 313 316 317 318 316 315 315 313 314 316 316 315 316 318 320 321 321 321 323 321 325 328 328 328 327 327
305 304 303 304 305 306 307 307 306 307 309 308 307 306 307 307 307 307 308 311 315 316 314 313 314 317 317 318 317 315 313 316 324 324 324 325 323 328 329 331 328 326 323
304 303 303 303 305 305 305 308 308 309 308 308 306 305 307 307 306 306 306 308 311 315 315 314 312 314 316 319 313 314 313 312 322 320 321 322 321 327 328 331 326 321 318
303 304 305 305 304 305 306 308 307 308 308 307 307 307 307 307 306 305 306 306 306 311 312 312 312 313 317 311 308 312 314 320 322 322 326 329 324 321 317 315 313 314 310
302 303 303 303 303 304 305 305 306 306 306 306 307 308 307 306 305 306 305 304 304 305 309 310 311 312 315 308 307 308 313 316 320 317 315 317 317 312 308 307 308 307 308
301 302 301 302 303 304 304 304 305 304 305 304 305 306 306 305 305 303 302 301 302 303 305 308 312 312 315 307 306 305 310 316 321 317 315 313 309 309 307 306 307 308 308
301 301 301 301 301 302 302 302 302 302 303 303 303 305 306 305 304 303 303 303 302 301 304 307 309 311 313 304 302 304 312 313 316 317 316 316 312 305 306 309 308 309 311
300 301 301 302 300 299 299 298 298 298 298 300 302 303 303 302 303 303 303 303 303 302 305 305 305 308 313 304 300 303 312 309 312 316 316 311 313 303 304 312 310 308 309
300 302 301 297 297 297 297 295 296 296 298 298 298 299 300 301 302 302 302 303 302 302 301 303 303 307 312 314 302 302 310 309 309 314 316 315 304 300 300 306 311 309 311
300 298 296 296 296 296 295 294 294 295 295 295 295 296 297 299 300 301 303 304 302 298 298 298 299 304 311 307 305 300 299 306 309 312 316 315 300 299 299 305 305 302 306
297 296 294 294 294 294 294 291 292 294 293 292 292 293 295 297 299 300 301 302 301 296 296 297 296 298 306 313 303 301 298 300 309 311 311 307 299 298 300 300 300 300 308
294 294 292 291 290 292 292 291 291 292 292 291 291 292 292 294 296 299 301 301 301 297 298 297 295 297 302 305 304 309 304 302 306 305 309 308 304 303 305 301 301 306 307
292 291 289 289 289 290 290 290 291 291 290 290 291 291 293 293 295 297 299 299 300 298 298 297 297 298 302 299 297 298 310 307 307 307 311 308 307 307 307 307 304 305 308
289 288 289 287 287 288 289 290 291 291 290 289 290 290 292 293 295 296 296 295 296 295 293 293 295 300 297 294 294 294 294 297 301 306 307 308 308 308 309 309 308 307 307

GFSMW_sfc_thetae_108.txt.gz
Theta_e
306 307 308 315 316 318 320 323 325 327 327 327 326 332 342 343 345 348 348 346 346 344 341 340 340 339 337 337 336 333 330 329 327 326 325 327 331 333 337 340 338 341 343
304 306 308 314 316 316 317 321 323 322 324 324 327 328 328 331 336 343 349 350 346 346 343 340 339 338 338 337 335 333 333 333 331 327 322 320 323 330 336 338 339 338 338
304 305 313 313 316 318 318 316 319 319 321 323 321 320 321 322 324 326 331 339 341 345 347 344 341 339 339 339 337 333 333 332 331 331 326 318 318 322 330 335 335 336 335
304 309 312 311 311 314 319 321 319 322 320 319 318 318 318 316 318 322 327 327 331 336 341 342 345 342 341 340 339 339 335 334 330 331 335 328 324 321 319 330 333 334 335
307 310 311 309 310 312 318 316 317 316 315 323 321 320 319 319 320 321 321 322 325 330 333 335 338 340 338 332 333 336 331 333 334 332 330 330 330 327 321 321 327 328 333
308 309 308 307 307 312 312 311 312 314 314 314 316 315 314 314 318 320 320 323 322 323 326 331 328 331 326 328 330 330 328 331 332 328 324 328 328 327 325 319 320 325 328
305 305 304 304 306 307 308 311 309 310 312 313 313 314 313 314 317 319 320 320 322 323 324 326 329 327 328 327 324 324 325 330 334 331 330 330 326 327 329 324 320 320 323
302 303 304 304 304 307 307 309 308 309 310 311 312 315 315 317 318 315 316 320 321 323 323 325 325 328 334 333 328 327 328 328 326 328 325 327 323 328 330 328 323 317 318
303 304 305 304 305 306 307 308 308 308 312 313 313 312 314 316 314 316 318 320 321 322 319 318 317 321 326 329 329 329 329 327 325 325 325 324 324 328 333 328 324 324 317
302 301 302 303 303 304 307 308 308 310 310 311 310 311 314 315 314 313 318 317 317 317 317 316 315 314 319 323 324 323 324 323 322 322 324 323 322 328 332 330 328 325 321
303 302 302 302 303 303 304 306 308 309 308 309 309 309 311 311 311 314 317 316 316 316 316 315 314 314 313 315 317 317 318 318 320 322 325 327 325 324 323 325 324 325 324
305 305 304 302 301 302 304 304 308 307 309 310 309 309 310 310 310 313 313 314 315 315 315 315 314 314 314 313 312 314 318 318 317 319 322 325 324 319 318 320 321 320 322
306 305 305 305 304 302 303 304 303 305 307 308 308 308 308 307 309 309 310 311 312 311 313 315 314 313 313 314 313 314 314 314 316 323 324 323 323 320 320 318 319 320 321
302 303 301 300 302 304 304 305 304 305 305 306 305 304 304 305 307 306 307 308 309 309 311 313 314 314 314 315 316 316 313 313 313 315 319 321 322 322 321 320 319 319 320
301 301 300 300 301 302 303 305 305 305 306 305 304 304 304 304 304 305 305 306 306 307 310 312 312 312 312 314 313 312 311 310 311 313 314 314 322 321 320 321 321 322 323
300 301 301 302 302 302 303 304 304 304 305 304 304 305 305 306 305 305 305 304 304 304 306 308 310 310 313 309 307 310 312 313 313 314 314 317 320 319 316 318 318 325 322
299 299 300 300 300 300 302 301 302 303 303 303 305 306 305 306 305 306 305 303 303 302 303 305 307 308 309 306 304 307 311 313 314 314 312 315 321 318 321 313 313 313 311
299 298 298 298 299 299 299 300 301 301 301 301 302 303 304 304 304 303 302 301 300 300 300 301 304 306 308 305 303 304 310 312 313 314 314 318 320 321 321 316 312 310 310
298 298 298 298 297 297 297 296 296 296 297 298 298 300 301 301 301 302 303 303 301 300 299 302 302 304 306 303 302 303 310 313 313 316 318 316 315 303 303 310 308 307 307
297 297 296 297 296 295 295 295 295 295 295 296 297 298 297 297 297 298 299 301 302 302 304 303 304 304 303 302 301 303 311 312 312 314 316 308 310 300 301 309 308 307 308
297 295 295 294 294 294 294 293 293 293 295 296 295 295 295 295 296 296 297 298 299 301 302 302 301 302 303 305 301 299 308 312 311 311 314 311 300 298 299 303 310 308 308
295 295 292 292 294 294 293 292 291 293 294 293 294 293 293 294 295 294 296 297 298 299 301 299 297 300 302 302 302 299 298 306 310 310 316 312 298 298 299 305 301 299 306
293 293 292 291 292 292 291 290 292 292 292 291 291 292 293 293 293 294 294 295 299 300 300 299 298 296 299 302 303 302 299 297 306 312 311 303 298 297 298 301 299 300 308
291 291 290 289 289 290 291 290 291 291 291 290 290 290 291 292 292 293 294 295 296 298 299 297 295 295 297 301 305 308 308 300 303 303 305 305 303 301 302 302 302 309 308
290 290 288 288 288 289 289 290 290 290 289 289 290 290 291 291 291 292 294 295 299 300 300 299 298 294 295 297 297 300 307 308 305 304 306 306 306 304 305 305 304 305 306
288 287 287 287 287 288 288 288 289 289 288 288 289 290 290 291 291 292 293 295 294 296 294 294 298 299 296 293 293 293 294 295 297 307 305 305 306 306 305 305 304 304 305

GFSMW_sfc_thetae_111.txt.gz
Theta_e
304 304 310 316 322 330 331 330 330 329 330 329 327 329 335 340 341 344 345 346 342 341 338 338 338 337 335 335 335 334 330 327 326 325 325 328 329 328 332 334 335 338 339
302 304 308 312 317 321 320 323 325 325 327 326 325 326 326 328 330 333 334 340 339 340 341 337 337 336 336 335 336 331 330 331 329 326 323 323 325 326 330 332 335 336 339
301 301 306 311 313 316 319 322 322 321 320 321 320 317 317 316 315 319 322 328 331 333 337 338 338 337 336 337 338 336 331 330 330 331 327 320 318 322 325 330 334 336 336
301 302 308 311 314 316 317 316 317 318 319 317 315 314 313 311 314 317 321 321 326 329 331 330 333 336 337 337 338 337 334 332 331 329 333 330 325 320 320 327 331 335 335
300 303 310 313 315 316 315 316 316 316 315 316 316 316 315 316 317 317 317 319 322 325 328 328 329 327 332 337 337 337 333 333 329 324 320 321 322 324 321 316 322 328 333
302 305 309 310 310 314 314 313 311 311 317 316 316 315 312 311 312 314 318 318 320 321 324 327 326 326 324 327 330 330 331 332 329 322 321 326 320 320 321 317 319 320 328
302 302 302 305 309 309 308 309 310 309 310 312 312 312 311 311 313 316 316 316 319 320 319 320 320 321 324 327 324 322 320 323 325 326 329 328 325 325 324 323 320 321 326
301 302 303 305 306 307 307 309 307 308 309 309 309 310 312 315 315 314 315 318 319 320 318 318 316 317 320 321 324 324 324 322 323 325 329 326 325 328 321 319 319 316 320
301 302 302 303 304 306 306 307 306 307 308 309 309 312 311 314 314 313 315 318 319 320 317 316 314 314 315 316 317 321 325 327 328 327 328 329 328 323 325 323 321 319 314
301 301 301 301 303 304 305 305 306 307 309 310 310 311 310 313 313 312 311 316 317 317 316 315 313 313 313 313 313 312 316 319 322 323 320 320 321 322 322 323 326 326 323
301 302 302 302 302 302 304 307 307 307 308 308 308 308 309 312 312 310 310 314 314 315 314 314 313 312 312 311 310 311 313 314 315 316 319 320 322 320 321 325 324 326 325
306 304 305 304 303 302 302 302 302 305 306 307 307 307 307 309 308 308 310 313 313 314 315 314 313 313 313 311 310 311 313 312 313 315 316 317 323 323 325 323 321 320 322
302 302 303 302 302 302 302 302 302 302 303 305 306 306 306 306 306 308 309 310 311 312 312 312 313 313 313 311 311 312 312 312 312 313 316 319 321 322 318 319 319 319 320
299 298 298 299 300 302 302 303 303 303 303 304 303 303 303 303 303 305 306 307 310 310 308 309 311 313 313 313 313 313 312 312 313 313 313 314 317 319 319 318 318 318 317
299 299 298 298 299 300 301 302 302 302 303 303 302 302 303 303 303 303 304 305 306 307 308 308 309 310 311 312 311 312 312 311 310 311 312 313 314 316 318 320 320 319 317
298 299 299 299 299 299 300 301 301 301 302 302 302 303 303 304 303 304 304 304 305 305 305 305 308 309 311 307 306 309 309 310 311 310 311 312 314 314 312 312 316 318 316
298 298 298 298 298 298 299 298 299 300 300 300 301 302 302 302 302 303 303 302 302 302 302 302 304 306 306 303 303 305 307 309 310 311 312 313 315 314 314 312 311 314 312
297 297 297 297 297 297 297 296 297 297 297 297 298 299 299 299 299 300 300 301 302 301 302 303 303 303 306 302 301 302 304 306 309 311 312 313 314 315 314 314 315 317 320
296 296 297 296 295 296 296 295 295 295 295 295 295 296 297 297 297 296 296 297 298 300 302 303 303 303 304 300 300 301 304 306 308 311 314 314 314 310 304 315 315 317 315
296 295 295 295 294 294 294 292 293 293 293 294 295 296 296 295 295 295 295 297 298 298 300 301 302 303 302 300 298 300 303 305 309 313 314 308 307 302 303 314 313 309 309
295 294 293 292 293 293 292 291 291 291 293 294 294 294 294 294 295 294 295 295 296 297 298 298 299 303 303 303 298 298 301 307 310 311 312 314 301 300 301 305 311 309 309
294 294 292 292 292 292 291 290 289 291 293 293 292 292 293 293 294 293 293 294 294 295 294 294 296 302 302 300 299 297 296 304 308 308 312 313 298 299 299 304 298 300 305
292 291 290 290 291 290 290 288 290 292 291 291 291 291 292 292 292 292 292 292 293 293 294 297 298 300 301 302 298 296 294 297 305 306 308 302 295 297 298 297 297 302 309
290 290 289 288 287 289 289 290 290 291 290 289 289 290 290 290 291 292 292 292 292 293 294 296 299 299 299 297 298 303 301 300 304 304 305 304 299 299 301 301 303 308 308
289 288 287 286 286 288 288 289 289 289 288 288 288 289 290 290 291 291 292 292 294 295 295 298 299 297 295 296 296 297 307 308 305 304 305 304 304 304 304 304 306 307 306
286 286 286 286 286 287 287 288 288 288 287 287 287 288 289 290 290 291 291 292 292 293 293 293 295 300 296 294 293 294 294 296 295 303 304 302 306 306 306 304 303 304 304

GFSMW_sfc_thetae_114.txt.gz
Theta_e
303 304 305 313 321 331 332 334 336 336 335 333 332 332 332 339 343 346 347 347 344 341 339 339 340 340 339 338 337 337 334 332 330 332 332 331 331 330 333 336 336 337 339
300 303 307 315 322 330 332 331 334 333 336 332 328 329 330 331 333 334 336 334 334 338 341 339 338 338 338 337 337 335 334 334 331 330 328 324 328 332 332 333 336 336 339
300 301 304 310 316 324 325 327 328 329 328 325 323 319 319 317 317 320 324 327 331 333 335 334 337 337 337 337 338 337 334 333 332 333 330 322 320 324 331 331 329 330 333
300 300 302 308 314 319 320 322 322 322 322 322 318 316 313 312 315 318 322 324 328 330 331 331 332 333 336 336 337 339 338 335 332 332 333 333 331 322 319 329 330 331 328
301 301 301 306 312 316 318 318 318 318 317 316 315 314 314 315 317 318 319 322 324 327 330 330 330 330 330 332 336 337 337 336 334 333 327 328 326 326 321 317 320 328 328
303 305 304 307 311 313 314 315 316 314 316 317 316 316 316 315 313 315 319 319 322 325 328 328 328 327 327 328 329 332 333 333 333 332 327 326 323 321 321 319 321 322 325
302 302 304 306 310 311 312 312 312 313 316 316 316 315 313 313 313 317 318 317 320 322 322 322 321 321 323 324 327 326 326 326 328 330 329 328 326 328 327 325 322 321 324
299 301 305 309 310 311 311 311 311 312 311 312 312 312 312 312 315 317 316 318 320 321 321 320 319 319 320 320 321 325 326 326 325 324 326 328 330 330 329 326 324 320 320
300 299 300 306 310 310 309 309 308 309 310 310 310 310 312 314 316 317 317 319 321 322 320 319 317 318 318 318 318 318 320 324 326 328 326 326 329 329 329 327 324 321 316
301 301 302 304 305 305 306 307 307 308 310 310 309 310 312 314 315 315 315 317 320 321 320 318 317 316 317 316 316 315 316 317 318 322 324 325 327 328 329 328 327 325 321
302 302 302 302 303 304 305 306 306 306 306 308 309 310 310 311 313 313 314 315 318 319 319 318 317 315 315 315 314 314 315 315 316 318 319 320 322 322 323 325 325 324 324
302 303 303 302 301 301 301 301 303 303 305 307 308 308 308 309 310 311 312 312 313 317 318 318 317 315 315 315 313 313 315 315 314 315 316 317 321 322 325 324 323 324 327
300 299 300 302 303 303 304 303 304 304 305 306 305 306 306 307 307 308 310 311 312 314 315 316 316 315 315 315 314 313 314 314 314 315 315 316 319 319 322 323 322 324 325
298 298 298 298 300 301 302 302 303 303 304 304 304 304 304 304 304 305 306 307 309 310 312 313 315 315 315 314 314 313 313 314 314 315 315 315 315 316 318 321 322 322 320
298 298 298 298 299 300 300 301 302 302 303 303 303 303 304 304 305 305 305 306 307 308 309 309 310 311 312 313 313 314 314 313 313 315 315 316 316 315 315 317 320 320 319
297 298 299 300 299 299 299 300 301 301 301 300 300 302 302 303 303 304 304 304 305 305 306 307 307 308 309 306 306 311 312 313 313 312 313 314 314 314 311 312 314 318 319
297 298 298 298 298 298 299 299 299 299 298 298 299 300 300 300 300 301 301 301 301 303 303 304 305 305 307 303 303 305 311 311 312 311 311 311 313 313 315 311 309 310 309
297 297 297 297 297 298 298 298 297 297 297 296 297 298 298 297 298 298 298 299 300 300 301 302 303 304 305 302 300 302 309 309 309 309 310 311 312 314 313 314 314 315 315
296 296 297 296 296 296 296 296 295 295 295 295 295 296 296 296 296 296 296 296 296 296 297 298 299 302 305 300 299 300 305 305 306 308 309 311 312 308 303 311 312 313 315
296 295 296 296 294 295 294 293 293 293 292 293 294 295 295 295 295 295 295 295 295 295 297 297 298 299 302 300 298 300 303 303 303 305 308 305 309 304 301 306 309 309 312
296 295 294 293 293 294 293 291 291 290 292 293 293 294 295 294 294 294 294 294 293 295 295 295 296 299 300 301 298 297 302 303 304 306 308 312 303 299 298 298 314 313 315
294 294 292 292 293 292 291 290 289 291 292 292 292 292 292 293 293 293 293 293 293 293 293 293 295 296 298 298 298 297 297 301 304 306 310 309 301 299 299 302 299 300 308
292 292 290 290 290 290 290 288 289 291 291 291 290 290 291 292 292 291 291 291 292 292 292 292 293 295 301 303 298 296 296 295 298 307 305 298 297 297 302 297 299 301 311
289 290 288 287 287 288 289 289 289 290 289 288 288 289 289 290 291 291 292 291 291 291 291 292 293 296 299 302 302 301 302 298 300 304 306 304 301 297 302 302 304 312 312
288 287 286 286 286 287 287 289 289 288 287 287 287 288 288 289 290 291 291 292 293 293 292 293 295 295 297 300 297 298 303 306 304 305 307 306 304 303 306 307 311 311 312
286 286 285 285 286 287 287 287 288 288 287 286 287 287 288 288 289 289 290 292 292 292 291 291 292 295 295 293 290 294 294 293 295 304 304 305 305 305 307 309 309 311 309

GFSMW_sfc_thetae_117.txt.gz
Theta_e
314 314 315 318 319 324 334 341 346 350 349 347 347 348 348 351 352 355 356 355 355 352 352 351 351 351 349 350 350 347 345 344 346 340 342 343 345 344 341 339 340 343 343
311 312 315 321 322 328 338 343 347 349 348 347 348 347 347 349 351 351 347 346 345 347 347 348 345 346 345 347 347 345 343 342 345 339 339 333 337 339 341 340 341 344 342
311 313 313 319 325 330 338 343 347 349 349 348 340 340 340 338 333 337 335 337 339 341 343 341 342 344 344 340 344 343 339 338 341 343 338 332 327 335 338 339 339 342 340
313 314 314 316 322 327 336 343 345 347 344 341 339 341 336 330 328 329 332 334 337 338 340 340 341 342 342 342 340 339 340 339 335 340 338 343 340 330 327 335 336 338 337
313 314 315 317 318 323 331 338 341 341 341 340 339 336 332 328 328 329 333 336 338 338 338 340 341 341 339 341 342 341 341 341 338 336 335 336 338 339 332 327 330 334 335
313 314 316 318 316 320 327 333 335 334 334 333 333 335 333 331 327 327 329 330 333 336 338 337 339 339 336 336 336 338 340 338 336 337 337 332 329 329 329 327 329 329 333
311 312 314 316 319 320 325 329 329 327 329 329 330 332 335 334 333 330 328 330 329 331 335 335 334 331 333 332 332 333 333 335 334 335 332 332 332 332 332 328 324 327 331
311 312 315 318 319 321 326 326 326 326 329 330 330 331 331 326 326 331 328 327 327 330 335 333 332 331 329 328 329 326 327 331 331 333 333 331 332 332 333 330 329 325 325
311 313 317 317 320 323 325 326 326 326 328 328 329 328 328 328 327 331 333 329 333 329 333 332 331 329 328 327 327 323 326 327 329 329 331 328 329 332 333 334 333 324 318
311 312 313 318 319 319 319 321 321 321 322 321 322 322 323 324 326 329 330 330 332 333 331 331 330 328 327 326 327 323 324 324 323 323 326 327 324 327 327 329 333 330 324
309 311 313 313 313 315 316 317 317 317 318 318 319 320 321 322 323 324 325 327 328 330 330 330 329 327 326 326 325 324 322 321 322 324 324 324 327 322 323 325 326 326 328
309 310 311 313 313 313 313 313 314 314 314 315 316 317 318 319 320 321 322 324 324 325 324 325 326 326 325 325 324 321 318 319 318 320 322 322 321 325 325 323 325 325 326
308 308 309 309 309 310 311 311 312 312 313 313 313 315 315 316 316 316 317 318 318 319 320 321 321 322 323 324 324 322 319 319 320 321 320 320 321 322 320 322 320 320 324
306 306 307 308 308 309 309 309 310 311 311 311 311 312 313 313 313 314 314 315 315 315 316 317 317 318 320 321 322 322 321 321 320 322 322 319 318 319 320 319 319 320 319
304 305 306 307 308 308 309 309 309 309 310 309 308 309 310 310 310 310 311 311 311 311 312 312 312 314 316 315 319 320 321 322 321 322 320 321 320 316 317 315 317 319 316
303 304 305 306 307 307 307 308 308 308 308 307 306 307 307 307 308 308 308 308 308 309 309 309 309 311 311 306 306 312 319 320 320 319 320 320 317 316 312 312 312 314 315
303 304 305 305 306 306 307 306 307 307 305 305 305 305 305 304 304 305 305 305 306 307 307 307 308 308 310 303 302 304 311 315 318 319 319 318 316 315 316 311 309 309 308
304 304 305 305 306 306 306 306 305 304 303 303 303 303 302 302 302 303 303 304 305 305 304 305 305 306 307 301 300 301 308 310 314 316 316 317 316 314 314 314 314 315 317
305 305 305 305 305 305 305 303 302 302 301 301 300 300 301 301 301 301 301 302 302 302 302 302 301 300 303 299 298 301 307 308 310 313 314 312 312 306 301 312 312 314 315
305 304 304 304 304 304 303 301 300 299 298 299 299 300 299 299 299 300 300 300 298 297 298 297 298 299 300 299 297 299 305 306 307 308 309 304 306 301 299 310 312 311 313
304 304 303 302 302 302 300 298 297 297 298 298 298 298 298 298 297 297 296 296 296 295 294 295 297 298 299 301 297 296 303 302 303 304 305 308 301 298 297 297 311 310 311
302 302 300 299 300 299 297 295 295 297 297 296 296 296 296 294 293 292 292 293 293 292 293 293 295 296 299 298 297 295 295 299 302 303 306 309 301 297 296 297 299 297 300
299 299 297 296 297 296 296 293 295 295 294 292 291 291 291 290 291 291 291 291 292 292 291 292 294 295 299 300 298 296 295 296 302 305 305 300 297 297 300 299 296 297 312
296 296 294 293 293 294 293 292 292 291 289 288 287 288 288 290 291 291 291 291 291 291 291 292 292 294 296 299 301 305 306 299 301 302 305 305 301 297 299 303 309 313 314
294 294 292 291 291 292 291 292 289 288 287 287 287 288 288 289 289 290 291 291 293 293 292 293 294 294 293 295 295 294 299 306 306 306 311 310 307 306 309 312 314 314 314
292 291 291 290 289 289 288 287 288 288 287 286 286 287 288 288 288 289 289 291 291 292 291 291 292 295 293 292 292 293 292 292 293 305 307 304 307 309 312 312 314 314 312

GFSMW_sfc_thetae_123.txt.gz
Theta_e
322 322 324 325 326 332 343 349 349 366 359 353 352 353 350 354 355 357 359 358 358 358 363 358 360 359 356 357 357 353 355 347 349 342 342 344 349 352 350 350 350 350 351
319 321 323 324 327 334 341 346 350 358 359 353 357 351 350 349 351 354 359 358 358 361 360 360 357 361 350 356 353 352 344 341 342 335 336 331 335 338 344 349 348 351 347
316 320 321 324 327 330 340 342 351 359 360 362 355 356 356 356 351 355 357 359 359 356 360 357 354 350 347 336 352 347 347 336 338 345 333 330 324 332 339 340 345 345 344
317 319 321 323 326 328 331 337 348 356 358 363 357 363 350 345 346 351 356 358 356 353 350 346 344 348 341 346 342 339 343 341 332 333 336 341 337 327 324 333 336 341 340
318 320 321 324 326 329 331 337 348 355 359 362 363 355 356 345 349 351 360 356 351 345 340 342 344 344 338 346 342 341 345 337 334 330 330 335 330 337 332 324 328 333 335
317 320 323 325 327 329 329 334 343 350 354 355 357 359 361 357 346 349 343 339 338 338 343 338 342 343 342 338 336 341 341 342 338 332 332 326 323 322 323 322 325 325 329
316 318 320 322 327 328 329 332 338 344 350 353 352 353 356 359 353 349 339 338 332 333 345 345 345 338 341 337 341 342 340 338 333 341 328 326 324 325 324 325 323 320 326
319 320 324 325 327 329 329 330 335 341 345 347 348 351 352 347 343 344 336 331 330 334 351 343 341 339 338 340 342 333 331 338 333 338 337 325 323 323 321 319 319 318 320
318 321 325 328 331 333 335 336 337 339 341 343 347 348 346 346 340 344 342 332 341 330 336 339 340 338 339 340 342 331 337 336 337 334 338 331 325 324 322 321 319 317 312
318 320 322 326 329 331 333 334 335 334 334 335 335 335 336 336 337 338 337 339 339 336 334 335 340 339 338 339 341 333 335 336 331 330 333 335 328 329 327 325 323 322 320
316 318 320 322 324 326 327 328 328 328 329 328 330 330 331 330 331 332 332 333 335 335 334 334 333 334 338 340 340 339 336 334 335 333 332 332 334 327 326 326 325 323 323
316 317 319 321 321 322 322 323 324 323 324 325 325 326 326 327 328 329 330 331 331 332 331 331 330 329 331 337 337 334 333 333 331 331 332 330 330 331 331 327 327 324 326
316 317 318 317 318 319 319 320 320 321 321 321 321 323 324 325 325 325 326 326 326 325 325 325 325 326 328 331 333 333 333 332 332 332 331 330 330 328 328 329 327 326 326
313 315 317 316 317 317 317 317 318 319 319 319 319 319 321 322 322 322 322 322 322 322 322 323 322 322 323 324 326 326 329 331 331 331 331 331 329 329 329 327 327 327 325
312 312 314 315 317 316 316 316 317 317 318 317 317 318 319 320 319 319 319 319 319 319 319 318 318 320 321 318 323 325 325 326 326 328 328 329 328 323 324 325 326 325 324
310 311 313 314 313 315 315 316 316 316 317 315 315 316 316 316 316 317 317 318 316 316 316 316 315 318 316 307 305 309 317 318 318 319 321 324 320 321 314 314 314 319 322
311 312 313 313 315 315 315 314 315 316 315 314 313 313 313 312 313 313 313 315 317 319 315 315 314 316 318 306 303 304 314 316 317 318 318 318 315 316 319 315 311 312 310
311 312 314 314 315 315 315 315 314 313 312 311 311 311 310 310 310 310 311 315 315 315 314 314 314 315 315 302 298 300 308 310 311 312 313 314 316 318 317 318 318 318 322
313 313 314 314 314 314 314 313 312 311 310 309 309 308 308 307 307 307 310 312 312 310 309 308 309 308 308 300 296 298 303 304 306 308 310 309 309 306 303 311 314 316 319
313 313 313 313 313 313 313 311 309 309 307 307 307 307 307 307 307 308 306 305 305 303 302 300 301 299 298 297 296 297 298 298 299 301 303 303 303 302 299 311 313 314 315
312 312 311 311 311 312 311 308 307 306 307 306 306 307 307 305 303 302 300 298 295 294 294 294 295 296 297 298 295 295 297 297 297 299 301 305 300 297 297 298 311 312 311
310 310 309 308 310 309 308 305 304 306 306 305 304 303 300 299 295 293 292 292 293 292 291 292 293 295 297 297 296 295 295 297 299 300 303 306 298 297 297 298 299 297 299
308 308 307 306 307 306 305 303 304 304 302 299 297 297 295 291 291 289 290 292 293 292 291 292 293 294 297 299 297 295 294 295 298 301 302 299 297 295 297 295 296 296 309
306 306 305 303 302 304 303 303 302 298 295 292 290 290 290 290 290 291 293 293 292 292 292 292 293 294 296 296 298 301 301 298 298 300 302 301 300 300 302 303 305 310 311
304 303 301 301 301 301 300 299 295 291 288 288 288 289 289 288 288 289 290 291 293 294 292 292 293 292 292 294 294 292 295 295 295 294 296 299 304 307 308 309 310 310 309
300 300 300 299 299 297 293 291 289 289 287 285 285 286 286 287 287 287 289 293 292 292 291 291 291 292 292 291 291 291 291 291 291 293 295 304 306 305 309 307 309 311 310

GFSMW_sfc_thetae_129.txt.gz
Theta_e
315 317 326 331 331 331 332 331 332 332 333 354 353 351 349 352 351 355 353 354 356 356 352 349 348 348 345 342 339 340 343 340 338 330 327 328 330 329 332 330 331 335 338
314 315 321 323 326 329 330 329 336 338 338 355 355 352 351 351 352 351 352 353 353 351 352 349 347 348 345 343 344 341 337 334 333 326 324 318 320 326 327 326 329 330 334
313 313 314 320 323 323 326 328 334 350 353 354 354 350 347 344 346 346 348 351 353 352 351 350 348 345 342 344 344 339 334 328 329 327 321 313 314 318 322 326 328 328 328
312 312 312 311 317 327 332 333 335 339 348 348 348 342 337 339 337 345 349 349 352 349 350 349 347 344 340 334 335 339 334 329 323 323 327 325 322 318 315 320 325 326 326
310 311 313 314 315 323 325 331 334 339 342 345 346 342 338 338 339 342 347 347 348 349 351 348 343 339 336 333 332 330 329 328 326 323 321 319 317 316 316 311 314 316 319
312 312 312 317 321 321 327 332 335 334 342 345 343 345 345 341 340 341 344 344 345 346 344 343 338 337 333 331 327 328 327 328 325 325 322 317 314 314 313 309 310 310 314
314 310 313 319 322 324 324 328 338 341 339 347 346 344 343 342 344 339 339 336 334 334 335 335 334 335 331 329 327 327 326 327 325 324 322 321 319 315 313 311 307 308 309
309 315 321 323 325 326 329 328 333 336 339 340 343 343 342 343 342 338 335 333 332 332 332 334 333 332 332 329 329 327 326 325 323 323 324 321 319 317 314 311 308 304 305
315 321 323 325 326 329 330 332 333 334 334 333 335 339 341 336 331 334 331 335 333 334 331 332 332 331 332 330 327 326 323 324 323 323 322 322 323 321 318 315 312 309 302
317 318 321 323 325 324 326 326 326 325 326 325 327 327 326 329 327 328 326 328 328 329 331 333 332 331 330 328 328 327 325 324 325 324 322 322 322 321 319 318 316 312 309
316 318 319 323 321 319 318 322 320 318 319 321 320 320 321 323 324 322 321 321 322 323 326 327 326 328 330 331 328 326 325 325 324 324 322 322 321 321 320 317 316 314 312
310 311 317 318 317 315 315 314 315 315 314 318 320 318 318 318 318 318 319 321 321 322 321 323 322 323 324 323 324 326 328 326 324 324 324 323 325 320 321 320 318 317 315
310 311 312 313 312 312 313 313 313 312 312 313 312 314 314 314 314 315 315 316 316 316 317 318 318 319 319 318 318 318 320 322 323 323 323 323 322 321 321 318 318 317 319
309 311 312 310 310 311 311 311 310 312 312 312 311 311 311 312 312 313 314 315 315 314 314 314 315 315 315 315 315 314 313 312 314 315 317 318 319 320 320 319 318 319 317
309 309 307 308 309 309 310 310 310 311 311 311 309 309 310 309 309 310 311 312 312 312 313 312 312 312 312 314 309 307 307 307 307 309 310 310 313 316 314 313 313 314 315
308 309 308 309 309 309 309 310 310 310 309 308 308 308 308 308 307 307 308 309 309 309 310 309 309 308 311 306 304 303 302 304 305 305 307 309 313 312 310 309 310 310 309
308 308 308 309 308 309 309 307 308 309 307 307 308 307 306 305 304 304 304 303 303 304 304 305 305 305 305 300 299 300 298 300 301 302 303 305 309 308 308 308 307 307 307
307 306 307 307 308 307 308 308 307 306 306 305 306 306 305 303 302 302 301 301 301 300 300 300 301 301 303 298 296 298 296 296 297 299 300 301 303 303 305 306 306 306 307
306 306 306 306 306 306 306 305 305 304 304 304 303 303 303 301 300 298 297 297 295 295 295 296 296 295 295 296 296 296 297 297 296 297 298 300 300 299 298 300 300 301 302
305 305 305 306 304 304 304 302 301 301 301 301 301 300 299 297 296 294 293 293 291 292 293 292 293 294 295 296 295 295 294 294 294 296 297 299 299 297 296 298 299 298 300
305 304 304 302 302 302 300 299 299 297 297 298 297 297 295 292 291 290 290 290 291 291 291 291 292 294 296 295 295 295 295 294 295 296 296 297 297 295 295 295 298 298 300
302 302 300 300 299 300 298 296 294 295 294 293 293 291 290 290 291 290 290 291 291 290 290 290 292 294 295 296 295 294 294 296 295 295 297 297 295 295 294 295 295 294 296
299 299 297 296 297 297 294 291 291 292 291 289 287 288 289 290 289 289 289 288 289 288 289 290 291 292 295 296 296 294 294 295 296 298 297 295 294 293 294 295 295 295 296
296 296 295 295 293 293 292 290 290 289 288 286 288 288 287 288 288 288 288 288 287 287 288 289 290 292 293 294 295 295 296 295 296 296 295 295 294 294 294 295 296 297 299
295 295 294 292 289 289 288 289 288 287 286 286 287 286 286 287 287 288 288 288 289 289 288 289 291 291 291 293 293 293 293 293 293 292 292 291 293 294 295 298 300 303 304
293 292 290 288 287 287 287 287 288 288 286 285 285 286 286 287 288 288 288 291 291 291 291 291 290 293 293 292 292 291 291 290 290 291 290 291 292 294 296 298 302 305 305

GFSMW_sfc_thetae_132.txt.gz
Theta_e
313 315 323 338 335 329 335 337 337 336 338 333 338 343 347 347 351 350 353 352 348 349 350 349 346 342 336 335 335 328 325 327 333 331 326 325 325 326 328 328 329 330 333
312 317 322 327 329 328 329 331 332 332 330 335 339 341 348 347 350 351 351 353 353 353 351 346 346 341 340 339 336 335 335 334 333 326 321 317 318 322 324 324 328 327 330
313 312 316 322 326 327 328 330 331 330 331 337 342 344 349 346 347 346 348 349 353 352 351 345 344 343 340 339 339 339 336 329 328 326 320 312 311 314 320 323 326 325 325
312 311 311 316 322 326 330 329 330 331 332 336 339 345 347 345 348 348 349 348 350 350 350 346 344 342 341 338 337 341 335 327 324 322 324 320 317 316 311 315 322 322 319
310 310 311 310 312 323 327 326 328 333 337 336 342 349 344 341 337 339 343 343 344 346 346 346 343 341 339 337 333 337 331 327 323 320 319 317 316 316 312 308 311 312 315
309 311 310 310 316 320 325 327 328 331 338 344 343 341 338 336 335 335 340 339 341 342 345 345 342 339 337 334 331 331 328 326 324 323 320 316 312 309 311 308 308 308 309
308 309 310 318 318 320 325 329 332 330 339 342 339 339 339 338 337 334 336 337 335 335 340 340 338 335 333 330 328 325 325 325 322 322 320 318 315 316 311 309 307 306 307
309 316 317 319 325 328 328 332 334 334 335 336 336 335 338 338 336 334 333 332 330 330 334 335 332 333 332 329 326 324 324 323 324 322 321 320 320 316 313 310 306 304 303
315 320 321 327 327 326 325 327 327 326 328 328 325 325 327 326 326 327 328 327 326 330 331 329 330 330 331 329 326 324 322 323 321 320 319 318 318 317 316 313 310 307 303
320 321 322 322 322 322 320 320 321 321 321 321 320 321 322 323 323 323 324 321 321 322 324 325 327 329 328 328 326 323 322 321 321 321 320 320 321 320 319 317 314 310 310
318 319 317 315 317 317 315 314 314 316 317 318 317 317 317 318 318 317 317 318 321 322 321 322 322 323 324 324 325 325 326 324 322 321 321 321 320 319 319 317 316 313 311
316 316 314 312 312 311 311 311 311 311 312 314 313 313 313 313 313 313 313 315 315 318 320 321 320 321 321 320 321 320 319 320 322 322 321 321 325 319 319 319 316 315 314
313 312 311 310 310 310 310 310 310 309 309 310 309 310 309 310 310 311 312 312 313 313 313 315 315 317 315 313 313 313 315 314 314 316 316 317 317 317 318 318 318 319 319
308 308 307 307 308 309 308 309 308 309 309 308 307 307 306 306 306 308 309 310 312 310 310 310 311 312 312 312 313 312 308 307 309 310 310 310 309 309 310 311 313 315 315
307 307 306 306 307 306 307 308 307 308 307 307 305 304 306 305 305 305 305 306 306 307 308 308 308 308 308 310 305 305 303 302 304 305 307 308 310 314 312 310 307 307 307
307 307 308 307 307 307 307 307 306 306 305 305 304 305 304 303 301 301 301 302 302 302 303 303 304 303 308 301 302 302 299 299 300 300 302 304 308 308 309 309 310 308 305
307 307 306 306 305 305 306 304 305 305 304 303 304 304 302 301 300 300 300 298 297 297 297 298 299 299 299 300 298 300 296 296 297 298 299 300 303 304 304 305 306 306 306
305 305 305 304 303 303 303 303 303 303 302 301 301 301 300 299 298 297 295 295 293 293 293 293 294 294 296 298 297 298 295 295 295 296 296 296 297 299 301 301 301 302 303
303 302 303 302 301 301 301 301 300 299 299 298 298 298 297 295 294 292 290 291 290 290 291 292 292 291 292 295 294 295 294 295 296 296 296 297 296 297 296 298 298 299 300
303 302 302 301 299 298 298 298 295 294 294 295 295 295 293 291 290 288 288 288 289 290 292 292 292 294 293 294 295 295 296 294 294 295 296 298 297 295 295 296 297 297 298
301 300 298 297 296 297 296 292 292 290 292 293 292 291 289 288 288 288 289 290 290 291 291 291 292 293 294 295 295 295 295 295 294 295 296 297 296 294 294 294 297 296 298
297 297 296 294 293 294 292 289 288 290 290 289 288 288 288 289 290 289 289 289 289 289 289 289 291 293 295 295 295 294 294 295 294 295 297 297 295 294 294 294 294 294 295
294 295 293 291 290 290 289 287 287 288 288 286 287 288 288 289 289 288 287 288 289 288 288 289 289 291 294 295 295 294 293 294 295 297 296 295 293 293 294 294 294 294 295
293 292 290 288 287 288 288 286 287 287 286 286 287 288 287 288 287 289 289 288 288 288 288 289 289 291 292 293 295 295 295 295 295 295 294 294 293 293 294 294 295 295 294
290 289 287 286 285 286 286 286 286 287 287 287 287 287 287 287 288 289 289 289 291 290 289 290 290 290 291 293 293 293 293 294 293 293 292 291 291 291 293 294 296 298 299
287 286 285 284 284 285 285 285 287 288 286 285 286 287 287 288 288 288 289 292 291 291 291 291 291 293 293 292 292 291 291 290 290 291 290 290 291 291 293 295 296 299 301

GFSMW_sfc_thetae_135.txt.gz
Theta_e
316 319 332 333 332 334 336 336 339 341 341 334 334 338 342 346 345 345 347 345 345 344 344 345 344 341 338 336 333 332 329 326 329 329 328 327 325 325 327 326 327 329 329
313 318 324 333 332 330 331 334 335 337 338 333 335 340 342 345 349 350 347 348 347 346 344 342 344 339 337 334 334 331 330 328 333 327 322 320 318 321 324 321 325 325 328
310 314 322 329 333 327 329 334 334 335 335 331 334 339 344 346 344 345 348 350 351 349 347 346 345 343 341 339 337 334 332 331 331 331 324 314 313 313 318 321 323 322 321
311 311 316 323 328 329 329 331 332 333 331 330 333 335 336 339 343 344 344 347 348 349 349 349 346 343 342 340 338 338 334 330 328 324 325 319 315 314 312 314 317 318 317
310 310 313 315 324 328 329 330 329 327 328 330 332 335 337 341 339 339 342 344 344 348 348 346 344 343 342 340 337 336 333 332 327 322 320 318 316 315 311 310 310 310 313
310 311 311 310 309 320 326 328 328 327 329 329 331 335 338 338 334 337 337 340 342 344 345 347 345 344 340 338 335 334 334 330 325 323 321 317 314 311 310 308 309 307 309
308 308 307 311 316 314 323 326 324 323 330 334 337 336 338 336 335 335 336 335 335 336 338 338 338 338 335 336 333 330 328 327 324 322 321 318 315 313 312 308 306 306 306
305 308 313 319 323 321 320 325 326 330 332 333 331 328 330 330 329 329 329 327 326 329 330 333 334 335 336 333 329 325 324 323 324 323 319 318 317 314 312 310 306 302 303
313 317 322 324 325 325 326 327 325 323 323 323 323 323 323 322 322 322 322 322 322 327 325 328 327 328 329 328 325 323 323 322 321 321 320 319 318 317 315 311 309 307 302
319 320 320 319 319 319 319 320 321 319 320 321 321 320 319 320 319 318 318 319 319 320 320 321 322 322 324 324 324 323 322 320 320 320 320 318 320 319 319 317 313 311 310
316 315 316 315 314 314 316 317 317 316 315 315 315 314 313 313 313 313 313 313 314 315 317 318 318 318 318 319 318 319 324 323 323 324 323 322 322 319 318 318 317 314 312
314 314 313 312 311 311 311 311 311 311 311 311 310 308 308 308 308 309 310 311 311 312 313 314 315 316 315 315 314 315 317 317 317 319 319 320 322 317 317 315 315 314 315
310 310 310 309 309 309 309 309 309 307 307 307 306 305 304 304 304 304 305 307 308 308 308 309 310 311 312 313 312 312 311 309 309 310 309 309 309 307 309 311 313 314 317
307 307 307 307 308 308 308 308 306 307 306 306 304 303 302 301 301 301 302 303 304 304 305 306 307 307 308 308 307 307 306 304 305 306 307 308 307 306 306 306 306 308 309
306 306 306 306 307 306 307 307 306 306 305 304 303 301 300 300 300 301 301 301 301 301 301 301 302 302 305 306 302 302 301 300 300 301 303 304 307 310 309 307 305 304 303
306 307 307 306 306 306 306 306 304 304 303 302 301 301 300 300 299 299 298 297 297 296 297 297 298 297 300 300 301 301 297 297 297 296 299 301 304 304 307 308 308 307 302
306 306 305 305 304 304 304 302 302 302 301 300 301 300 299 298 297 296 295 293 293 292 292 292 294 293 294 297 297 300 296 294 294 294 295 296 299 301 300 302 303 304 304
305 304 303 302 302 301 300 299 299 299 298 297 297 296 295 294 293 292 290 288 288 288 288 289 290 290 292 295 295 295 293 293 293 293 294 294 295 296 297 297 298 299 301
302 300 299 298 297 298 298 296 295 294 294 294 294 294 292 290 289 288 287 287 286 287 288 290 290 291 291 294 294 294 295 295 295 296 297 296 296 297 296 296 295 295 297
300 297 296 296 295 294 294 292 291 290 290 291 291 291 289 288 287 286 286 287 289 290 291 291 292 293 292 294 294 294 295 294 295 296 296 297 296 295 294 294 293 294 296
296 295 293 292 292 292 291 289 288 287 289 289 289 289 287 286 288 289 290 289 287 288 290 291 291 292 293 293 294 294 294 294 294 294 295 296 296 294 293 294 296 295 297
294 293 290 289 289 290 289 287 285 287 287 287 287 287 287 289 290 288 286 287 289 289 290 290 291 293 294 295 294 294 294 295 294 294 295 295 295 294 293 294 294 293 295
292 291 289 288 287 288 287 284 285 286 286 285 285 287 289 289 287 286 288 289 289 289 289 290 290 291 293 295 295 294 293 294 294 295 295 294 293 293 293 293 293 293 293
290 289 287 285 284 286 286 284 285 286 285 284 287 288 287 289 288 289 290 290 289 290 290 290 290 291 293 294 296 295 296 295 296 296 295 294 293 293 293 292 292 292 294
287 286 285 284 283 284 284 285 285 285 285 287 287 287 288 288 289 290 290 290 292 291 290 291 291 291 292 294 295 293 293 294 294 293 293 292 292 291 292 293 293 294 296
285 284 283 282 283 284 283 284 285 288 287 286 287 287 288 288 289 289 290 293 292 292 292 291 291 295 293 292 292 292 291 291 290 291 291 291 292 292 293 295 296 298 298

GFSMW_sfc_thetae_141.txt.gz
Theta_e
323 324 327 333 337 341 346 348 349 350 347 346 344 344 345 346 345 346 348 348 347 347 350 348 348 349 347 349 350 349 348 348 343 342 343 343 343 344 344 346 343 343 341
320 322 326 335 338 339 341 345 347 349 348 348 348 349 347 349 350 351 352 351 350 351 350 351 350 351 349 349 347 348 343 340 345 342 342 332 336 334 339 340 341 341 339
318 322 324 329 335 339 341 341 344 348 348 349 346 348 352 355 352 354 354 354 352 352 353 352 353 352 352 350 350 348 346 339 345 339 339 329 324 325 332 337 336 339 335
319 321 324 326 330 334 339 343 345 345 346 348 346 345 342 342 349 353 355 357 358 356 355 355 353 351 352 351 352 351 346 343 338 343 340 331 328 324 323 331 335 337 336
318 320 322 324 327 332 336 340 343 345 346 345 346 344 343 345 349 350 350 354 354 355 356 358 357 351 351 349 347 344 347 345 342 338 334 335 329 326 323 320 327 331 332
317 319 322 324 325 327 332 337 337 340 342 342 343 343 342 343 343 346 347 344 346 343 343 345 350 352 352 349 350 348 346 346 340 339 337 334 330 326 326 322 329 329 330
314 316 318 320 322 325 328 334 336 335 338 339 340 341 343 345 342 338 334 334 333 333 336 340 341 341 344 346 346 345 343 345 345 343 337 339 336 339 334 329 328 326 327
312 313 316 318 320 323 323 331 334 336 339 340 339 340 338 333 331 330 328 326 327 327 331 331 333 335 337 339 339 339 338 339 339 342 340 339 336 337 333 328 326 322 321
313 314 316 319 322 327 332 333 333 332 333 331 330 329 329 328 327 328 327 324 326 323 326 326 326 327 328 329 334 333 335 336 336 337 337 335 336 335 333 331 329 325 320
318 321 322 324 326 329 330 331 329 326 324 325 324 323 324 324 323 323 323 323 323 323 323 323 324 324 324 324 326 325 328 329 332 333 333 333 332 332 332 331 329 326 322
317 317 318 321 323 324 323 322 322 321 321 321 320 319 317 318 318 317 318 318 318 318 317 317 318 318 319 321 322 322 322 322 323 326 326 327 329 329 330 331 329 326 324
315 316 319 319 318 319 319 317 317 316 315 315 315 316 313 313 313 312 314 315 314 314 313 313 313 313 313 316 315 315 316 317 317 319 321 321 323 322 322 322 324 324 324
315 316 316 315 315 314 313 312 311 310 313 313 311 311 311 311 311 310 311 311 310 310 310 310 309 309 309 310 312 311 311 312 313 315 316 316 317 317 317 317 317 314 315
311 312 313 312 311 310 309 309 309 309 310 309 310 309 310 309 309 308 308 307 307 306 305 305 305 305 305 306 307 308 306 308 309 311 312 313 313 314 315 315 316 316 314
310 312 312 310 308 308 308 308 308 309 308 308 307 306 307 307 306 305 304 303 303 303 303 302 303 303 304 303 301 302 304 304 305 307 307 308 308 307 309 310 312 313 311
309 310 309 308 307 307 306 308 308 307 306 304 304 304 304 304 302 302 302 302 301 301 301 301 301 302 302 296 296 298 301 303 303 303 304 305 304 305 304 304 305 306 306
307 306 307 305 303 303 304 303 304 304 304 302 301 300 300 299 300 300 300 299 300 300 300 300 301 301 302 296 295 296 301 301 301 301 301 302 304 303 304 303 303 302 302
305 304 302 301 303 302 302 302 302 301 300 299 298 298 298 298 298 298 298 298 299 299 299 299 301 301 301 296 294 295 301 301 300 299 299 300 300 301 301 301 300 301 303
301 300 299 299 298 301 301 301 299 298 297 297 297 297 297 297 297 298 298 298 298 299 300 301 302 302 303 297 295 296 300 301 301 302 301 299 298 297 296 298 297 298 299
298 297 298 297 300 300 300 298 296 296 296 296 296 297 297 297 298 298 298 298 299 300 299 299 300 300 302 297 295 295 297 296 297 300 302 299 299 295 294 297 296 295 297
297 297 299 297 297 298 297 295 295 294 295 295 295 296 297 297 298 298 298 297 299 297 298 300 301 301 301 302 296 295 296 296 296 297 299 301 296 294 294 293 298 298 300
297 298 296 295 295 295 295 294 293 293 294 295 296 297 297 297 296 296 298 299 297 297 298 298 299 301 303 299 298 295 295 296 296 297 301 303 296 294 294 294 295 294 295
296 296 294 294 294 294 293 293 292 293 295 296 296 296 297 295 296 298 298 297 298 297 296 296 296 297 299 300 297 295 294 295 296 299 299 296 295 294 294 294 294 294 294
294 295 294 293 292 292 292 292 293 293 294 295 295 296 295 293 295 298 298 296 297 296 294 294 294 296 297 299 299 297 299 299 301 301 301 299 296 295 295 295 296 296 295
293 293 292 291 290 291 292 292 293 294 294 295 295 293 292 292 294 297 297 298 299 295 294 294 294 294 292 294 291 291 293 294 295 294 298 299 299 299 300 301 302 302 298
292 292 291 290 290 291 291 292 293 294 293 294 292 291 291 291 292 293 296 294 293 292 291 291 292 293 291 290 290 290 291 291 292 295 298 298 299 300 301 302 303 306 305